Wetterdaten: aktuell Sonntag, 21.04.2019 12:51
Datum Zeit Temp 2m Temp 5cm Temp -10cm Temp -20cm Temp -50cm Luftf 2m BFeucht-10cm BFeucht-20cm BFeucht-50cm Luftdruck Regen Wind Richtung Richtung Sonnenschein ET UV Solar Taupunkt Windchill Windben Empfang
21.04.2019 12:51 20,6 C 30,0 C 15,0 C 13,3 C 12,8 C 27 % 33 cb 19 cb 21 cb 1021,1 hPa 0,0 l/m 12,9 km/h (3 Bft) O-NO 67 1 min 0,000 mm 4,8 UV-I 812 W/m 0,9 C 18,5 C 19,3 km/h (3 Bft) 100,00 %
21.04.2019 12:50 20,6 C 30,0 C 15,0 C 13,3 C 12,8 C 25 % 33 cb 19 cb 21 cb 1021,2 hPa 0,0 l/m 11,3 km/h (2 Bft) O-NO 67 1 min 0,000 mm 4,8 UV-I 812 W/m -0,1 C 18,9 C 17,7 km/h (3 Bft) 91,30 %
21.04.2019 12:49 20,7 C 29,4 C 15,0 C 13,3 C 12,8 C 26 % 32 cb 19 cb 21 cb 1021,2 hPa 0,0 l/m 11,3 km/h (2 Bft) O-NO 67 1 min 0,000 mm 4,8 UV-I 810 W/m 0,5 C 19,0 C 17,7 km/h (3 Bft) 95,65 %
21.04.2019 12:48 20,8 C 30,0 C 15,0 C 13,3 C 12,8 C 25 % 33 cb 19 cb 21 cb 1021,2 hPa 0,0 l/m 9,7 km/h (2 Bft) O-SO 112 1 min 0,000 mm 4,8 UV-I 809 W/m 0,1 C 19,6 C 16,1 km/h (3 Bft) 91,30 %
21.04.2019 12:47 20,8 C 30,0 C 15,0 C 13,3 C 12,8 C 25 % 33 cb 19 cb 21 cb 1021,2 hPa 0,0 l/m 12,9 km/h (3 Bft) O 90 1 min 0,000 mm 4,8 UV-I 812 W/m 0,1 C 18,7 C 17,7 km/h (3 Bft) 91,30 %
21.04.2019 12:46 20,7 C 29,4 C 15,0 C 13,3 C 12,8 C 26 % 33 cb 19 cb 21 cb 1021,2 hPa 0,0 l/m 12,9 km/h (3 Bft) O-NO 67 1 min 0,000 mm 4,8 UV-I 812 W/m 0,5 C 18,6 C 19,3 km/h (3 Bft) 95,65 %
21.04.2019 12:45 20,4 C 28,9 C 15,0 C 13,3 C 12,8 C 27 % 32 cb 19 cb 21 cb 1021,2 hPa 0,0 l/m 12,9 km/h (3 Bft) O-NO 67 1 min 0,000 mm 4,8 UV-I 814 W/m 0,8 C 18,2 C 17,7 km/h (3 Bft) 95,65 %
21.04.2019 12:44 20,4 C 28,3 C 15,0 C 13,3 C 12,8 C 26 % 32 cb 19 cb 21 cb 1021,3 hPa 0,0 l/m 9,7 km/h (2 Bft) O-NO 67 1 min 0,000 mm 4,8 UV-I 812 W/m 0,3 C 19,2 C 14,5 km/h (3 Bft) 95,65 %
21.04.2019 12:43 20,3 C 29,4 C 15,0 C 13,3 C 12,8 C 25 % 33 cb 19 cb 21 cb 1021,2 hPa 0,0 l/m 14,5 km/h (3 Bft) O 90 1 min 0,000 mm 4,8 UV-I 812 W/m -0,4 C 17,7 C 17,7 km/h (3 Bft) 91,30 %
21.04.2019 12:42 20,3 C 29,4 C 15,0 C 13,3 C 12,8 C 26 % 33 cb 19 cb 21 cb 1021,2 hPa 0,0 l/m 16,1 km/h (3 Bft) O-NO 67 1 min 0,000 mm 4,8 UV-I 810 W/m 0,2 C 17,4 C 19,3 km/h (3 Bft) 100,00 %
21.04.2019 12:41 20,4 C 29,4 C 15,0 C 13,3 C 12,8 C 27 % 33 cb 19 cb 21 cb 1021,2 hPa 0,0 l/m 17,7 km/h (3 Bft) O-NO 67 1 min 0,000 mm 4,8 UV-I 807 W/m 0,8 C 17,2 C 24,1 km/h (4 Bft) 91,30 %
21.04.2019 12:40 20,3 C 28,9 C 15,0 C 13,3 C 12,8 C 29 % 32 cb 19 cb 21 cb 1021,2 hPa 0,0 l/m 9,7 km/h (2 Bft) O 90 1 min 0,000 mm 4,7 UV-I 803 W/m 1,7 C 19,1 C 17,7 km/h (3 Bft) 95,65 %
21.04.2019 12:39 20,3 C 28,9 C 15,0 C 13,3 C 12,8 C 29 % 32 cb 19 cb 21 cb 1021,3 hPa 0,0 l/m 12,9 km/h (3 Bft) O 90 1 min 0,000 mm 4,7 UV-I 798 W/m 1,7 C 18,1 C 19,3 km/h (3 Bft) 100,00 %
21.04.2019 12:38 20,0 C 28,9 C 15,0 C 13,3 C 12,8 C 29 % 32 cb 19 cb 21 cb 1021,3 hPa 0,0 l/m 12,9 km/h (3 Bft) O-NO 67 1 min 0,000 mm 4,7 UV-I 803 W/m 1,4 C 17,8 C 17,7 km/h (3 Bft) 95,65 %
21.04.2019 12:37 19,8 C 28,3 C 15,0 C 13,3 C 12,8 C 28 % 32 cb 19 cb 21 cb 1021,3 hPa 0,0 l/m 12,9 km/h (3 Bft) O-NO 67 1 min 0,000 mm 4,7 UV-I 805 W/m 0,8 C 17,5 C 16,1 km/h (3 Bft) 95,65 %
21.04.2019 12:36 19,8 C 28,3 C 15,0 C 13,3 C 12,8 C 27 % 32 cb 19 cb 21 cb 1021,2 hPa 0,0 l/m 14,5 km/h (3 Bft) O-NO 67 1 min 0,000 mm 4,8 UV-I 809 W/m 0,3 C 17,1 C 19,3 km/h (3 Bft) 100,00 %
21.04.2019 12:35 19,8 C 28,3 C 15,0 C 13,3 C 12,8 C 28 % 32 cb 19 cb 21 cb 1021,3 hPa 0,0 l/m 16,1 km/h (3 Bft) O-NO 67 1 min 0,000 mm 4,8 UV-I 807 W/m 0,8 C 16,7 C 20,9 km/h (4 Bft) 95,65 %
21.04.2019 12:34 19,9 C 28,3 C 15,0 C 13,3 C 12,8 C 28 % 32 cb 19 cb 21 cb 1021,3 hPa 0,0 l/m 17,7 km/h (3 Bft) O 90 1 min 0,000 mm 4,8 UV-I 807 W/m 0,9 C 16,5 C 22,5 km/h (4 Bft) 95,65 %
21.04.2019 12:33 19,8 C 28,3 C 15,0 C 13,3 C 12,8 C 27 % 32 cb 19 cb 21 cb 1021,4 hPa 0,0 l/m 12,9 km/h (3 Bft) O-NO 67 1 min 0,000 mm 4,7 UV-I 805 W/m 0,3 C 17,5 C 16,1 km/h (3 Bft) 95,65 %
21.04.2019 12:32 19,9 C 28,9 C 15,0 C 13,3 C 12,8 C 27 % 32 cb 19 cb 21 cb 1021,3 hPa 0,0 l/m 17,7 km/h (3 Bft) NO 45 1 min 0,000 mm 4,7 UV-I 803 W/m 0,4 C 16,5 C 27,4 km/h (4 Bft) 95,65 %
21.04.2019 12:31 20,0 C 29,4 C 15,0 C 13,3 C 12,8 C 30 % 33 cb 19 cb 21 cb 1021,4 hPa 0,0 l/m 20,9 km/h (4 Bft) O 90 1 min 0,000 mm 4,7 UV-I 803 W/m 1,9 C 16,0 C 27,4 km/h (4 Bft) 95,65 %
21.04.2019 12:30 19,9 C 28,9 C 15,0 C 13,3 C 12,8 C 30 % 32 cb 19 cb 21 cb 1021,3 hPa 0,0 l/m 14,5 km/h (3 Bft) O-NO 67 1 min 0,000 mm 4,7 UV-I 800 W/m 1,8 C 17,3 C 19,3 km/h (3 Bft) 95,65 %
21.04.2019 12:29 19,9 C 28,9 C 14,4 C 13,3 C 12,8 C 29 % 32 cb 19 cb 21 cb 1021,3 hPa 0,0 l/m 16,1 km/h (3 Bft) O-NO 67 1 min 0,000 mm 4,7 UV-I 798 W/m 1,3 C 16,9 C 19,3 km/h (3 Bft) 95,65 %
21.04.2019 12:28 20,0 C 30,0 C 14,4 C 13,3 C 12,8 C 30 % 33 cb 19 cb 21 cb 1021,5 hPa 0,0 l/m 16,1 km/h (3 Bft) NO 45 1 min 0,000 mm 4,7 UV-I 798 W/m 1,9 C 17,0 C 20,9 km/h (4 Bft) 95,65 %
21.04.2019 12:27 20,0 C 29,4 C 14,4 C 12,8 C 12,8 C 29 % 33 cb 19 cb 21 cb 1021,5 hPa 0,0 l/m 14,5 km/h (3 Bft) O-NO 67 1 min 0,000 mm 4,7 UV-I 800 W/m 1,4 C 17,4 C 20,9 km/h (4 Bft) 100,00 %
21.04.2019 12:26 20,0 C 28,9 C 14,4 C 12,8 C 12,8 C 29 % 32 cb 19 cb 21 cb 1021,5 hPa 0,0 l/m 12,9 km/h (3 Bft) O-NO 67 1 min 0,000 mm 4,7 UV-I 798 W/m 1,4 C 17,8 C 17,7 km/h (3 Bft) 95,65 %
21.04.2019 12:25 20,1 C 29,4 C 14,4 C 12,8 C 12,8 C 30 % 33 cb 19 cb 21 cb 1021,5 hPa 0,0 l/m 16,1 km/h (3 Bft) O-NO 67 1 min 0,000 mm 4,7 UV-I 798 W/m 2,0 C 17,1 C 19,3 km/h (3 Bft) 95,65 %
21.04.2019 12:24 20,2 C 30,6 C 14,4 C 12,8 C 12,8 C 29 % 34 cb 19 cb 21 cb 1021,5 hPa 0,0 l/m 17,7 km/h (3 Bft) O-NO 67 1 min 0,000 mm 4,7 UV-I 796 W/m 1,6 C 16,9 C 25,7 km/h (4 Bft) 100,00 %
21.04.2019 12:23 20,3 C 30,6 C 14,4 C 12,8 C 12,8 C 31 % 34 cb 19 cb 21 cb 1021,5 hPa 0,0 l/m 14,5 km/h (3 Bft) O-NO 67 1 min 0,000 mm 4,6 UV-I 795 W/m 2,6 C 17,7 C 22,5 km/h (4 Bft) 95,65 %
21.04.2019 12:22 20,2 C 30,6 C 14,4 C 12,8 C 12,8 C 30 % 34 cb 19 cb 21 cb 1021,6 hPa 0,0 l/m 11,3 km/h (2 Bft) O-NO 67 1 min 0,000 mm 4,6 UV-I 798 W/m 2,1 C 18,5 C 16,1 km/h (3 Bft) 95,65 %
21.04.2019 12:21 20,1 C 30,6 C 14,4 C 12,8 C 12,8 C 30 % 34 cb 19 cb 21 cb 1021,6 hPa 0,0 l/m 12,9 km/h (3 Bft) O-NO 67 1 min 0,000 mm 4,7 UV-I 786 W/m 2,0 C 17,9 C 16,1 km/h (3 Bft) 100,00 %
21.04.2019 12:20 19,9 C 30,0 C 14,4 C 12,8 C 12,8 C 32 % 33 cb 19 cb 21 cb 1021,6 hPa 0,0 l/m 11,3 km/h (2 Bft) O 90 1 min 0,000 mm 4,7 UV-I 798 W/m 2,7 C 18,1 C 16,1 km/h (3 Bft) 91,30 %
21.04.2019 12:19 19,7 C 28,9 C 14,4 C 12,8 C 12,8 C 30 % 32 cb 19 cb 21 cb 1021,6 hPa 0,0 l/m 9,7 km/h (2 Bft) O-NO 67 1 min 0,000 mm 4,6 UV-I 793 W/m 1,6 C 18,4 C 14,5 km/h (3 Bft) 95,65 %
21.04.2019 12:18 19,6 C 28,9 C 14,4 C 12,8 C 12,8 C 30 % 32 cb 19 cb 21 cb 1021,6 hPa 0,0 l/m 6,4 km/h (2 Bft) NO 45 1 min 0,000 mm 4,7 UV-I 793 W/m 1,6 C 19,6 C 12,9 km/h (3 Bft) 95,65 %
21.04.2019 12:17 19,6 C 28,3 C 14,4 C 12,8 C 12,8 C 32 % 32 cb 19 cb 21 cb 1021,6 hPa 0,0 l/m 11,3 km/h (2 Bft) O 90 1 min 0,000 mm 4,7 UV-I 795 W/m 2,5 C 17,8 C 14,5 km/h (3 Bft) 95,65 %
21.04.2019 12:16 19,5 C 28,3 C 14,4 C 12,8 C 12,8 C 32 % 32 cb 19 cb 21 cb 1021,6 hPa 0,0 l/m 12,9 km/h (3 Bft) O-NO 67 1 min 0,000 mm 4,6 UV-I 795 W/m 2,4 C 17,2 C 17,7 km/h (3 Bft) 91,30 %
21.04.2019 12:15 19,6 C 28,3 C 14,4 C 12,8 C 12,8 C 31 % 32 cb 19 cb 21 cb 1021,6 hPa 0,0 l/m 14,5 km/h (3 Bft) O-NO 67 1 min 0,000 mm 4,6 UV-I 793 W/m 2,0 C 16,9 C 17,7 km/h (3 Bft) 95,65 %
21.04.2019 12:14 19,6 C 28,3 C 14,4 C 12,8 C 12,8 C 31 % 32 cb 19 cb 21 cb 1021,7 hPa 0,0 l/m 12,9 km/h (3 Bft) O 90 1 min 0,000 mm 4,6 UV-I 789 W/m 2,0 C 17,3 C 20,9 km/h (4 Bft) 100,00 %
21.04.2019 12:13 19,6 C 28,3 C 14,4 C 12,8 C 12,8 C 31 % 32 cb 19 cb 21 cb 1021,7 hPa 0,0 l/m 8,0 km/h (2 Bft) SO 135 1 min 0,000 mm 4,6 UV-I 679 W/m 2,0 C 18,9 C 12,9 km/h (3 Bft) 91,30 %
21.04.2019 12:12 19,4 C 28,3 C 14,4 C 12,8 C 12,8 C 32 % 32 cb 19 cb 21 cb 1021,7 hPa 0,0 l/m 6,4 km/h (2 Bft) O-NO 67 1 min 0,000 mm 4,6 UV-I 679 W/m 2,3 C 19,4 C 12,9 km/h (3 Bft) 95,65 %
21.04.2019 12:11 19,2 C 27,8 C 14,4 C 12,8 C 12,8 C 32 % 32 cb 19 cb 21 cb 1021,7 hPa 0,0 l/m 11,3 km/h (2 Bft) O 90 1 min 0,000 mm 4,6 UV-I 786 W/m 2,1 C 17,3 C 17,7 km/h (3 Bft) 100,00 %
21.04.2019 12:10 19,2 C 27,8 C 14,4 C 12,8 C 12,8 C 32 % 32 cb 19 cb 21 cb 1021,7 hPa 0,0 l/m 12,9 km/h (3 Bft) O 90 1 min 0,000 mm 4,5 UV-I 786 W/m 2,1 C 16,8 C 20,9 km/h (4 Bft) 91,30 %
21.04.2019 12:09 19,2 C 28,3 C 14,4 C 12,8 C 12,8 C 32 % 32 cb 19 cb 21 cb 1021,7 hPa 0,0 l/m 11,3 km/h (2 Bft) O-NO 67 1 min 0,000 mm 4,5 UV-I 782 W/m 2,1 C 17,3 C 16,1 km/h (3 Bft) 95,65 %
21.04.2019 12:08 19,2 C 28,9 C 14,4 C 12,8 C 12,8 C 32 % 33 cb 19 cb 21 cb 1021,8 hPa 0,0 l/m 12,9 km/h (3 Bft) O-NO 67 1 min 0,000 mm 4,5 UV-I 780 W/m 2,1 C 16,8 C 20,9 km/h (4 Bft) 100,00 %
21.04.2019 12:07 19,1 C 28,3 C 14,4 C 12,8 C 12,8 C 34 % 32 cb 19 cb 21 cb 1021,8 hPa 0,0 l/m 12,9 km/h (3 Bft) O-NO 67 1 min 0,000 mm 4,5 UV-I 782 W/m 2,9 C 16,7 C 17,7 km/h (3 Bft) 91,30 %
21.04.2019 12:06 18,9 C 28,3 C 14,4 C 12,8 C 12,8 C 33 % 32 cb 19 cb 21 cb 1021,8 hPa 0,0 l/m 11,3 km/h (2 Bft) O 90 1 min 0,000 mm 4,5 UV-I 780 W/m 2,3 C 17,0 C 16,1 km/h (3 Bft) 91,30 %
21.04.2019 12:05 18,9 C 27,8 C 14,4 C 12,8 C 12,8 C 33 % 32 cb 19 cb 21 cb 1021,8 hPa 0,0 l/m 9,7 km/h (2 Bft) O-SO 112 1 min 0,000 mm 4,5 UV-I 782 W/m 2,3 C 17,5 C 12,9 km/h (3 Bft) 100,00 %
21.04.2019 12:04 18,9 C 28,3 C 14,4 C 12,8 C 12,8 C 33 % 32 cb 19 cb 21 cb 1021,8 hPa 0,0 l/m 16,1 km/h (3 Bft) O-NO 67 1 min 0,000 mm 4,5 UV-I 784 W/m 2,3 C 15,6 C 20,9 km/h (4 Bft) 91,30 %
21.04.2019 12:03 18,9 C 28,3 C 14,4 C 12,8 C 12,8 C 35 % 32 cb 19 cb 21 cb 1021,8 hPa 0,0 l/m 17,7 km/h (3 Bft) O-NO 67 1 min 0,000 mm 4,5 UV-I 779 W/m 3,1 C 15,3 C 25,7 km/h (4 Bft) 95,65 %
21.04.2019 12:02 18,8 C 27,8 C 13,9 C 12,8 C 12,8 C 33 % 32 cb 18 cb 21 cb 1021,8 hPa 0,0 l/m 16,1 km/h (3 Bft) O-NO 67 1 min 0,000 mm 4,5 UV-I 779 W/m 2,2 C 15,5 C 20,9 km/h (4 Bft) 95,65 %
21.04.2019 12:01 18,8 C 28,9 C 13,9 C 12,8 C 12,8 C 34 % 33 cb 18 cb 21 cb 1021,8 hPa 0,0 l/m 16,1 km/h (3 Bft) O-NO 67 1 min 0,000 mm 4,5 UV-I 775 W/m 2,6 C 15,5 C 22,5 km/h (4 Bft) 95,65 %
21.04.2019 12:00 18,8 C 28,9 C 13,9 C 12,8 C 12,8 C 34 % 33 cb 18 cb 21 cb 1021,9 hPa 0,0 l/m 12,9 km/h (3 Bft) O-NO 67 1 min 0,508 mm 4,5 UV-I 775 W/m 2,6 C 16,4 C 16,1 km/h (3 Bft) 91,30 %
21.04.2019 11:59 18,7 C 28,3 C 13,9 C 12,8 C 12,8 C 33 % 32 cb 18 cb 21 cb 1021,9 hPa 0,0 l/m 6,4 km/h (2 Bft) O 90 1 min 0,000 mm 4,4 UV-I 775 W/m 2,1 C 18,7 C 9,7 km/h (2 Bft) 95,65 %
21.04.2019 11:58 18,7 C 27,8 C 13,9 C 12,8 C 12,8 C 34 % 32 cb 18 cb 21 cb 1022,0 hPa 0,0 l/m 8,0 km/h (2 Bft) O-NO 67 1 min 0,000 mm 4,4 UV-I 770 W/m 2,5 C 18,0 C 11,3 km/h (2 Bft) 95,65 %
21.04.2019 11:57 18,6 C 27,2 C 13,9 C 12,8 C 12,8 C 33 % 32 cb 18 cb 21 cb 1022,0 hPa 0,0 l/m 12,9 km/h (3 Bft) O-SO 112 1 min 0,000 mm 4,4 UV-I 768 W/m 2,0 C 16,1 C 25,7 km/h (4 Bft) 91,30 %
21.04.2019 11:56 18,7 C 27,8 C 13,9 C 12,8 C 12,8 C 34 % 32 cb 18 cb 21 cb 1022,0 hPa 0,0 l/m 20,9 km/h (4 Bft) O 90 1 min 0,000 mm 4,4 UV-I 768 W/m 2,5 C 14,3 C 25,7 km/h (4 Bft) 100,00 %
21.04.2019 11:55 18,7 C 28,9 C 13,9 C 12,8 C 12,8 C 34 % 33 cb 18 cb 21 cb 1021,9 hPa 0,0 l/m 17,7 km/h (3 Bft) O-NO 67 1 min 0,000 mm 4,4 UV-I 766 W/m 2,5 C 15,0 C 20,9 km/h (4 Bft) 91,30 %
21.04.2019 11:54 18,7 C 28,3 C 13,9 C 12,8 C 12,8 C 33 % 32 cb 18 cb 21 cb 1022,0 hPa 0,0 l/m 16,1 km/h (3 Bft) O-NO 67 1 min 0,000 mm 4,4 UV-I 766 W/m 2,1 C 15,4 C 20,9 km/h (4 Bft) 95,65 %
21.04.2019 11:53 18,7 C 28,9 C 13,9 C 12,8 C 12,8 C 34 % 33 cb 18 cb 21 cb 1022,0 hPa 0,0 l/m 16,1 km/h (3 Bft) NO 45 1 min 0,000 mm 4,4 UV-I 766 W/m 2,5 C 15,4 C 20,9 km/h (4 Bft) 82,61 %
21.04.2019 11:52 18,7 C 28,9 C 13,9 C 12,8 C 12,8 C 33 % 33 cb 18 cb 21 cb 1022,1 hPa 0,0 l/m 12,9 km/h (3 Bft) O-NO 67 1 min 0,000 mm 4,4 UV-I 765 W/m 2,1 C 16,3 C 17,7 km/h (3 Bft) 95,65 %
21.04.2019 11:51 18,7 C 28,3 C 13,9 C 12,8 C 12,8 C 34 % 32 cb 18 cb 21 cb 1022,0 hPa 0,0 l/m 11,3 km/h (2 Bft) NO 45 1 min 0,000 mm 4,4 UV-I 766 W/m 2,5 C 16,8 C 16,1 km/h (3 Bft) 91,30 %
21.04.2019 11:50 18,7 C 27,2 C 13,9 C 12,8 C 12,8 C 33 % 32 cb 18 cb 21 cb 1022,1 hPa 0,0 l/m 12,9 km/h (3 Bft) NO 45 1 min 0,000 mm 4,3 UV-I 765 W/m 2,1 C 16,3 C 20,9 km/h (4 Bft) 95,65 %
21.04.2019 11:49 18,7 C 28,3 C 13,9 C 12,8 C 12,8 C 34 % 32 cb 18 cb 21 cb 1022,1 hPa 0,0 l/m 17,7 km/h (3 Bft) O 90 1 min 0,000 mm 4,3 UV-I 763 W/m 2,5 C 15,0 C 24,1 km/h (4 Bft) 91,30 %
21.04.2019 11:48 18,6 C 27,8 C 13,9 C 12,8 C 12,8 C 34 % 32 cb 18 cb 21 cb 1022,0 hPa 0,0 l/m 11,3 km/h (2 Bft) NO 45 1 min 0,000 mm 4,3 UV-I 763 W/m 2,4 C 16,6 C 17,7 km/h (3 Bft) 95,65 %
21.04.2019 11:47 18,4 C 27,2 C 13,9 C 12,8 C 12,8 C 33 % 32 cb 18 cb 21 cb 1022,1 hPa 0,0 l/m 14,5 km/h (3 Bft) O 90 1 min 0,000 mm 4,3 UV-I 761 W/m 1,8 C 15,4 C 19,3 km/h (3 Bft) 91,30 %
21.04.2019 11:46 18,4 C 27,2 C 13,9 C 12,8 C 12,8 C 34 % 32 cb 18 cb 21 cb 1022,1 hPa 0,0 l/m 16,1 km/h (3 Bft) O-NO 67 1 min 0,000 mm 4,3 UV-I 759 W/m 2,3 C 15,0 C 20,9 km/h (4 Bft) 95,65 %
21.04.2019 11:45 18,4 C 27,8 C 13,9 C 12,8 C 12,8 C 33 % 32 cb 18 cb 21 cb 1022,1 hPa 0,0 l/m 16,1 km/h (3 Bft) O-NO 67 1 min 0,000 mm 4,3 UV-I 758 W/m 1,8 C 15,0 C 20,9 km/h (4 Bft) 91,30 %
21.04.2019 11:44 18,3 C 28,3 C 13,9 C 12,8 C 12,8 C 33 % 32 cb 18 cb 21 cb 1022,1 hPa 0,0 l/m 16,1 km/h (3 Bft) O-NO 67 1 min 0,000 mm 4,3 UV-I 758 W/m 1,8 C 14,9 C 19,3 km/h (3 Bft) 95,65 %
21.04.2019 11:43 18,3 C 27,8 C 13,9 C 12,8 C 12,8 C 34 % 32 cb 18 cb 21 cb 1022,1 hPa 0,0 l/m 14,5 km/h (3 Bft) NO 45 1 min 0,000 mm 4,3 UV-I 756 W/m 2,2 C 15,3 C 20,9 km/h (4 Bft) 91,30 %
21.04.2019 11:42 18,2 C 27,8 C 13,9 C 12,8 C 12,8 C 35 % 32 cb 18 cb 21 cb 1022,2 hPa 0,0 l/m 16,1 km/h (3 Bft) O 90 1 min 0,000 mm 4,2 UV-I 752 W/m 2,5 C 14,8 C 22,5 km/h (4 Bft) 91,30 %
21.04.2019 11:41 18,3 C 28,3 C 13,9 C 12,8 C 12,8 C 35 % 32 cb 18 cb 21 cb 1022,2 hPa 0,0 l/m 12,9 km/h (3 Bft) O 90 1 min 0,000 mm 4,2 UV-I 752 W/m 2,6 C 15,8 C 19,3 km/h (3 Bft) 100,00 %
21.04.2019 11:40 18,3 C 28,9 C 13,9 C 12,8 C 12,8 C 35 % 33 cb 18 cb 21 cb 1022,2 hPa 0,0 l/m 17,7 km/h (3 Bft) O-NO 67 1 min 0,000 mm 4,2 UV-I 752 W/m 2,6 C 14,5 C 20,9 km/h (4 Bft) 91,30 %
21.04.2019 11:39 18,3 C 28,9 C 13,9 C 12,8 C 12,8 C 35 % 33 cb 18 cb 21 cb 1022,2 hPa 0,0 l/m 16,1 km/h (3 Bft) NO 45 1 min 0,000 mm 4,2 UV-I 754 W/m 2,6 C 14,9 C 20,9 km/h (4 Bft) 95,65 %
21.04.2019 11:38 18,1 C 28,3 C 13,9 C 12,8 C 12,8 C 35 % 32 cb 18 cb 21 cb 1022,2 hPa 0,0 l/m 14,5 km/h (3 Bft) O-NO 67 1 min 0,000 mm 4,2 UV-I 752 W/m 2,4 C 15,1 C 20,9 km/h (4 Bft) 95,65 %
21.04.2019 11:37 18,0 C 28,3 C 13,9 C 12,8 C 12,8 C 35 % 32 cb 18 cb 21 cb 1022,2 hPa 0,0 l/m 16,1 km/h (3 Bft) O-NO 67 1 min 0,000 mm 4,2 UV-I 751 W/m 2,3 C 14,5 C 17,7 km/h (3 Bft) 95,65 %
21.04.2019 11:36 17,9 C 28,3 C 13,9 C 12,8 C 12,8 C 35 % 32 cb 18 cb 21 cb 1022,2 hPa 0,0 l/m 11,3 km/h (2 Bft) O 90 1 min 0,000 mm 4,1 UV-I 747 W/m 2,2 C 15,8 C 17,7 km/h (3 Bft) 91,30 %
21.04.2019 11:35 17,9 C 28,3 C 13,9 C 12,8 C 12,8 C 35 % 32 cb 18 cb 21 cb 1022,2 hPa 0,0 l/m 8,0 km/h (2 Bft) O-NO 67 1 min 0,000 mm 4,1 UV-I 745 W/m 2,2 C 17,1 C 12,9 km/h (3 Bft) 100,00 %
21.04.2019 11:34 18,1 C 27,8 C 13,9 C 12,8 C 12,8 C 35 % 32 cb 18 cb 21 cb 1022,3 hPa 0,0 l/m 11,3 km/h (2 Bft) SO 135 1 min 0,000 mm 4,1 UV-I 745 W/m 2,4 C 16,1 C 17,7 km/h (3 Bft) 91,30 %
21.04.2019 11:33 18,2 C 28,9 C 13,9 C 12,8 C 12,8 C 34 % 33 cb 18 cb 21 cb 1022,3 hPa 0,0 l/m 14,5 km/h (3 Bft) O-NO 67 1 min 0,000 mm 4,1 UV-I 744 W/m 2,1 C 15,2 C 19,3 km/h (3 Bft) 95,65 %
21.04.2019 11:32 18,3 C 30,0 C 13,9 C 12,8 C 12,8 C 36 % 34 cb 18 cb 21 cb 1022,2 hPa 0,0 l/m 14,5 km/h (3 Bft) O-NO 67 1 min 0,000 mm 4,1 UV-I 740 W/m 3,0 C 15,3 C 19,3 km/h (3 Bft) 100,00 %
21.04.2019 11:31 18,2 C 30,0 C 13,9 C 12,8 C 12,8 C 35 % 34 cb 18 cb 21 cb 1022,3 hPa 0,0 l/m 14,5 km/h (3 Bft) NO 45 1 min 0,000 mm 4,1 UV-I 742 W/m 2,5 C 15,2 C 19,3 km/h (3 Bft) 95,65 %
21.04.2019 11:30 18,2 C 29,4 C 13,9 C 12,8 C 12,8 C 35 % 33 cb 18 cb 21 cb 1022,2 hPa 0,0 l/m 11,3 km/h (2 Bft) NO 45 1 min 0,000 mm 4,1 UV-I 740 W/m 2,5 C 16,2 C 14,5 km/h (3 Bft) 95,65 %
21.04.2019 11:29 18,2 C 30,6 C 13,9 C 12,8 C 12,8 C 36 % 34 cb 18 cb 21 cb 1022,4 hPa 0,0 l/m 8,0 km/h (2 Bft) O-NO 67 1 min 0,000 mm 4,1 UV-I 738 W/m 2,9 C 17,5 C 16,1 km/h (3 Bft) 100,00 %
21.04.2019 11:28 18,1 C 30,6 C 13,9 C 12,8 C 12,8 C 35 % 34 cb 18 cb 21 cb 1022,3 hPa 0,0 l/m 11,3 km/h (2 Bft) O-NO 67 1 min 0,000 mm 4,1 UV-I 737 W/m 2,4 C 16,1 C 17,7 km/h (3 Bft) 95,65 %
21.04.2019 11:27 18,0 C 31,1 C 13,3 C 12,8 C 12,8 C 34 % 35 cb 18 cb 21 cb 1022,3 hPa 0,0 l/m 8,0 km/h (2 Bft) O-NO 67 1 min 0,000 mm 4,0 UV-I 735 W/m 1,9 C 17,3 C 14,5 km/h (3 Bft) 95,65 %
21.04.2019 11:26 18,0 C 30,6 C 13,3 C 12,8 C 12,8 C 34 % 34 cb 18 cb 21 cb 1022,3 hPa 0,0 l/m 9,7 km/h (2 Bft) O-NO 67 1 min 0,000 mm 4,0 UV-I 735 W/m 1,9 C 16,5 C 14,5 km/h (3 Bft) 95,65 %
21.04.2019 11:25 18,1 C 30,6 C 13,3 C 12,8 C 12,8 C 34 % 34 cb 18 cb 21 cb 1022,3 hPa 0,0 l/m 11,3 km/h (2 Bft) NO 45 1 min 0,000 mm 4,0 UV-I 731 W/m 2,0 C 16,1 C 14,5 km/h (3 Bft) 100,00 %
21.04.2019 11:24 18,0 C 29,4 C 13,3 C 12,8 C 12,8 C 35 % 33 cb 18 cb 21 cb 1022,3 hPa 0,0 l/m 8,0 km/h (2 Bft) O 90 1 min 0,000 mm 4,0 UV-I 731 W/m 2,3 C 17,3 C 16,1 km/h (3 Bft) 95,65 %
21.04.2019 11:23 17,9 C 29,4 C 13,3 C 12,8 C 12,8 C 34 % 33 cb 18 cb 21 cb 1022,3 hPa 0,0 l/m 4,8 km/h (1 Bft) O-SO 112 1 min 0,000 mm 4,0 UV-I 729 W/m 1,8 C 17,9 C 9,7 km/h (2 Bft) 95,65 %
21.04.2019 11:22 18,0 C 29,4 C 13,3 C 12,8 C 12,8 C 34 % 33 cb 18 cb 21 cb 1022,4 hPa 0,0 l/m 6,4 km/h (2 Bft) O-NO 67 1 min 0,000 mm 4,0 UV-I 728 W/m 1,9 C 18,0 C 11,3 km/h (2 Bft) 100,00 %
21.04.2019 11:21 18,1 C 30,6 C 13,3 C 12,8 C 12,8 C 33 % 34 cb 18 cb 21 cb 1022,4 hPa 0,0 l/m 9,7 km/h (2 Bft) SO 135 1 min 0,000 mm 4,0 UV-I 728 W/m 1,6 C 16,7 C 14,5 km/h (3 Bft) 95,65 %
21.04.2019 11:20 18,2 C 30,6 C 13,3 C 12,8 C 12,8 C 34 % 34 cb 18 cb 21 cb 1022,4 hPa 0,0 l/m 9,7 km/h (2 Bft) O-NO 67 1 min 0,000 mm 3,9 UV-I 724 W/m 2,1 C 16,8 C 12,9 km/h (3 Bft) 95,65 %
21.04.2019 11:19 18,2 C 30,0 C 13,3 C 12,8 C 12,8 C 35 % 34 cb 18 cb 21 cb 1022,4 hPa 0,0 l/m 11,3 km/h (2 Bft) O-NO 67 1 min 0,000 mm 3,9 UV-I 726 W/m 2,5 C 16,2 C 14,5 km/h (3 Bft) 100,00 %
21.04.2019 11:18 18,1 C 30,0 C 13,3 C 12,8 C 12,8 C 34 % 34 cb 18 cb 21 cb 1022,4 hPa 0,0 l/m 6,4 km/h (2 Bft) O-NO 67 1 min 0,000 mm 3,9 UV-I 722 W/m 2,0 C 18,1 C 12,9 km/h (3 Bft) 91,30 %
21.04.2019 11:17 17,9 C 30,0 C 13,3 C 12,8 C 12,8 C 35 % 34 cb 18 cb 21 cb 1022,4 hPa 0,0 l/m 8,0 km/h (2 Bft) O-NO 67 1 min 0,000 mm 3,9 UV-I 719 W/m 2,2 C 17,1 C 16,1 km/h (3 Bft) 95,65 %
21.04.2019 11:16 17,8 C 28,9 C 13,3 C 12,8 C 12,8 C 35 % 33 cb 18 cb 21 cb 1022,4 hPa 0,0 l/m 8,0 km/h (2 Bft) O-NO 67 1 min 0,000 mm 3,9 UV-I 719 W/m 2,1 C 17,0 C 12,9 km/h (3 Bft) 100,00 %
21.04.2019 11:15 17,7 C 28,9 C 13,3 C 12,8 C 12,8 C 35 % 33 cb 18 cb 21 cb 1022,4 hPa 0,0 l/m 11,3 km/h (2 Bft) O-NO 67 1 min 0,000 mm 3,8 UV-I 717 W/m 2,1 C 15,6 C 16,1 km/h (3 Bft) 95,65 %
21.04.2019 11:14 17,6 C 28,9 C 13,3 C 12,8 C 12,8 C 36 % 33 cb 18 cb 21 cb 1022,4 hPa 0,0 l/m 8,0 km/h (2 Bft) SO 135 1 min 0,000 mm 3,8 UV-I 717 W/m 2,4 C 16,8 C 12,9 km/h (3 Bft) 91,30 %
21.04.2019 11:13 17,3 C 28,3 C 13,3 C 12,8 C 12,8 C 36 % 33 cb 18 cb 21 cb 1022,4 hPa 0,0 l/m 9,7 km/h (2 Bft) O 90 1 min 0,000 mm 3,8 UV-I 715 W/m 2,1 C 15,8 C 14,5 km/h (3 Bft) 100,00 %
21.04.2019 11:12 17,3 C 28,3 C 13,3 C 12,8 C 12,8 C 35 % 33 cb 18 cb 21 cb 1022,4 hPa 0,0 l/m 12,9 km/h (3 Bft) O-SO 112 1 min 0,000 mm 3,8 UV-I 712 W/m 1,7 C 14,6 C 17,7 km/h (3 Bft) 95,65 %
21.04.2019 11:11 17,3 C 28,9 C 13,3 C 12,8 C 12,8 C 35 % 33 cb 18 cb 21 cb 1022,4 hPa 0,0 l/m 11,3 km/h (2 Bft) O 90 1 min 0,000 mm 3,8 UV-I 708 W/m 1,7 C 15,2 C 16,1 km/h (3 Bft) 91,30 %
21.04.2019 11:10 17,2 C 28,3 C 13,3 C 12,8 C 12,8 C 36 % 33 cb 18 cb 21 cb 1022,4 hPa 0,0 l/m 12,9 km/h (3 Bft) O 90 1 min 0,000 mm 3,7 UV-I 710 W/m 2,0 C 14,5 C 17,7 km/h (3 Bft) 100,00 %
21.04.2019 11:09 17,1 C 27,8 C 13,3 C 12,8 C 12,8 C 37 % 32 cb 18 cb 21 cb 1022,5 hPa 0,0 l/m 9,7 km/h (2 Bft) O-NO 67 1 min 0,000 mm 3,7 UV-I 705 W/m 2,3 C 15,6 C 14,5 km/h (3 Bft) 91,30 %
21.04.2019 11:08 16,9 C 27,2 C 13,3 C 12,8 C 12,8 C 36 % 32 cb 18 cb 21 cb 1022,5 hPa 0,0 l/m 11,3 km/h (2 Bft) O-NO 67 1 min 0,000 mm 3,7 UV-I 705 W/m 1,7 C 14,7 C 17,7 km/h (3 Bft) 95,65 %
21.04.2019 11:07 16,9 C 26,7 C 13,3 C 12,8 C 12,8 C 36 % 32 cb 18 cb 21 cb 1022,5 hPa 0,0 l/m 11,3 km/h (2 Bft) O-NO 67 1 min 0,000 mm 3,7 UV-I 705 W/m 1,7 C 14,7 C 16,1 km/h (3 Bft) 100,00 %
21.04.2019 11:06 16,9 C 26,1 C 13,3 C 12,8 C 12,8 C 36 % 31 cb 18 cb 21 cb 1022,5 hPa 0,0 l/m 8,0 km/h (2 Bft) O 90 1 min 0,000 mm 3,6 UV-I 703 W/m 1,7 C 16,1 C 12,9 km/h (3 Bft) 95,65 %
21.04.2019 11:05 16,8 C 26,1 C 13,3 C 12,8 C 12,8 C 36 % 31 cb 18 cb 21 cb 1022,5 hPa 0,0 l/m 6,4 km/h (2 Bft) O 90 1 min 0,000 mm 3,6 UV-I 689 W/m 1,7 C 16,8 C 12,9 km/h (3 Bft) 91,30 %
21.04.2019 11:04 16,8 C 25,6 C 13,3 C 12,8 C 12,8 C 36 % 31 cb 18 cb 21 cb 1022,4 hPa 0,0 l/m 6,4 km/h (2 Bft) O-NO 67 1 min 0,000 mm 3,6 UV-I 698 W/m 1,7 C 16,8 C 12,9 km/h (3 Bft) 100,00 %
21.04.2019 11:03 16,8 C 26,7 C 13,3 C 12,8 C 12,8 C 35 % 32 cb 18 cb 21 cb 1022,5 hPa 0,0 l/m 12,9 km/h (3 Bft) O 90 1 min 0,000 mm 3,6 UV-I 698 W/m 1,3 C 14,0 C 20,9 km/h (4 Bft) 95,65 %
21.04.2019 11:02 16,8 C 26,7 C 13,3 C 12,8 C 12,8 C 36 % 32 cb 18 cb 21 cb 1022,5 hPa 0,0 l/m 19,3 km/h (3 Bft) O 90 1 min 0,000 mm 3,6 UV-I 696 W/m 1,7 C 12,2 C 24,1 km/h (4 Bft) 91,30 %
21.04.2019 11:01 16,8 C 26,7 C 13,3 C 12,8 C 12,8 C 36 % 32 cb 18 cb 21 cb 1022,5 hPa 0,0 l/m 19,3 km/h (3 Bft) O 90 1 min 0,000 mm 3,5 UV-I 694 W/m 1,7 C 12,2 C 22,5 km/h (4 Bft) 95,65 %
21.04.2019 11:00 16,8 C 26,1 C 13,3 C 12,8 C 12,8 C 37 % 31 cb 18 cb 21 cb 1022,5 hPa 0,0 l/m 16,1 km/h (3 Bft) O-NO 67 1 min 0,406 mm 3,5 UV-I 693 W/m 2,0 C 13,1 C 20,9 km/h (4 Bft) 95,65 %
21.04.2019 10:59 16,8 C 26,7 C 13,3 C 12,8 C 12,8 C 36 % 32 cb 18 cb 21 cb 1022,5 hPa 0,0 l/m 14,5 km/h (3 Bft) O-NO 67 1 min 0,000 mm 3,0 UV-I 689 W/m 1,7 C 13,5 C 19,3 km/h (3 Bft) 95,65 %
21.04.2019 10:58 16,7 C 26,7 C 13,3 C 12,8 C 12,8 C 36 % 32 cb 18 cb 21 cb 1022,5 hPa 0,0 l/m 14,5 km/h (3 Bft) O-NO 67 1 min 0,000 mm 3,4 UV-I 687 W/m 1,6 C 13,4 C 22,5 km/h (4 Bft) 100,00 %
21.04.2019 10:57 16,6 C 26,7 C 13,3 C 12,8 C 12,8 C 36 % 32 cb 18 cb 21 cb 1022,5 hPa 0,0 l/m 14,5 km/h (3 Bft) O-NO 67 1 min 0,000 mm 3,4 UV-I 687 W/m 1,5 C 13,3 C 19,3 km/h (3 Bft) 86,96 %
21.04.2019 10:56 16,6 C 25,6 C 13,3 C 12,8 C 12,8 C 36 % 31 cb 18 cb 21 cb 1022,6 hPa 0,0 l/m 14,5 km/h (3 Bft) O-NO 67 1 min 0,000 mm 3,4 UV-I 686 W/m 1,5 C 13,3 C 19,3 km/h (3 Bft) 95,65 %
21.04.2019 10:55 16,7 C 26,7 C 13,3 C 12,8 C 12,8 C 36 % 32 cb 18 cb 21 cb 1022,6 hPa 0,0 l/m 19,3 km/h (3 Bft) O 90 1 min 0,000 mm 3,4 UV-I 684 W/m 1,6 C 12,1 C 20,9 km/h (4 Bft) 100,00 %
21.04.2019 10:54 16,7 C 27,2 C 13,3 C 12,8 C 12,8 C 37 % 32 cb 18 cb 21 cb 1022,6 hPa 0,0 l/m 16,1 km/h (3 Bft) O-NO 67 1 min 0,000 mm 3,4 UV-I 680 W/m 1,9 C 12,9 C 20,9 km/h (4 Bft) 95,65 %
21.04.2019 10:53 16,7 C 27,2 C 13,3 C 12,8 C 12,8 C 37 % 32 cb 18 cb 21 cb 1022,6 hPa 0,0 l/m 14,5 km/h (3 Bft) O 90 1 min 0,000 mm 3,3 UV-I 680 W/m 1,9 C 13,4 C 20,9 km/h (4 Bft) 95,65 %
21.04.2019 10:52 16,6 C 27,8 C 13,3 C 12,8 C 12,8 C 36 % 32 cb 18 cb 21 cb 1022,6 hPa 0,0 l/m 14,5 km/h (3 Bft) O-NO 67 1 min 0,000 mm 3,4 UV-I 679 W/m 1,5 C 13,3 C 20,9 km/h (4 Bft) 95,65 %
21.04.2019 10:51 16,6 C 27,8 C 12,8 C 12,8 C 12,8 C 37 % 32 cb 18 cb 21 cb 1022,5 hPa 0,0 l/m 11,3 km/h (2 Bft) O-NO 67 1 min 0,000 mm 3,4 UV-I 677 W/m 1,9 C 14,4 C 17,7 km/h (3 Bft) 95,65 %
21.04.2019 10:50 16,5 C 27,2 C 12,8 C 12,8 C 12,8 C 36 % 32 cb 18 cb 21 cb 1022,6 hPa 0,0 l/m 11,3 km/h (2 Bft) O-SO 112 1 min 0,000 mm 3,3 UV-I 675 W/m 1,4 C 14,3 C 16,1 km/h (3 Bft) 91,30 %
21.04.2019 10:49 16,5 C 27,2 C 12,8 C 12,8 C 12,8 C 38 % 32 cb 18 cb 21 cb 1022,6 hPa 0,0 l/m 8,0 km/h (2 Bft) SO 135 1 min 0,000 mm 3,3 UV-I 675 W/m 2,1 C 15,7 C 16,1 km/h (3 Bft) 100,00 %
21.04.2019 10:48 16,3 C 26,7 C 12,8 C 12,8 C 12,8 C 37 % 32 cb 18 cb 21 cb 1022,7 hPa 0,0 l/m 8,0 km/h (2 Bft) O-NO 67 1 min 0,000 mm 3,3 UV-I 670 W/m 1,6 C 15,5 C 11,3 km/h (2 Bft) 95,65 %
21.04.2019 10:47 16,4 C 26,7 C 12,8 C 12,8 C 12,8 C 36 % 32 cb 18 cb 21 cb 1022,8 hPa 0,0 l/m 9,7 km/h (2 Bft) SO 135 1 min 0,000 mm 3,3 UV-I 670 W/m 1,3 C 14,8 C 17,7 km/h (3 Bft) 95,65 %
21.04.2019 10:46 16,4 C 27,2 C 12,8 C 12,8 C 12,8 C 36 % 32 cb 18 cb 21 cb 1022,7 hPa 0,0 l/m 12,9 km/h (3 Bft) S-SO 157 1 min 0,000 mm 3,2 UV-I 666 W/m 1,3 C 13,6 C 19,3 km/h (3 Bft) 95,65 %
21.04.2019 10:45 16,4 C 26,7 C 12,8 C 12,8 C 12,8 C 37 % 32 cb 18 cb 21 cb 1022,7 hPa 0,0 l/m 11,3 km/h (2 Bft) S-SO 157 1 min 0,000 mm 3,2 UV-I 664 W/m 1,7 C 14,1 C 17,7 km/h (3 Bft) 95,65 %
21.04.2019 10:44 16,3 C 26,7 C 12,8 C 12,8 C 12,8 C 37 % 32 cb 18 cb 21 cb 1022,7 hPa 0,0 l/m 11,3 km/h (2 Bft) O 90 1 min 0,000 mm 3,2 UV-I 663 W/m 1,6 C 14,0 C 17,7 km/h (3 Bft) 91,30 %
21.04.2019 10:43 16,3 C 27,2 C 12,8 C 12,8 C 12,8 C 37 % 32 cb 18 cb 21 cb 1022,7 hPa 0,0 l/m 14,5 km/h (3 Bft) O-SO 112 1 min 0,000 mm 3,2 UV-I 661 W/m 1,6 C 12,9 C 17,7 km/h (3 Bft) 100,00 %
21.04.2019 10:42 16,2 C 26,7 C 12,8 C 12,8 C 12,8 C 38 % 32 cb 18 cb 21 cb 1022,7 hPa 0,0 l/m 11,3 km/h (2 Bft) O-NO 67 1 min 0,000 mm 3,1 UV-I 659 W/m 1,9 C 13,9 C 16,1 km/h (3 Bft) 95,65 %
21.04.2019 10:41 16,1 C 25,6 C 12,8 C 12,8 C 12,8 C 37 % 31 cb 18 cb 21 cb 1022,7 hPa 0,0 l/m 9,7 km/h (2 Bft) O 90 1 min 0,000 mm 3,1 UV-I 657 W/m 1,4 C 14,5 C 16,1 km/h (3 Bft) 95,65 %
21.04.2019 10:40 16,2 C 25,6 C 12,8 C 12,8 C 12,8 C 38 % 31 cb 18 cb 21 cb 1022,8 hPa 0,0 l/m 8,0 km/h (2 Bft) O-NO 67 1 min 0,000 mm 3,1 UV-I 656 W/m 1,9 C 15,4 C 14,5 km/h (3 Bft) 91,30 %
21.04.2019 10:39 16,3 C 26,7 C 12,8 C 12,8 C 12,8 C 37 % 32 cb 18 cb 21 cb 1022,7 hPa 0,0 l/m 12,9 km/h (3 Bft) O-NO 67 1 min 0,000 mm 3,1 UV-I 654 W/m 1,6 C 13,4 C 24,1 km/h (4 Bft) 100,00 %
21.04.2019 10:38 16,3 C 27,2 C 12,8 C 12,8 C 12,8 C 37 % 32 cb 18 cb 21 cb 1022,8 hPa 0,0 l/m 19,3 km/h (3 Bft) O-NO 67 1 min 0,000 mm 3,1 UV-I 652 W/m 1,6 C 11,6 C 24,1 km/h (4 Bft) 91,30 %
21.04.2019 10:37 16,3 C 27,2 C 12,8 C 12,8 C 12,8 C 39 % 32 cb 18 cb 21 cb 1022,7 hPa 0,0 l/m 14,5 km/h (3 Bft) O-NO 67 1 min 0,000 mm 3,1 UV-I 652 W/m 2,3 C 12,9 C 22,5 km/h (4 Bft) 91,30 %
21.04.2019 10:36 16,2 C 27,2 C 12,8 C 12,8 C 12,8 C 38 % 32 cb 18 cb 21 cb 1022,7 hPa 0,0 l/m 16,1 km/h (3 Bft) O 90 1 min 0,000 mm 3,1 UV-I 647 W/m 1,9 C 12,3 C 22,5 km/h (4 Bft) 100,00 %
21.04.2019 10:35 16,1 C 27,2 C 12,8 C 12,8 C 12,8 C 38 % 32 cb 18 cb 21 cb 1022,7 hPa 0,0 l/m 11,3 km/h (2 Bft) O 90 1 min 0,000 mm 3,0 UV-I 647 W/m 1,8 C 13,8 C 14,5 km/h (3 Bft) 95,65 %
21.04.2019 10:34 16,0 C 27,2 C 12,8 C 12,8 C 12,8 C 40 % 32 cb 18 cb 21 cb 1022,8 hPa 0,0 l/m 9,7 km/h (2 Bft) O 90 1 min 0,000 mm 3,0 UV-I 645 W/m 2,4 C 14,4 C 19,3 km/h (3 Bft) 95,65 %
21.04.2019 10:33 15,9 C 26,1 C 12,8 C 12,8 C 12,8 C 39 % 32 cb 18 cb 21 cb 1022,7 hPa 0,0 l/m 6,4 km/h (2 Bft) O 90 1 min 0,000 mm 3,0 UV-I 643 W/m 2,0 C 15,9 C 12,9 km/h (3 Bft) 95,65 %
21.04.2019 10:32 15,9 C 26,1 C 12,8 C 12,8 C 12,8 C 39 % 32 cb 18 cb 21 cb 1022,8 hPa 0,0 l/m 8,0 km/h (2 Bft) SO 135 1 min 0,000 mm 3,0 UV-I 642 W/m 2,0 C 15,0 C 17,7 km/h (3 Bft) 95,65 %
21.04.2019 10:31 15,8 C 26,7 C 12,8 C 12,8 C 12,8 C 39 % 32 cb 18 cb 21 cb 1022,8 hPa 0,0 l/m 3,2 km/h (1 Bft) O 90 1 min 0,000 mm 2,9 UV-I 640 W/m 1,9 C 15,8 C 8,0 km/h (2 Bft) 95,65 %
21.04.2019 10:30 15,8 C 26,7 C 12,8 C 12,8 C 12,8 C 38 % 32 cb 18 cb 21 cb 1022,8 hPa 0,0 l/m 6,4 km/h (2 Bft) O-NO 67 1 min 0,000 mm 2,9 UV-I 635 W/m 1,5 C 15,8 C 20,9 km/h (4 Bft) 100,00 %
21.04.2019 10:29 15,8 C 26,7 C 12,8 C 12,8 C 12,8 C 38 % 32 cb 18 cb 21 cb 1022,8 hPa 0,0 l/m 8,0 km/h (2 Bft) O 90 1 min 0,000 mm 2,9 UV-I 633 W/m 1,5 C 14,9 C 11,3 km/h (2 Bft) 95,65 %
21.04.2019 10:28 15,9 C 28,9 C 12,8 C 12,8 C 12,8 C 40 % 33 cb 18 cb 21 cb 1022,8 hPa 0,0 l/m 14,5 km/h (3 Bft) O-NO 67 1 min 0,000 mm 2,9 UV-I 631 W/m 2,3 C 12,4 C 20,9 km/h (4 Bft) 95,65 %
21.04.2019 10:27 15,8 C 28,9 C 12,8 C 12,8 C 12,8 C 40 % 33 cb 18 cb 21 cb 1022,8 hPa 0,0 l/m 11,3 km/h (2 Bft) O-NO 67 1 min 0,000 mm 2,9 UV-I 629 W/m 2,2 C 13,5 C 16,1 km/h (3 Bft) 100,00 %
21.04.2019 10:26 15,7 C 28,3 C 12,8 C 12,8 C 12,8 C 41 % 33 cb 18 cb 21 cb 1022,8 hPa 0,0 l/m 8,0 km/h (2 Bft) O-NO 67 1 min 0,000 mm 2,8 UV-I 628 W/m 2,5 C 14,8 C 14,5 km/h (3 Bft) 95,65 %
21.04.2019 10:25 15,5 C 27,2 C 12,8 C 12,8 C 12,8 C 41 % 32 cb 18 cb 21 cb 1022,8 hPa 0,0 l/m 11,3 km/h (2 Bft) O 90 1 min 0,000 mm 2,8 UV-I 624 W/m 2,3 C 13,1 C 17,7 km/h (3 Bft) 91,30 %
21.04.2019 10:24 15,4 C 26,7 C 12,8 C 12,8 C 12,8 C 40 % 32 cb 18 cb 21 cb 1022,8 hPa 0,0 l/m 6,4 km/h (2 Bft) O 90 1 min 0,000 mm 2,8 UV-I 622 W/m 1,9 C 15,4 C 17,7 km/h (3 Bft) 100,00 %
21.04.2019 10:23 15,4 C 28,3 C 12,8 C 12,8 C 12,8 C 40 % 33 cb 18 cb 21 cb 1022,9 hPa 0,0 l/m 4,8 km/h (1 Bft) O 90 1 min 0,000 mm 2,8 UV-I 621 W/m 1,9 C 15,4 C 12,9 km/h (3 Bft) 91,30 %
21.04.2019 10:22 15,4 C 27,8 C 12,8 C 12,8 C 12,8 C 41 % 33 cb 18 cb 21 cb 1022,9 hPa 0,0 l/m 6,4 km/h (2 Bft) O-NO 67 1 min 0,000 mm 2,7 UV-I 619 W/m 2,2 C 15,4 C 11,3 km/h (2 Bft) 86,96 %
21.04.2019 10:21 15,3 C 27,2 C 12,8 C 12,8 C 12,8 C 41 % 32 cb 18 cb 21 cb 1022,9 hPa 0,0 l/m 6,4 km/h (2 Bft) O 90 1 min 0,000 mm 2,7 UV-I 617 W/m 2,1 C 15,3 C 11,3 km/h (2 Bft) 95,65 %
21.04.2019 10:20 15,3 C 27,2 C 12,8 C 12,8 C 12,8 C 41 % 32 cb 18 cb 21 cb 1022,9 hPa 0,0 l/m 6,4 km/h (2 Bft) NO 45 1 min 0,000 mm 2,6 UV-I 613 W/m 2,1 C 15,3 C 9,7 km/h (2 Bft) 91,30 %
21.04.2019 10:19 15,2 C 27,2 C 12,8 C 12,8 C 12,8 C 42 % 32 cb 18 cb 21 cb 1022,9 hPa 0,0 l/m 9,7 km/h (2 Bft) O 90 1 min 0,000 mm 2,6 UV-I 612 W/m 2,4 C 13,5 C 14,5 km/h (3 Bft) 91,30 %
21.04.2019 10:18 15,1 C 26,7 C 12,8 C 12,8 C 12,8 C 41 % 32 cb 18 cb 21 cb 1022,9 hPa 0,0 l/m 11,3 km/h (2 Bft) O 90 1 min 0,000 mm 2,6 UV-I 606 W/m 2,0 C 12,7 C 14,5 km/h (3 Bft) 95,65 %
21.04.2019 10:17 15,0 C 26,1 C 12,8 C 12,8 C 12,8 C 43 % 32 cb 18 cb 21 cb 1022,9 hPa 0,0 l/m 4,8 km/h (1 Bft) O-NO 67 1 min 0,000 mm 2,6 UV-I 605 W/m 2,5 C 15,0 C 8,0 km/h (2 Bft) 91,30 %
21.04.2019 10:16 14,9 C 25,6 C 12,8 C 12,8 C 12,8 C 44 % 31 cb 18 cb 21 cb 1023,0 hPa 0,0 l/m 3,2 km/h (1 Bft) O-NO 67 1 min 0,000 mm 2,6 UV-I 603 W/m 2,8 C 14,9 C 6,4 km/h (2 Bft) 95,65 %
21.04.2019 10:15 14,8 C 25,6 C 12,8 C 12,8 C 12,8 C 43 % 31 cb 18 cb 21 cb 1023,0 hPa 0,0 l/m 11,3 km/h (2 Bft) O-NO 67 1 min 0,000 mm 2,6 UV-I 599 W/m 2,3 C 12,3 C 14,5 km/h (3 Bft) 91,30 %
21.04.2019 10:14 14,8 C 26,1 C 12,8 C 12,8 C 12,8 C 42 % 32 cb 18 cb 21 cb 1022,9 hPa 0,0 l/m 12,9 km/h (3 Bft) O-NO 67 1 min 0,000 mm 2,5 UV-I 599 W/m 2,0 C 11,7 C 17,7 km/h (3 Bft) 95,65 %
21.04.2019 10:13 14,8 C 26,7 C 12,8 C 12,8 C 12,8 C 43 % 32 cb 18 cb 21 cb 1023,0 hPa 0,0 l/m 11,3 km/h (2 Bft) O 90 1 min 0,000 mm 2,5 UV-I 596 W/m 2,3 C 12,3 C 17,7 km/h (3 Bft) 86,96 %
21.04.2019 10:12 14,7 C 26,7 C 12,8 C 12,8 C 12,8 C 43 % 32 cb 18 cb 21 cb 1022,9 hPa 0,0 l/m 0,0 km/h (0 Bft) O-SO 112 1 min 0,000 mm 2,5 UV-I 592 W/m 2,3 C 14,7 C 3,2 km/h (1 Bft) 100,00 %
21.04.2019 10:11 14,6 C 25,6 C 12,8 C 12,8 C 12,8 C 44 % 31 cb 18 cb 21 cb 1023,0 hPa 0,0 l/m 3,2 km/h (1 Bft) O-NO 67 1 min 0,000 mm 2,5 UV-I 592 W/m 2,5 C 14,6 C 11,3 km/h (2 Bft) 86,96 %
21.04.2019 10:10 14,6 C 25,6 C 12,8 C 12,8 C 12,8 C 43 % 31 cb 18 cb 21 cb 1022,9 hPa 0,0 l/m 12,9 km/h (3 Bft) O 90 1 min 0,000 mm 2,5 UV-I 591 W/m 2,2 C 11,5 C 14,5 km/h (3 Bft) 86,96 %
21.04.2019 10:09 14,6 C 25,6 C 12,8 C 12,8 C 12,8 C 43 % 31 cb 18 cb 21 cb 1023,0 hPa 0,0 l/m 8,0 km/h (2 Bft) O 90 1 min 0,000 mm 2,5 UV-I 589 W/m 2,2 C 13,7 C 11,3 km/h (2 Bft) 95,65 %
21.04.2019 10:08 14,6 C 26,1 C 12,8 C 12,8 C 12,8 C 42 % 32 cb 18 cb 21 cb 1023,0 hPa 0,0 l/m 11,3 km/h (2 Bft) O-NO 67 1 min 0,000 mm 2,4 UV-I 587 W/m 1,8 C 12,1 C 12,9 km/h (3 Bft) 86,96 %
21.04.2019 10:07 14,6 C 27,2 C 12,2 C 12,8 C 12,8 C 43 % 32 cb 18 cb 21 cb 1023,0 hPa 0,0 l/m 9,7 km/h (2 Bft) O-NO 67 1 min 0,000 mm 2,4 UV-I 582 W/m 2,2 C 12,8 C 16,1 km/h (3 Bft) 95,65 %
21.04.2019 10:06 14,5 C 26,7 C 12,2 C 12,8 C 12,8 C 43 % 32 cb 18 cb 21 cb 1023,0 hPa 0,0 l/m 8,0 km/h (2 Bft) O-NO 67 1 min 0,000 mm 2,4 UV-I 580 W/m 2,1 C 13,6 C 12,9 km/h (3 Bft) 91,30 %
21.04.2019 10:05 14,4 C 26,1 C 12,2 C 12,8 C 12,8 C 44 % 32 cb 18 cb 21 cb 1023,1 hPa 0,0 l/m 9,7 km/h (2 Bft) O-NO 67 1 min 0,000 mm 2,4 UV-I 580 W/m 2,3 C 12,6 C 12,9 km/h (3 Bft) 95,65 %
21.04.2019 10:04 14,3 C 26,1 C 12,2 C 12,8 C 12,8 C 44 % 32 cb 18 cb 21 cb 1023,1 hPa 0,0 l/m 9,7 km/h (2 Bft) SO 135 1 min 0,000 mm 2,3 UV-I 577 W/m 2,2 C 12,5 C 12,9 km/h (3 Bft) 82,61 %
21.04.2019 10:03 14,2 C 25,0 C 12,2 C 12,8 C 12,8 C 43 % 31 cb 18 cb 21 cb 1023,1 hPa 0,0 l/m 6,4 km/h (2 Bft) O-NO 67 1 min 0,000 mm 2,3 UV-I 573 W/m 1,8 C 14,2 C 12,9 km/h (3 Bft) 100,00 %
21.04.2019 10:02 14,1 C 24,4 C 12,2 C 12,8 C 12,8 C 44 % 31 cb 18 cb 21 cb 1023,1 hPa 0,0 l/m 9,7 km/h (2 Bft) O-SO 112 1 min 0,000 mm 2,3 UV-I 573 W/m 2,0 C 12,3 C 12,9 km/h (3 Bft) 86,96 %
21.04.2019 10:01 14,1 C 24,4 C 12,2 C 12,8 C 12,8 C 44 % 31 cb 18 cb 21 cb 1023,0 hPa 0,0 l/m 8,0 km/h (2 Bft) O-SO 112 1 min 0,000 mm 2,3 UV-I 566 W/m 2,0 C 13,2 C 12,9 km/h (3 Bft) 95,65 %
21.04.2019 10:00 14,1 C 25,0 C 12,2 C 12,8 C 12,8 C 43 % 31 cb 18 cb 21 cb 1023,1 hPa 0,0 l/m 11,3 km/h (2 Bft) O 90 1 min 0,305 mm 2,2 UV-I 566 W/m 1,7 C 11,5 C 12,9 km/h (3 Bft) 86,96 %
21.04.2019 09:59 14,2 C 26,7 C 12,2 C 12,8 C 12,8 C 43 % 32 cb 18 cb 21 cb 1023,1 hPa 0,0 l/m 8,0 km/h (2 Bft) O-NO 67 1 min 0,000 mm 2,2 UV-I 563 W/m 1,8 C 13,3 C 12,9 km/h (3 Bft) 91,30 %
21.04.2019 09:58 14,2 C 25,6 C 12,2 C 12,8 C 12,8 C 45 % 31 cb 18 cb 21 cb 1023,2 hPa 0,0 l/m 12,9 km/h (3 Bft) O 90 1 min 0,000 mm 2,2 UV-I 561 W/m 2,4 C 11,0 C 16,1 km/h (3 Bft) 86,96 %
21.04.2019 09:57 14,1 C 25,6 C 12,2 C 12,8 C 12,8 C 44 % 31 cb 18 cb 21 cb 1023,1 hPa 0,0 l/m 8,0 km/h (2 Bft) O 90 1 min 0,000 mm 2,2 UV-I 559 W/m 2,0 C 13,2 C 11,3 km/h (2 Bft) 95,65 %
21.04.2019 09:56 13,9 C 26,1 C 12,2 C 12,8 C 12,8 C 44 % 32 cb 18 cb 21 cb 1023,2 hPa 0,0 l/m 9,7 km/h (2 Bft) O 90 1 min 0,000 mm 2,2 UV-I 557 W/m 1,9 C 12,0 C 14,5 km/h (3 Bft) 91,30 %
21.04.2019 09:55 13,8 C 26,7 C 12,2 C 12,8 C 12,8 C 44 % 32 cb 18 cb 21 cb 1023,2 hPa 0,0 l/m 9,7 km/h (2 Bft) NO 45 1 min 0,000 mm 2,2 UV-I 552 W/m 1,8 C 11,9 C 16,1 km/h (3 Bft) 91,30 %
21.04.2019 09:54 13,7 C 26,7 C 12,2 C 12,8 C 12,8 C 46 % 32 cb 18 cb 21 cb 1023,2 hPa 0,0 l/m 6,4 km/h (2 Bft) NO 45 1 min 0,000 mm 2,2 UV-I 552 W/m 2,3 C 13,7 C 9,7 km/h (2 Bft) 91,30 %
21.04.2019 09:53 13,6 C 25,6 C 12,2 C 12,8 C 12,8 C 45 % 31 cb 18 cb 21 cb 1023,3 hPa 0,0 l/m 4,8 km/h (1 Bft) O-SO 112 1 min 0,000 mm 2,1 UV-I 550 W/m 1,9 C 13,6 C 8,0 km/h (2 Bft) 91,30 %
21.04.2019 09:52 13,5 C 25,6 C 12,2 C 12,8 C 12,8 C 45 % 31 cb 18 cb 21 cb 1023,2 hPa 0,0 l/m 8,0 km/h (2 Bft) SO 135 1 min 0,000 mm 2,1 UV-I 547 W/m 1,8 C 12,5 C 12,9 km/h (3 Bft) 95,65 %
21.04.2019 09:51 13,5 C 25,0 C 12,2 C 12,8 C 12,8 C 45 % 31 cb 18 cb 21 cb 1023,2 hPa 0,0 l/m 4,8 km/h (1 Bft) SO 135 1 min 0,000 mm 2,1 UV-I 545 W/m 1,8 C 13,5 C 9,7 km/h (2 Bft) 86,96 %
21.04.2019 09:50 13,4 C 25,6 C 12,2 C 12,8 C 12,8 C 45 % 31 cb 18 cb 21 cb 1023,3 hPa 0,0 l/m 9,7 km/h (2 Bft) S-SO 157 1 min 0,000 mm 2,1 UV-I 543 W/m 1,7 C 11,5 C 14,5 km/h (3 Bft) 95,65 %
21.04.2019 09:49 13,4 C 25,0 C 12,2 C 12,8 C 12,8 C 45 % 31 cb 18 cb 21 cb 1023,2 hPa 0,0 l/m 4,8 km/h (1 Bft) O-NO 67 1 min 0,000 mm 2,0 UV-I 540 W/m 1,7 C 13,4 C 6,4 km/h (2 Bft) 86,96 %
21.04.2019 09:48 13,3 C 25,0 C 12,2 C 12,8 C 12,8 C 45 % 31 cb 18 cb 21 cb 1023,3 hPa 0,0 l/m 6,4 km/h (2 Bft) SO 135 1 min 0,000 mm 2,0 UV-I 536 W/m 1,6 C 13,3 C 11,3 km/h (2 Bft) 91,30 %
21.04.2019 09:47 13,3 C 25,0 C 12,2 C 12,8 C 12,8 C 46 % 31 cb 18 cb 21 cb 1023,3 hPa 0,0 l/m 6,4 km/h (2 Bft) SO 135 1 min 0,000 mm 2,0 UV-I 534 W/m 1,9 C 13,3 C 11,3 km/h (2 Bft) 95,65 %
21.04.2019 09:46 13,2 C 25,0 C 12,2 C 12,8 C 12,8 C 45 % 31 cb 18 cb 21 cb 1023,3 hPa 0,0 l/m 3,2 km/h (1 Bft) O-NO 67 1 min 0,000 mm 2,0 UV-I 533 W/m 1,5 C 13,2 C 6,4 km/h (2 Bft) 86,96 %
21.04.2019 09:45 13,2 C 24,4 C 12,2 C 12,8 C 12,8 C 45 % 31 cb 18 cb 21 cb 1023,4 hPa 0,0 l/m 6,4 km/h (2 Bft) S-SO 157 1 min 0,000 mm 2,0 UV-I 529 W/m 1,5 C 13,2 C 11,3 km/h (2 Bft) 91,30 %
21.04.2019 09:44 13,2 C 23,9 C 12,2 C 12,8 C 12,8 C 46 % 30 cb 18 cb 21 cb 1023,3 hPa 0,0 l/m 8,0 km/h (2 Bft) O-SO 112 1 min 0,000 mm 1,9 UV-I 527 W/m 1,8 C 12,2 C 11,3 km/h (2 Bft) 95,65 %
21.04.2019 09:43 13,2 C 23,9 C 12,2 C 12,8 C 12,8 C 45 % 30 cb 18 cb 21 cb 1023,4 hPa 0,0 l/m 4,8 km/h (1 Bft) O 90 1 min 0,000 mm 1,9 UV-I 524 W/m 1,5 C 13,2 C 11,3 km/h (2 Bft) 86,96 %
21.04.2019 09:42 13,2 C 24,4 C 12,2 C 12,8 C 12,8 C 45 % 31 cb 18 cb 21 cb 1023,3 hPa 0,0 l/m 6,4 km/h (2 Bft) O 90 1 min 0,000 mm 1,9 UV-I 522 W/m 1,5 C 13,2 C 11,3 km/h (2 Bft) 91,30 %
21.04.2019 09:41 13,2 C 25,0 C 12,2 C 12,8 C 12,8 C 45 % 31 cb 18 cb 21 cb 1023,3 hPa 0,0 l/m 6,4 km/h (2 Bft) O 90 1 min 0,000 mm 1,9 UV-I 520 W/m 1,5 C 13,2 C 12,9 km/h (3 Bft) 100,00 %
21.04.2019 09:40 13,2 C 24,4 C 12,2 C 12,8 C 12,8 C 46 % 31 cb 18 cb 21 cb 1023,3 hPa 0,0 l/m 8,0 km/h (2 Bft) O-NO 67 1 min 0,000 mm 1,9 UV-I 519 W/m 1,8 C 12,2 C 16,1 km/h (3 Bft) 86,96 %
21.04.2019 09:39 13,1 C 24,4 C 12,2 C 12,8 C 12,8 C 45 % 31 cb 18 cb 21 cb 1023,3 hPa 0,0 l/m 6,4 km/h (2 Bft) O-NO 67 1 min 0,000 mm 1,9 UV-I 515 W/m 1,4 C 13,1 C 11,3 km/h (2 Bft) 95,65 %
21.04.2019 09:38 13,1 C 23,3 C 12,2 C 12,8 C 12,8 C 46 % 30 cb 18 cb 21 cb 1023,3 hPa 0,0 l/m 9,7 km/h (2 Bft) O-NO 67 1 min 0,000 mm 1,8 UV-I 513 W/m 1,7 C 11,2 C 14,5 km/h (3 Bft) 95,65 %
21.04.2019 09:37 12,9 C 23,3 C 12,2 C 12,8 C 12,8 C 45 % 30 cb 18 cb 21 cb 1023,4 hPa 0,0 l/m 8,0 km/h (2 Bft) O-SO 112 1 min 0,000 mm 1,8 UV-I 510 W/m 1,3 C 11,9 C 12,9 km/h (3 Bft) 91,30 %
21.04.2019 09:36 12,9 C 22,8 C 12,2 C 12,8 C 12,8 C 46 % 30 cb 18 cb 21 cb 1023,4 hPa 0,0 l/m 8,0 km/h (2 Bft) O 90 1 min 0,000 mm 1,8 UV-I 508 W/m 1,6 C 11,9 C 12,9 km/h (3 Bft) 95,65 %
21.04.2019 09:35 12,9 C 23,3 C 12,2 C 12,8 C 12,8 C 46 % 30 cb 18 cb 21 cb 1023,3 hPa 0,0 l/m 8,0 km/h (2 Bft) SO 135 1 min 0,000 mm 1,8 UV-I 504 W/m 1,6 C 11,9 C 12,9 km/h (3 Bft) 100,00 %
21.04.2019 09:34 12,9 C 23,9 C 12,2 C 12,8 C 12,8 C 46 % 30 cb 18 cb 21 cb 1023,3 hPa 0,0 l/m 4,8 km/h (1 Bft) O 90 1 min 0,000 mm 1,8 UV-I 503 W/m 1,6 C 12,9 C 11,3 km/h (2 Bft) 95,65 %
21.04.2019 09:33 12,8 C 23,9 C 12,2 C 12,8 C 12,8 C 46 % 30 cb 18 cb 21 cb 1023,4 hPa 0,0 l/m 8,0 km/h (2 Bft) O-SO 112 1 min 0,000 mm 1,7 UV-I 501 W/m 1,5 C 11,8 C 12,9 km/h (3 Bft) 95,65 %
21.04.2019 09:32 12,7 C 23,9 C 12,2 C 12,8 C 12,8 C 47 % 30 cb 18 cb 21 cb 1023,3 hPa 0,0 l/m 4,8 km/h (1 Bft) O 90 1 min 0,000 mm 1,7 UV-I 494 W/m 1,7 C 12,7 C 9,7 km/h (2 Bft) 100,00 %
21.04.2019 09:31 12,7 C 25,0 C 12,2 C 12,8 C 12,8 C 48 % 31 cb 18 cb 21 cb 1023,3 hPa 0,0 l/m 8,0 km/h (2 Bft) NO 45 1 min 0,000 mm 1,7 UV-I 492 W/m 2,0 C 11,7 C 11,3 km/h (2 Bft) 95,65 %
21.04.2019 09:30 12,7 C 24,4 C 12,2 C 12,8 C 12,8 C 47 % 31 cb 18 cb 21 cb 1023,3 hPa 0,0 l/m 9,7 km/h (2 Bft) O-NO 67 1 min 0,000 mm 1,7 UV-I 490 W/m 1,7 C 10,7 C 12,9 km/h (3 Bft) 95,65 %
21.04.2019 09:29 12,6 C 24,4 C 12,2 C 12,8 C 12,8 C 46 % 31 cb 18 cb 21 cb 1023,3 hPa 0,0 l/m 9,7 km/h (2 Bft) O-NO 67 1 min 0,000 mm 1,7 UV-I 489 W/m 1,3 C 10,6 C 16,1 km/h (3 Bft) 100,00 %
21.04.2019 09:28 12,7 C 25,0 C 12,2 C 12,8 C 12,8 C 47 % 31 cb 18 cb 21 cb 1023,3 hPa 0,0 l/m 12,9 km/h (3 Bft) O-NO 67 1 min 0,000 mm 1,7 UV-I 485 W/m 1,7 C 9,2 C 16,1 km/h (3 Bft) 95,65 %
21.04.2019 09:27 12,6 C 25,0 C 12,2 C 12,8 C 12,8 C 48 % 31 cb 18 cb 21 cb 1023,4 hPa 0,0 l/m 8,0 km/h (2 Bft) O-NO 67 1 min 0,000 mm 1,6 UV-I 483 W/m 1,9 C 11,6 C 12,9 km/h (3 Bft) 95,65 %
21.04.2019 09:26 12,5 C 23,9 C 12,2 C 13,3 C 12,8 C 48 % 30 cb 18 cb 21 cb 1023,5 hPa 0,0 l/m 8,0 km/h (2 Bft) O-NO 67 1 min 0,000 mm 1,6 UV-I 478 W/m 1,8 C 11,5 C 9,7 km/h (2 Bft) 100,00 %
21.04.2019 09:25 12,3 C 23,3 C 12,2 C 13,3 C 12,8 C 49 % 30 cb 17 cb 21 cb 1023,4 hPa 0,0 l/m 6,4 km/h (2 Bft) O 90 1 min 0,000 mm 1,6 UV-I 476 W/m 1,9 C 12,3 C 8,0 km/h (2 Bft) 95,65 %
21.04.2019 09:24 12,3 C 23,3 C 12,2 C 13,3 C 12,8 C 48 % 30 cb 17 cb 21 cb 1023,5 hPa 0,0 l/m 9,7 km/h (2 Bft) O-NO 67 1 min 0,000 mm 1,6 UV-I 475 W/m 1,6 C 10,3 C 14,5 km/h (3 Bft) 95,65 %
21.04.2019 09:23 12,2 C 22,2 C 12,2 C 13,3 C 12,8 C 48 % 29 cb 17 cb 21 cb 1023,4 hPa 0,0 l/m 8,0 km/h (2 Bft) O-NO 67 1 min 0,000 mm 1,6 UV-I 473 W/m 1,5 C 11,2 C 11,3 km/h (2 Bft) 100,00 %
21.04.2019 09:22 12,2 C 22,8 C 12,2 C 13,3 C 12,8 C 48 % 30 cb 17 cb 21 cb 1023,5 hPa 0,0 l/m 14,5 km/h (3 Bft) O-NO 67 1 min 0,000 mm 1,6 UV-I 471 W/m 1,5 C 8,0 C 16,1 km/h (3 Bft) 91,30 %
21.04.2019 09:21 12,1 C 22,8 C 12,2 C 13,3 C 12,8 C 49 % 30 cb 17 cb 21 cb 1023,3 hPa 0,0 l/m 12,9 km/h (3 Bft) O-NO 67 1 min 0,000 mm 1,5 UV-I 466 W/m 1,7 C 8,5 C 17,7 km/h (3 Bft) 91,30 %
21.04.2019 09:20 12,0 C 22,8 C 12,2 C 13,3 C 12,8 C 48 % 30 cb 17 cb 21 cb 1023,4 hPa 0,0 l/m 9,7 km/h (2 Bft) O-NO 67 1 min 0,000 mm 1,5 UV-I 464 W/m 1,3 C 10,0 C 12,9 km/h (3 Bft) 95,65 %
21.04.2019 09:19 11,9 C 22,8 C 12,2 C 13,3 C 12,8 C 48 % 30 cb 17 cb 21 cb 1023,4 hPa 0,0 l/m 8,0 km/h (2 Bft) O-NO 67 1 min 0,000 mm 1,5 UV-I 462 W/m 1,2 C 10,8 C 14,5 km/h (3 Bft) 95,65 %
21.04.2019 09:18 11,9 C 22,8 C 12,2 C 13,3 C 12,8 C 48 % 30 cb 17 cb 21 cb 1023,4 hPa 0,0 l/m 6,4 km/h (2 Bft) O 90 1 min 0,000 mm 1,5 UV-I 459 W/m 1,2 C 11,9 C 9,7 km/h (2 Bft) 86,96 %
21.04.2019 09:17 12,0 C 22,8 C 12,2 C 13,3 C 12,8 C 48 % 30 cb 17 cb 21 cb 1023,5 hPa 0,0 l/m 11,3 km/h (2 Bft) O-NO 67 1 min 0,000 mm 1,5 UV-I 457 W/m 1,3 C 9,1 C 14,5 km/h (3 Bft) 100,00 %
21.04.2019 09:16 12,1 C 23,9 C 12,2 C 13,3 C 12,8 C 47 % 30 cb 17 cb 21 cb 1023,5 hPa 0,0 l/m 9,7 km/h (2 Bft) O-NO 67 1 min 0,000 mm 1,5 UV-I 455 W/m 1,1 C 10,1 C 12,9 km/h (3 Bft) 95,65 %
21.04.2019 09:15 12,1 C 23,9 C 12,2 C 13,3 C 12,8 C 49 % 30 cb 17 cb 21 cb 1023,5 hPa 0,0 l/m 11,3 km/h (2 Bft) O-NO 67 1 min 0,000 mm 1,4 UV-I 452 W/m 1,7 C 9,3 C 16,1 km/h (3 Bft) 95,65 %
21.04.2019 09:14 12,0 C 23,3 C 12,2 C 13,3 C 12,8 C 50 % 30 cb 17 cb 21 cb 1023,5 hPa 0,0 l/m 9,7 km/h (2 Bft) O-NO 67 1 min 0,000 mm 1,4 UV-I 446 W/m 1,9 C 10,0 C 12,9 km/h (3 Bft) 100,00 %
21.04.2019 09:13 12,0 C 23,3 C 12,2 C 13,3 C 12,8 C 50 % 30 cb 17 cb 21 cb 1023,5 hPa 0,0 l/m 8,0 km/h (2 Bft) NO 45 1 min 0,000 mm 1,4 UV-I 445 W/m 1,9 C 11,0 C 17,7 km/h (3 Bft) 95,65 %
21.04.2019 09:12 12,0 C 23,3 C 12,2 C 13,3 C 12,8 C 48 % 30 cb 17 cb 21 cb 1023,6 hPa 0,0 l/m 11,3 km/h (2 Bft) O-NO 67 1 min 0,000 mm 1,4 UV-I 443 W/m 1,3 C 9,1 C 17,7 km/h (3 Bft) 95,65 %
21.04.2019 09:11 12,0 C 23,9 C 12,2 C 13,3 C 12,8 C 48 % 30 cb 17 cb 21 cb 1023,6 hPa 0,0 l/m 11,3 km/h (2 Bft) O-NO 67 1 min 0,000 mm 1,4 UV-I 439 W/m 1,3 C 9,1 C 16,1 km/h (3 Bft) 100,00 %
21.04.2019 09:10 11,9 C 23,3 C 12,2 C 13,3 C 12,8 C 49 % 30 cb 17 cb 21 cb 1023,6 hPa 0,0 l/m 4,8 km/h (1 Bft) O-NO 67 1 min 0,000 mm 1,4 UV-I 438 W/m 1,5 C 11,9 C 9,7 km/h (2 Bft) 95,65 %
21.04.2019 09:09 11,9 C 23,3 C 12,2 C 13,3 C 12,8 C 49 % 30 cb 17 cb 21 cb 1023,5 hPa 0,0 l/m 4,8 km/h (1 Bft) O-NO 67 1 min 0,000 mm 1,3 UV-I 434 W/m 1,5 C 11,9 C 6,4 km/h (2 Bft) 91,30 %
21.04.2019 09:08 11,8 C 22,2 C 12,2 C 13,3 C 12,8 C 49 % 29 cb 17 cb 21 cb 1023,6 hPa 0,0 l/m 6,4 km/h (2 Bft) O 90 1 min 0,000 mm 1,3 UV-I 432 W/m 1,4 C 11,8 C 9,7 km/h (2 Bft) 91,30 %
21.04.2019 09:07 11,7 C 22,2 C 12,2 C 13,3 C 12,8 C 49 % 29 cb 17 cb 21 cb 1023,6 hPa 0,0 l/m 3,2 km/h (1 Bft) O-NO 67 1 min 0,000 mm 1,3 UV-I 429 W/m 1,3 C 11,7 C 8,0 km/h (2 Bft) 95,65 %
21.04.2019 09:06 11,7 C 23,3 C 12,2 C 13,3 C 12,8 C 49 % 30 cb 17 cb 21 cb 1023,6 hPa 0,0 l/m 6,4 km/h (2 Bft) O 90 1 min 0,000 mm 1,3 UV-I 427 W/m 1,3 C 11,7 C 14,5 km/h (3 Bft) 95,65 %
21.04.2019 09:05 11,6 C 22,8 C 11,7 C 13,3 C 12,8 C 52 % 30 cb 17 cb 21 cb 1023,6 hPa 0,0 l/m 9,7 km/h (2 Bft) O-SO 112 1 min 0,000 mm 1,3 UV-I 425 W/m 2,1 C 9,5 C 14,5 km/h (3 Bft) 91,30 %
21.04.2019 09:04 11,4 C 22,2 C 11,7 C 13,3 C 12,8 C 52 % 29 cb 17 cb 21 cb 1023,6 hPa 0,0 l/m 6,4 km/h (2 Bft) O-NO 67 1 min 0,000 mm 1,3 UV-I 424 W/m 1,9 C 11,4 C 11,3 km/h (2 Bft) 100,00 %
21.04.2019 09:03 11,2 C 22,8 C 11,7 C 13,3 C 12,8 C 52 % 30 cb 17 cb 21 cb 1023,5 hPa 0,0 l/m 6,4 km/h (2 Bft) O-NO 67 1 min 0,000 mm 1,3 UV-I 417 W/m 1,7 C 11,2 C 11,3 km/h (2 Bft) 91,30 %
21.04.2019 09:02 11,1 C 22,8 C 11,7 C 13,3 C 12,8 C 53 % 30 cb 17 cb 21 cb 1023,6 hPa 0,0 l/m 8,0 km/h (2 Bft) NO 45 1 min 0,000 mm 1,3 UV-I 415 W/m 1,9 C 10,0 C 11,3 km/h (2 Bft) 91,30 %
21.04.2019 09:01 10,8 C 23,3 C 11,7 C 13,3 C 12,8 C 54 % 30 cb 17 cb 21 cb 1023,6 hPa 0,0 l/m 6,4 km/h (2 Bft) NO 45 1 min 0,000 mm 1,2 UV-I 413 W/m 1,9 C 10,8 C 8,0 km/h (2 Bft) 100,00 %
21.04.2019 09:00 10,5 C 22,8 C 11,7 C 13,3 C 12,8 C 57 % 30 cb 17 cb 21 cb 1023,5 hPa 0,0 l/m 4,8 km/h (1 Bft) NO 45 1 min 0,152 mm 1,2 UV-I 410 W/m 2,3 C 10,5 C 9,7 km/h (2 Bft) 95,65 %
21.04.2019 08:59 10,4 C 23,3 C 11,7 C 13,3 C 12,8 C 58 % 30 cb 17 cb 21 cb 1023,6 hPa 0,0 l/m 1,6 km/h (1 Bft) NO 45 1 min 0,000 mm 1,2 UV-I 408 W/m 2,5 C 10,4 C 3,2 km/h (1 Bft) 91,30 %
21.04.2019 08:58 10,3 C 23,9 C 11,7 C 13,3 C 12,8 C 58 % 30 cb 17 cb 21 cb 1023,6 hPa 0,0 l/m 1,6 km/h (1 Bft) N-NO 22 1 min 0,000 mm 1,2 UV-I 404 W/m 2,4 C 10,3 C 3,2 km/h (1 Bft) 100,00 %
21.04.2019 08:57 10,3 C 23,9 C 11,7 C 13,3 C 12,8 C 58 % 30 cb 17 cb 21 cb 1023,6 hPa 0,0 l/m 3,2 km/h (1 Bft) NO 45 1 min 0,000 mm 1,2 UV-I 401 W/m 2,4 C 10,3 C 4,8 km/h (1 Bft) 95,65 %
21.04.2019 08:56 10,2 C 23,9 C 11,7 C 13,3 C 12,8 C 59 % 30 cb 17 cb 21 cb 1023,6 hPa 0,0 l/m 3,2 km/h (1 Bft) N-NO 22 1 min 0,000 mm 1,2 UV-I 397 W/m 2,6 C 10,2 C 4,8 km/h (1 Bft) 95,65 %
21.04.2019 08:55 10,1 C 22,8 C 11,7 C 13,3 C 12,8 C 59 % 30 cb 17 cb 21 cb 1023,5 hPa 0,0 l/m 3,2 km/h (1 Bft) N-NO 22 1 min 0,000 mm 1,2 UV-I 394 W/m 2,5 C 10,1 C 4,8 km/h (1 Bft) 95,65 %
21.04.2019 08:54 10,0 C 23,3 C 11,7 C 13,3 C 12,8 C 60 % 30 cb 17 cb 21 cb 1023,6 hPa 0,0 l/m 1,6 km/h (1 Bft) NO 45 1 min 0,000 mm 1,1 UV-I 392 W/m 2,6 C 10,0 C 1,6 km/h (1 Bft) 95,65 %
21.04.2019 08:53 9,9 C 23,9 C 11,7 C 13,3 C 12,8 C 60 % 30 cb 17 cb 21 cb 1023,5 hPa 0,0 l/m 1,6 km/h (1 Bft) N-NO 22 1 min 0,000 mm 1,1 UV-I 390 W/m 2,5 C 9,9 C 3,2 km/h (1 Bft) 95,65 %
21.04.2019 08:52 9,9 C 23,3 C 11,7 C 13,3 C 12,8 C 60 % 30 cb 17 cb 21 cb 1023,5 hPa 0,0 l/m 1,6 km/h (1 Bft) NO 45 1 min 0,000 mm 1,1 UV-I 385 W/m 2,5 C 9,9 C 3,2 km/h (1 Bft) 100,00 %
21.04.2019 08:51 9,8 C 23,3 C 11,7 C 13,3 C 12,8 C 61 % 30 cb 17 cb 21 cb 1023,5 hPa 0,0 l/m 1,6 km/h (1 Bft) NO 45 1 min 0,000 mm 1,1 UV-I 381 W/m 2,6 C 9,8 C 1,6 km/h (1 Bft) 95,65 %
21.04.2019 08:50 9,7 C 23,3 C 11,7 C 13,3 C 12,8 C 61 % 30 cb 17 cb 21 cb 1023,6 hPa 0,0 l/m 0,0 km/h (0 Bft) NO 45 1 min 0,000 mm 1,1 UV-I 380 W/m 2,5 C 9,7 C 1,6 km/h (1 Bft) 91,30 %
21.04.2019 08:49 9,6 C 22,8 C 11,7 C 13,3 C 12,8 C 62 % 30 cb 17 cb 21 cb 1023,6 hPa 0,0 l/m 0,0 km/h (0 Bft) NO 45 1 min 0,000 mm 1,1 UV-I 376 W/m 2,7 C 9,6 C 1,6 km/h (1 Bft) 100,00 %
21.04.2019 08:48 9,6 C 23,3 C 11,7 C 13,3 C 12,8 C 62 % 30 cb 17 cb 21 cb 1023,5 hPa 0,0 l/m 3,2 km/h (1 Bft) NO 45 1 min 0,000 mm 1,0 UV-I 373 W/m 2,7 C 9,6 C 3,2 km/h (1 Bft) 95,65 %
21.04.2019 08:47 9,4 C 23,3 C 11,7 C 13,3 C 12,8 C 63 % 30 cb 17 cb 21 cb 1023,5 hPa 0,0 l/m 1,6 km/h (1 Bft) N-NO 22 1 min 0,000 mm 1,0 UV-I 367 W/m 2,7 C 9,4 C 3,2 km/h (1 Bft) 91,30 %
21.04.2019 08:46 9,3 C 23,3 C 11,7 C 13,3 C 12,8 C 63 % 30 cb 17 cb 21 cb 1023,6 hPa 0,0 l/m 1,6 km/h (1 Bft) N-NW 337 1 min 0,000 mm 1,0 UV-I 367 W/m 2,6 C 9,3 C 4,8 km/h (1 Bft) 100,00 %
21.04.2019 08:45 9,2 C 23,3 C 11,7 C 13,3 C 12,8 C 66 % 30 cb 17 cb 21 cb 1023,6 hPa 0,0 l/m 3,2 km/h (1 Bft) N-NW 337 1 min 0,000 mm 1,0 UV-I 364 W/m 3,2 C 9,2 C 3,2 km/h (1 Bft) 95,65 %
21.04.2019 08:44 9,1 C 22,2 C 11,7 C 13,3 C 12,8 C 65 % 29 cb 17 cb 21 cb 1023,6 hPa 0,0 l/m 0,0 km/h (0 Bft) N-NW 337 1 min 0,000 mm 1,0 UV-I 362 W/m 2,9 C 9,1 C 1,6 km/h (1 Bft) 95,65 %
21.04.2019 08:43 8,9 C 21,7 C 11,7 C 13,3 C 12,8 C 64 % 29 cb 17 cb 21 cb 1023,5 hPa 0,0 l/m 3,2 km/h (1 Bft) N-NW 337 1 min 0,000 mm 1,0 UV-I 359 W/m 2,5 C 8,9 C 4,8 km/h (1 Bft) 100,00 %
21.04.2019 08:42 8,9 C 20,6 C 11,7 C 13,3 C 12,8 C 64 % 29 cb 17 cb 21 cb 1023,5 hPa 0,0 l/m 1,6 km/h (1 Bft) W-NW 292 1 min 0,000 mm 1,0 UV-I 357 W/m 2,5 C 8,9 C 3,2 km/h (1 Bft) 95,65 %
21.04.2019 08:41 8,8 C 20,6 C 11,7 C 13,3 C 12,8 C 64 % 29 cb 17 cb 21 cb 1023,6 hPa 0,0 l/m 1,6 km/h (1 Bft) W 270 1 min 0,000 mm 0,9 UV-I 355 W/m 2,4 C 8,8 C 3,2 km/h (1 Bft) 95,65 %
21.04.2019 08:40 8,7 C 21,1 C 11,7 C 13,3 C 12,8 C 64 % 29 cb 17 cb 21 cb 1023,6 hPa 0,0 l/m 0,0 km/h (0 Bft) W-SW 247 1 min 0,000 mm 0,9 UV-I 352 W/m 2,3 C 8,7 C 1,6 km/h (1 Bft) 100,00 %
21.04.2019 08:39 8,7 C 22,2 C 11,7 C 13,3 C 12,8 C 65 % 29 cb 17 cb 21 cb 1023,6 hPa 0,0 l/m 0,0 km/h (0 Bft) W-SW 247 1 min 0,000 mm 0,9 UV-I 346 W/m 2,5 C 8,7 C 1,6 km/h (1 Bft) 95,65 %
21.04.2019 08:38 8,6 C 22,2 C 11,7 C 13,3 C 12,8 C 65 % 29 cb 17 cb 21 cb 1023,6 hPa 0,0 l/m 0,0 km/h (0 Bft) N 0 1 min 0,000 mm 0,9 UV-I 345 W/m 2,4 C 8,6 C 0,0 km/h (0 Bft) 95,65 %
21.04.2019 08:37 8,6 C 22,2 C 11,7 C 13,3 C 12,8 C 65 % 29 cb 17 cb 21 cb 1023,6 hPa 0,0 l/m 0,0 km/h (0 Bft) W-SW 247 1 min 0,000 mm 0,9 UV-I 343 W/m 2,4 C 8,6 C 1,6 km/h (1 Bft) 95,65 %
21.04.2019 08:36 8,5 C 21,7 C 11,7 C 13,3 C 12,8 C 65 % 29 cb 17 cb 21 cb 1023,5 hPa 0,0 l/m 1,6 km/h (1 Bft) W-SW 247 1 min 0,000 mm 0,9 UV-I 341 W/m 2,3 C 8,5 C 3,2 km/h (1 Bft) 95,65 %
21.04.2019 08:35 8,4 C 21,7 C 11,7 C 13,3 C 12,8 C 66 % 29 cb 17 cb 21 cb 1023,6 hPa 0,0 l/m 1,6 km/h (1 Bft) W-SW 247 1 min 0,000 mm 0,9 UV-I 339 W/m 2,4 C 8,4 C 3,2 km/h (1 Bft) 95,65 %
21.04.2019 08:34 8,4 C 21,7 C 11,7 C 13,3 C 12,8 C 67 % 29 cb 17 cb 21 cb 1023,6 hPa 0,0 l/m 0,0 km/h (0 Bft) W-SW 247 1 min 0,000 mm 0,8 UV-I 336 W/m 2,6 C 8,4 C 1,6 km/h (1 Bft) 100,00 %
21.04.2019 08:33 8,2 C 20,6 C 11,7 C 13,3 C 12,8 C 66 % 29 cb 17 cb 21 cb 1023,6 hPa 0,0 l/m 0,0 km/h (0 Bft) W-SW 247 1 min 0,000 mm 0,8 UV-I 330 W/m 2,2 C 8,2 C 1,6 km/h (1 Bft) 95,65 %
21.04.2019 08:32 8,2 C 19,4 C 11,7 C 13,3 C 12,8 C 66 % 28 cb 17 cb 21 cb 1023,6 hPa 0,0 l/m 1,6 km/h (1 Bft) W-SW 247 1 min 0,000 mm 0,8 UV-I 329 W/m 2,2 C 8,2 C 3,2 km/h (1 Bft) 95,65 %
21.04.2019 08:31 8,3 C 19,4 C 11,7 C 13,3 C 12,8 C 67 % 28 cb 17 cb 21 cb 1023,6 hPa 0,0 l/m 3,2 km/h (1 Bft) W-SW 247 1 min 0,000 mm 0,8 UV-I 327 W/m 2,5 C 8,3 C 3,2 km/h (1 Bft) 100,00 %
21.04.2019 08:30 8,3 C 19,4 C 11,7 C 13,3 C 12,8 C 68 % 28 cb 17 cb 21 cb 1023,6 hPa 0,0 l/m 3,2 km/h (1 Bft) W-NW 292 1 min 0,000 mm 0,8 UV-I 323 W/m 2,7 C 8,3 C 3,2 km/h (1 Bft) 91,30 %
21.04.2019 08:29 8,3 C 18,9 C 11,7 C 13,3 C 12,8 C 69 % 28 cb 17 cb 21 cb 1023,5 hPa 0,0 l/m 3,2 km/h (1 Bft) W-NW 292 1 min 0,000 mm 0,8 UV-I 322 W/m 3,0 C 8,3 C 4,8 km/h (1 Bft) 95,65 %
21.04.2019 08:28 8,1 C 18,3 C 11,7 C 13,3 C 12,8 C 68 % 28 cb 17 cb 21 cb 1023,5 hPa 0,0 l/m 1,6 km/h (1 Bft) W-SW 247 1 min 0,000 mm 0,8 UV-I 320 W/m 2,6 C 8,1 C 3,2 km/h (1 Bft) 95,65 %
21.04.2019 08:27 8,1 C 18,9 C 11,7 C 13,3 C 12,8 C 68 % 28 cb 17 cb 21 cb 1023,6 hPa 0,0 l/m 1,6 km/h (1 Bft) W-SW 247 1 min 0,000 mm 0,8 UV-I 315 W/m 2,6 C 8,1 C 3,2 km/h (1 Bft) 95,65 %
21.04.2019 08:26 8,0 C 18,3 C 11,7 C 13,3 C 12,8 C 69 % 27 cb 17 cb 21 cb 1023,6 hPa 0,0 l/m 3,2 km/h (1 Bft) W-SW 247 1 min 0,000 mm 0,7 UV-I 311 W/m 2,7 C 8,0 C 4,8 km/h (1 Bft) 91,30 %
21.04.2019 08:25 7,9 C 18,3 C 11,7 C 13,3 C 12,8 C 69 % 27 cb 17 cb 21 cb 1023,6 hPa 0,0 l/m 3,2 km/h (1 Bft) W 270 1 min 0,000 mm 0,7 UV-I 309 W/m 2,6 C 7,9 C 4,8 km/h (1 Bft) 91,30 %
21.04.2019 08:24 7,8 C 17,8 C 11,7 C 13,3 C 12,8 C 69 % 27 cb 17 cb 21 cb 1023,6 hPa 0,0 l/m 3,2 km/h (1 Bft) W 270 1 min 0,000 mm 0,7 UV-I 308 W/m 2,5 C 7,8 C 4,8 km/h (1 Bft) 100,00 %
21.04.2019 08:23 7,8 C 17,8 C 11,7 C 13,3 C 12,8 C 70 % 27 cb 17 cb 21 cb 1023,6 hPa 0,0 l/m 3,2 km/h (1 Bft) W-SW 247 1 min 0,000 mm 0,7 UV-I 306 W/m 2,7 C 7,8 C 3,2 km/h (1 Bft) 95,65 %
21.04.2019 08:22 7,8 C 17,2 C 11,7 C 13,3 C 12,8 C 70 % 27 cb 17 cb 21 cb 1023,6 hPa 0,0 l/m 3,2 km/h (1 Bft) W-SW 247 1 min 0,000 mm 0,7 UV-I 302 W/m 2,7 C 7,8 C 4,8 km/h (1 Bft) 91,30 %
21.04.2019 08:21 7,7 C 17,8 C 11,7 C 13,3 C 12,8 C 70 % 27 cb 17 cb 21 cb 1023,6 hPa 0,0 l/m 3,2 km/h (1 Bft) W 270 1 min 0,000 mm 0,7 UV-I 297 W/m 2,6 C 7,7 C 4,8 km/h (1 Bft) 95,65 %
21.04.2019 08:20 7,7 C 17,2 C 11,7 C 13,3 C 12,8 C 71 % 27 cb 17 cb 21 cb 1023,6 hPa 0,0 l/m 3,2 km/h (1 Bft) W 270 1 min 0,000 mm 0,7 UV-I 295 W/m 2,8 C 7,7 C 4,8 km/h (1 Bft) 91,30 %
21.04.2019 08:19 7,6 C 17,8 C 11,7 C 13,3 C 12,8 C 71 % 27 cb 17 cb 21 cb 1023,7 hPa 0,0 l/m 3,2 km/h (1 Bft) W 270 1 min 0,000 mm 0,7 UV-I 294 W/m 2,7 C 7,6 C 4,8 km/h (1 Bft) 95,65 %
21.04.2019 08:18 7,4 C 17,8 C 11,7 C 13,3 C 12,8 C 69 % 27 cb 17 cb 21 cb 1023,6 hPa 0,0 l/m 1,6 km/h (1 Bft) W 270 1 min 0,000 mm 0,7 UV-I 290 W/m 2,1 C 7,4 C 3,2 km/h (1 Bft) 95,65 %
21.04.2019 08:17 7,4 C 17,8 C 11,7 C 13,3 C 12,8 C 69 % 27 cb 17 cb 21 cb 1023,7 hPa 0,0 l/m 3,2 km/h (1 Bft) W-NW 292 1 min 0,000 mm 0,6 UV-I 288 W/m 2,1 C 7,4 C 4,8 km/h (1 Bft) 91,30 %
21.04.2019 08:16 7,3 C 17,8 C 11,7 C 13,3 C 12,8 C 71 % 27 cb 17 cb 21 cb 1023,7 hPa 0,0 l/m 1,6 km/h (1 Bft) W-NW 292 1 min 0,000 mm 0,6 UV-I 285 W/m 2,4 C 7,3 C 1,6 km/h (1 Bft) 95,65 %
21.04.2019 08:15 7,2 C 17,2 C 11,7 C 13,3 C 12,8 C 71 % 27 cb 17 cb 21 cb 1023,6 hPa 0,0 l/m 3,2 km/h (1 Bft) W-NW 292 1 min 0,000 mm 0,6 UV-I 281 W/m 2,3 C 7,2 C 3,2 km/h (1 Bft) 95,65 %
21.04.2019 08:14 7,1 C 17,2 C 11,7 C 13,3 C 12,8 C 70 % 27 cb 17 cb 21 cb 1023,7 hPa 0,0 l/m 1,6 km/h (1 Bft) W 270 1 min 0,000 mm 0,6 UV-I 279 W/m 2,0 C 7,1 C 3,2 km/h (1 Bft) 95,65 %
21.04.2019 08:13 7,1 C 16,7 C 11,7 C 13,3 C 12,8 C 71 % 27 cb 17 cb 21 cb 1023,7 hPa 0,0 l/m 1,6 km/h (1 Bft) W 270 1 min 0,000 mm 0,6 UV-I 276 W/m 2,2 C 7,1 C 3,2 km/h (1 Bft) 91,30 %
21.04.2019 08:12 7,0 C 16,7 C 11,7 C 13,3 C 12,8 C 71 % 27 cb 17 cb 21 cb 1023,7 hPa 0,0 l/m 3,2 km/h (1 Bft) W 270 1 min 0,000 mm 0,6 UV-I 274 W/m 2,1 C 7,0 C 4,8 km/h (1 Bft) 100,00 %
21.04.2019 08:11 7,0 C 17,2 C 11,7 C 13,3 C 12,8 C 72 % 27 cb 17 cb 21 cb 1023,7 hPa 0,0 l/m 3,2 km/h (1 Bft) W-SW 247 1 min 0,000 mm 0,6 UV-I 271 W/m 2,3 C 7,0 C 3,2 km/h (1 Bft) 91,30 %
21.04.2019 08:10 6,9 C 16,7 C 11,7 C 13,3 C 12,8 C 72 % 27 cb 17 cb 21 cb 1023,8 hPa 0,0 l/m 1,6 km/h (1 Bft) W-SW 247 1 min 0,000 mm 0,6 UV-I 267 W/m 2,2 C 6,9 C 3,2 km/h (1 Bft) 95,65 %
21.04.2019 08:09 6,8 C 16,7 C 11,7 C 13,3 C 12,8 C 73 % 27 cb 17 cb 21 cb 1023,7 hPa 0,0 l/m 1,6 km/h (1 Bft) W-SW 247 1 min 0,000 mm 0,6 UV-I 264 W/m 2,3 C 6,8 C 3,2 km/h (1 Bft) 95,65 %
21.04.2019 08:08 6,7 C 16,1 C 11,7 C 13,3 C 12,8 C 73 % 27 cb 17 cb 21 cb 1023,7 hPa 0,0 l/m 3,2 km/h (1 Bft) W-SW 247 1 min 0,000 mm 0,5 UV-I 262 W/m 2,2 C 6,7 C 3,2 km/h (1 Bft) 95,65 %
21.04.2019 08:07 6,7 C 16,1 C 11,7 C 13,3 C 12,8 C 73 % 27 cb 17 cb 21 cb 1023,7 hPa 0,0 l/m 1,6 km/h (1 Bft) W-SW 247 1 min 0,000 mm 0,5 UV-I 258 W/m 2,2 C 6,7 C 3,2 km/h (1 Bft) 91,30 %
21.04.2019 08:06 6,6 C 15,6 C 11,7 C 13,3 C 12,8 C 74 % 26 cb 17 cb 21 cb 1023,7 hPa 0,0 l/m 3,2 km/h (1 Bft) W-SW 247 1 min 0,000 mm 0,5 UV-I 253 W/m 2,3 C 6,6 C 4,8 km/h (1 Bft) 100,00 %
21.04.2019 08:05 6,6 C 15,0 C 11,7 C 13,3 C 12,8 C 74 % 26 cb 17 cb 21 cb 1023,8 hPa 0,0 l/m 4,8 km/h (1 Bft) W-SW 247 1 min 0,000 mm 0,5 UV-I 253 W/m 2,3 C 6,6 C 6,4 km/h (2 Bft) 86,96 %
21.04.2019 08:04 6,5 C 15,0 C 11,7 C 13,3 C 12,8 C 74 % 26 cb 17 cb 21 cb 1023,7 hPa 0,0 l/m 3,2 km/h (1 Bft) SW 225 1 min 0,000 mm 0,5 UV-I 250 W/m 2,2 C 6,5 C 4,8 km/h (1 Bft) 95,65 %
21.04.2019 08:03 6,4 C 14,4 C 11,7 C 13,3 C 12,8 C 75 % 26 cb 17 cb 21 cb 1023,8 hPa 0,0 l/m 3,2 km/h (1 Bft) W-SW 247 1 min 0,000 mm 0,5 UV-I 246 W/m 2,3 C 6,4 C 4,8 km/h (1 Bft) 95,65 %
21.04.2019 08:02 6,4 C 14,4 C 11,7 C 13,3 C 12,8 C 75 % 26 cb 17 cb 21 cb 1023,7 hPa 0,0 l/m 3,2 km/h (1 Bft) W-SW 247 1 min 0,000 mm 0,5 UV-I 243 W/m 2,3 C 6,4 C 4,8 km/h (1 Bft) 95,65 %
21.04.2019 08:01 6,3 C 13,9 C 11,7 C 13,3 C 12,8 C 76 % 26 cb 17 cb 21 cb 1023,7 hPa 0,0 l/m 3,2 km/h (1 Bft) W-SW 247 1 min 0,000 mm 0,5 UV-I 241 W/m 2,4 C 6,3 C 4,8 km/h (1 Bft) 91,30 %
21.04.2019 08:00 6,2 C 13,9 C 11,7 C 13,3 C 12,8 C 75 % 26 cb 17 cb 21 cb 1023,8 hPa 0,0 l/m 1,6 km/h (1 Bft) W-SW 247 1 min 0,051 mm 0,5 UV-I 237 W/m 2,1 C 6,2 C 4,8 km/h (1 Bft) 95,65 %
21.04.2019 07:59 6,2 C 13,3 C 11,7 C 13,3 C 12,8 C 75 % 25 cb 17 cb 21 cb 1023,7 hPa 0,0 l/m 3,2 km/h (1 Bft) W-SW 247 1 min 0,000 mm 0,5 UV-I 236 W/m 2,1 C 6,2 C 4,8 km/h (1 Bft) 95,65 %
21.04.2019 07:58 6,1 C 13,3 C 11,7 C 13,3 C 12,8 C 76 % 25 cb 17 cb 21 cb 1023,7 hPa 0,0 l/m 3,2 km/h (1 Bft) W-SW 247 1 min 0,000 mm 0,5 UV-I 229 W/m 2,2 C 6,1 C 4,8 km/h (1 Bft) 91,30 %
21.04.2019 07:57 6,1 C 12,2 C 11,7 C 13,3 C 12,8 C 77 % 25 cb 17 cb 21 cb 1023,7 hPa 0,0 l/m 3,2 km/h (1 Bft) W 270 1 min 0,000 mm 0,0 UV-I 227 W/m 2,4 C 6,1 C 4,8 km/h (1 Bft) 100,00 %
21.04.2019 07:56 5,9 C 11,1 C 11,7 C 13,3 C 12,8 C 76 % 25 cb 17 cb 21 cb 1023,7 hPa 0,0 l/m 3,2 km/h (1 Bft) W-SW 247 1 min 0,000 mm 0,0 UV-I 223 W/m 2,0 C 5,9 C 4,8 km/h (1 Bft) 86,96 %
21.04.2019 07:55 5,8 C 10,0 C 11,7 C 13,3 C 12,8 C 76 % 24 cb 17 cb 21 cb 1023,7 hPa 0,0 l/m 3,2 km/h (1 Bft) S-SW 202 1 min 0,000 mm 0,0 UV-I 221 W/m 1,9 C 5,8 C 4,8 km/h (1 Bft) 95,65 %
21.04.2019 07:54 5,8 C 8,3 C 11,7 C 13,3 C 12,8 C 77 % 24 cb 17 cb 21 cb 1023,7 hPa 0,0 l/m 1,6 km/h (1 Bft) W 270 1 min 0,000 mm 0,0 UV-I 218 W/m 2,1 C 5,8 C 3,2 km/h (1 Bft) 100,00 %
21.04.2019 07:53 5,7 C 6,7 C 11,7 C 13,3 C 12,8 C 77 % 23 cb 17 cb 21 cb 1023,7 hPa 0,0 l/m 3,2 km/h (1 Bft) W 270 1 min 0,000 mm 0,0 UV-I 216 W/m 2,0 C 5,7 C 3,2 km/h (1 Bft) 91,30 %
21.04.2019 07:52 5,6 C 6,1 C 11,7 C 13,3 C 12,8 C 77 % 23 cb 17 cb 21 cb 1023,8 hPa 0,0 l/m 3,2 km/h (1 Bft) W 270 1 min 0,000 mm 0,0 UV-I 211 W/m 1,9 C 5,6 C 4,8 km/h (1 Bft) 95,65 %
21.04.2019 07:51 5,4 C 5,6 C 11,7 C 13,3 C 12,8 C 77 % 23 cb 17 cb 21 cb 1023,7 hPa 0,0 l/m 3,2 km/h (1 Bft) SW 225 1 min 0,000 mm 0,0 UV-I 207 W/m 1,7 C 5,4 C 4,8 km/h (1 Bft) 100,00 %
21.04.2019 07:50 5,4 C 5,6 C 11,7 C 13,3 C 12,8 C 76 % 23 cb 17 cb 21 cb 1023,8 hPa 0,0 l/m 1,6 km/h (1 Bft) W-SW 247 1 min 0,000 mm 0,0 UV-I 204 W/m 1,5 C 5,4 C 3,2 km/h (1 Bft) 95,65 %
21.04.2019 07:49 5,4 C 5,6 C 11,7 C 13,3 C 12,8 C 77 % 23 cb 17 cb 21 cb 1023,8 hPa 0,0 l/m 3,2 km/h (1 Bft) SW 225 1 min 0,000 mm 0,0 UV-I 202 W/m 1,7 C 5,4 C 4,8 km/h (1 Bft) 95,65 %
21.04.2019 07:48 5,3 C 5,6 C 11,7 C 13,3 C 12,8 C 77 % 23 cb 17 cb 21 cb 1023,7 hPa 0,0 l/m 3,2 km/h (1 Bft) SW 225 1 min 0,000 mm 0,0 UV-I 199 W/m 1,6 C 5,3 C 3,2 km/h (1 Bft) 86,96 %
21.04.2019 07:47 5,3 C 5,6 C 11,7 C 13,3 C 12,8 C 77 % 23 cb 17 cb 21 cb 1023,7 hPa 0,0 l/m 1,6 km/h (1 Bft) SW 225 1 min 0,000 mm 0,0 UV-I 195 W/m 1,6 C 5,3 C 3,2 km/h (1 Bft) 95,65 %
21.04.2019 07:46 5,3 C 5,0 C 11,7 C 13,3 C 12,8 C 77 % 23 cb 17 cb 21 cb 1023,7 hPa 0,0 l/m 1,6 km/h (1 Bft) W-SW 247 1 min 0,000 mm 0,0 UV-I 190 W/m 1,6 C 5,3 C 3,2 km/h (1 Bft) 95,65 %
21.04.2019 07:45 5,3 C 5,0 C 11,7 C 13,3 C 12,8 C 78 % 23 cb 17 cb 21 cb 1023,7 hPa 0,0 l/m 1,6 km/h (1 Bft) W-SW 247 1 min 0,000 mm 0,0 UV-I 188 W/m 1,8 C 5,3 C 3,2 km/h (1 Bft) 95,65 %
21.04.2019 07:44 5,2 C 5,0 C 11,7 C 13,3 C 12,8 C 77 % 23 cb 17 cb 21 cb 1023,8 hPa 0,0 l/m 1,6 km/h (1 Bft) W-SW 247 1 min 0,000 mm 0,0 UV-I 185 W/m 1,5 C 5,2 C 4,8 km/h (1 Bft) 91,30 %
21.04.2019 07:43 5,1 C 5,0 C 11,7 C 13,3 C 12,8 C 77 % 23 cb 17 cb 21 cb 1023,8 hPa 0,0 l/m 1,6 km/h (1 Bft) W-SW 247 1 min 0,000 mm 0,0 UV-I 181 W/m 1,4 C 5,1 C 3,2 km/h (1 Bft) 95,65 %
21.04.2019 07:42 5,1 C 5,0 C 11,7 C 13,3 C 12,8 C 78 % 23 cb 17 cb 21 cb 1023,7 hPa 0,0 l/m 3,2 km/h (1 Bft) W-SW 247 1 min 0,000 mm 0,0 UV-I 178 W/m 1,6 C 5,1 C 4,8 km/h (1 Bft) 100,00 %
21.04.2019 07:41 5,0 C 5,0 C 11,7 C 13,3 C 12,8 C 78 % 23 cb 17 cb 21 cb 1023,8 hPa 0,0 l/m 3,2 km/h (1 Bft) W-SW 247 1 min 0,000 mm 0,0 UV-I 176 W/m 1,5 C 5,0 C 4,8 km/h (1 Bft) 95,65 %
21.04.2019 07:40 5,0 C 4,4 C 11,7 C 13,3 C 12,8 C 78 % 22 cb 17 cb 21 cb 1023,8 hPa 0,0 l/m 3,2 km/h (1 Bft) W-SW 247 1 min 0,000 mm 0,0 UV-I 169 W/m 1,5 C 5,0 C 4,8 km/h (1 Bft) 91,30 %
21.04.2019 07:39 4,9 C 4,4 C 11,7 C 13,3 C 12,8 C 78 % 22 cb 17 cb 21 cb 1023,7 hPa 0,0 l/m 1,6 km/h (1 Bft) W-SW 247 1 min 0,000 mm 0,0 UV-I 167 W/m 1,4 C 4,9 C 3,2 km/h (1 Bft) 95,65 %
21.04.2019 07:38 4,8 C 4,4 C 11,7 C 13,3 C 12,8 C 78 % 22 cb 17 cb 21 cb 1023,8 hPa 0,0 l/m 1,6 km/h (1 Bft) W-SW 247 1 min 0,000 mm 0,0 UV-I 163 W/m 1,3 C 4,8 C 3,2 km/h (1 Bft) 100,00 %
21.04.2019 07:37 4,8 C 4,4 C 12,2 C 13,3 C 12,8 C 78 % 22 cb 17 cb 21 cb 1023,7 hPa 0,0 l/m 1,6 km/h (1 Bft) W-SW 247 1 min 0,000 mm 0,0 UV-I 162 W/m 1,3 C 4,8 C 3,2 km/h (1 Bft) 95,65 %
21.04.2019 07:36 4,7 C 4,4 C 12,2 C 13,3 C 12,8 C 78 % 22 cb 17 cb 21 cb 1023,7 hPa 0,0 l/m 1,6 km/h (1 Bft) W-SW 247 1 min 0,000 mm 0,0 UV-I 158 W/m 1,2 C 4,7 C 3,2 km/h (1 Bft) 95,65 %
21.04.2019 07:35 4,6 C 3,9 C 12,2 C 13,3 C 12,8 C 77 % 22 cb 17 cb 21 cb 1023,7 hPa 0,0 l/m 1,6 km/h (1 Bft) W-SW 247 1 min 0,000 mm 0,0 UV-I 156 W/m 0,9 C 4,6 C 1,6 km/h (1 Bft) 100,00 %
21.04.2019 07:34 4,6 C 3,9 C 12,2 C 13,3 C 12,8 C 78 % 22 cb 17 cb 21 cb 1023,7 hPa 0,0 l/m 1,6 km/h (1 Bft) W-SW 247 0 min 0,000 mm 0,0 UV-I 151 W/m 1,1 C 4,6 C 3,2 km/h (1 Bft) 95,65 %
21.04.2019 07:33 4,6 C 3,9 C 12,2 C 13,3 C 12,8 C 78 % 22 cb 17 cb 21 cb 1023,8 hPa 0,0 l/m 1,6 km/h (1 Bft) W-SW 247 0 min 0,000 mm 0,0 UV-I 148 W/m 1,1 C 4,6 C 3,2 km/h (1 Bft) 95,65 %
21.04.2019 07:32 4,4 C 3,9 C 12,2 C 13,3 C 12,8 C 78 % 22 cb 17 cb 21 cb 1023,7 hPa 0,0 l/m 1,6 km/h (1 Bft) W-SW 247 0 min 0,000 mm 0,0 UV-I 146 W/m 0,9 C 4,4 C 3,2 km/h (1 Bft) 100,00 %
21.04.2019 07:31 4,4 C 3,9 C 12,2 C 13,3 C 12,8 C 78 % 22 cb 17 cb 21 cb 1023,8 hPa 0,0 l/m 1,6 km/h (1 Bft) W-SW 247 0 min 0,000 mm 0,0 UV-I 142 W/m 0,9 C 4,4 C 1,6 km/h (1 Bft) 95,65 %
21.04.2019 07:30 4,3 C 3,9 C 12,2 C 13,3 C 12,8 C 78 % 22 cb 17 cb 21 cb 1023,7 hPa 0,0 l/m 0,0 km/h (0 Bft) W-SW 247 0 min 0,000 mm 0,0 UV-I 141 W/m 0,8 C 4,3 C 1,6 km/h (1 Bft) 95,65 %
21.04.2019 07:29 4,2 C 3,3 C 12,2 C 13,3 C 12,8 C 78 % 22 cb 17 cb 21 cb 1023,8 hPa 0,0 l/m 1,6 km/h (1 Bft) W-SW 247 0 min 0,000 mm 0,0 UV-I 134 W/m 0,7 C 4,2 C 1,6 km/h (1 Bft) 100,00 %
21.04.2019 07:28 4,2 C 3,3 C 12,2 C 13,3 C 12,8 C 79 % 22 cb 17 cb 21 cb 1023,8 hPa 0,0 l/m 1,6 km/h (1 Bft) W-SW 247 0 min 0,000 mm 0,0 UV-I 132 W/m 0,9 C 4,2 C 3,2 km/h (1 Bft) 95,65 %
21.04.2019 07:27 4,1 C 3,3 C 12,2 C 13,3 C 12,8 C 79 % 22 cb 17 cb 21 cb 1023,8 hPa 0,0 l/m 1,6 km/h (1 Bft) W-SW 247 0 min 0,000 mm 0,0 UV-I 128 W/m 0,8 C 4,1 C 3,2 km/h (1 Bft) 95,65 %
21.04.2019 07:26 4,1 C 3,3 C 12,2 C 13,3 C 12,8 C 79 % 22 cb 17 cb 21 cb 1023,7 hPa 0,0 l/m 1,6 km/h (1 Bft) W-SW 247 0 min 0,000 mm 0,0 UV-I 127 W/m 0,8 C 4,1 C 3,2 km/h (1 Bft) 100,00 %
21.04.2019 07:25 3,9 C 3,3 C 12,2 C 13,3 C 12,8 C 79 % 22 cb 17 cb 21 cb 1023,7 hPa 0,0 l/m 1,6 km/h (1 Bft) W-SW 247 0 min 0,000 mm 0,0 UV-I 125 W/m 0,6 C 3,9 C 3,2 km/h (1 Bft) 91,30 %
21.04.2019 07:24 3,9 C 3,3 C 12,2 C 13,3 C 12,8 C 79 % 22 cb 17 cb 21 cb 1023,7 hPa 0,0 l/m 1,6 km/h (1 Bft) W-SW 247 0 min 0,000 mm 0,0 UV-I 121 W/m 0,6 C 3,9 C 3,2 km/h (1 Bft) 91,30 %
21.04.2019 07:23 3,8 C 3,3 C 12,2 C 13,3 C 12,8 C 80 % 22 cb 17 cb 21 cb 1023,7 hPa 0,0 l/m 1,6 km/h (1 Bft) W-SW 247 0 min 0,000 mm 0,0 UV-I 114 W/m 0,7 C 3,8 C 3,2 km/h (1 Bft) 95,65 %
21.04.2019 07:22 3,7 C 2,8 C 12,2 C 13,3 C 12,8 C 80 % 22 cb 17 cb 21 cb 1023,7 hPa 0,0 l/m 1,6 km/h (1 Bft) W-SW 247 0 min 0,000 mm 0,0 UV-I 84 W/m 0,6 C 3,7 C 3,2 km/h (1 Bft) 95,65 %
21.04.2019 07:21 3,7 C 2,8 C 12,2 C 13,3 C 12,8 C 81 % 22 cb 17 cb 21 cb 1023,7 hPa 0,0 l/m 1,6 km/h (1 Bft) W-SW 247 0 min 0,000 mm 0,0 UV-I 51 W/m 0,7 C 3,7 C 3,2 km/h (1 Bft) 95,65 %
21.04.2019 07:20 3,6 C 2,8 C 12,2 C 13,3 C 12,8 C 81 % 22 cb 17 cb 21 cb 1023,7 hPa 0,0 l/m 3,2 km/h (1 Bft) W-SW 247 0 min 0,000 mm 0,0 UV-I 35 W/m 0,7 C 3,6 C 3,2 km/h (1 Bft) 95,65 %
21.04.2019 07:19 3,6 C 2,8 C 12,2 C 13,3 C 12,8 C 81 % 22 cb 17 cb 21 cb 1023,7 hPa 0,0 l/m 3,2 km/h (1 Bft) W-SW 247 0 min 0,000 mm 0,0 UV-I 35 W/m 0,7 C 3,6 C 3,2 km/h (1 Bft) 95,65 %
21.04.2019 07:18 3,5 C 2,8 C 12,2 C 13,3 C 12,8 C 81 % 22 cb 17 cb 21 cb 1023,6 hPa 0,0 l/m 3,2 km/h (1 Bft) W-SW 247 0 min 0,000 mm 0,0 UV-I 35 W/m 0,6 C 3,5 C 3,2 km/h (1 Bft) 91,30 %
21.04.2019 07:17 3,4 C 2,8 C 12,2 C 13,3 C 12,8 C 80 % 22 cb 17 cb 21 cb 1023,7 hPa 0,0 l/m 1,6 km/h (1 Bft) W-SW 247 0 min 0,000 mm 0,0 UV-I 33 W/m 0,3 C 3,4 C 3,2 km/h (1 Bft) 100,00 %
21.04.2019 07:16 3,4 C 2,8 C 12,2 C 13,3 C 12,8 C 80 % 22 cb 17 cb 21 cb 1023,7 hPa 0,0 l/m 1,6 km/h (1 Bft) W-SW 247 0 min 0,000 mm 0,0 UV-I 33 W/m 0,3 C 3,4 C 3,2 km/h (1 Bft) 95,65 %
21.04.2019 07:15 3,3 C 2,8 C 12,2 C 13,3 C 12,8 C 80 % 22 cb 17 cb 21 cb 1023,6 hPa 0,0 l/m 3,2 km/h (1 Bft) W-SW 247 0 min 0,000 mm 0,0 UV-I 33 W/m 0,2 C 3,3 C 4,8 km/h (1 Bft) 95,65 %
21.04.2019 07:14 3,3 C 2,2 C 12,2 C 13,3 C 12,8 C 80 % 22 cb 17 cb 21 cb 1023,6 hPa 0,0 l/m 3,2 km/h (1 Bft) W-SW 247 0 min 0,000 mm 0,0 UV-I 33 W/m 0,2 C 3,3 C 4,8 km/h (1 Bft) 95,65 %
21.04.2019 07:13 3,3 C 2,2 C 12,2 C 13,3 C 12,8 C 80 % 22 cb 17 cb 21 cb 1023,7 hPa 0,0 l/m 3,2 km/h (1 Bft) W 270 0 min 0,000 mm 0,0 UV-I 33 W/m 0,2 C 3,3 C 3,2 km/h (1 Bft) 95,65 %
21.04.2019 07:12 3,2 C 2,2 C 12,2 C 13,3 C 12,8 C 79 % 22 cb 17 cb 21 cb 1023,7 hPa 0,0 l/m 3,2 km/h (1 Bft) W 270 0 min 0,000 mm 0,0 UV-I 33 W/m -0,1 C 3,2 C 4,8 km/h (1 Bft) 95,65 %
21.04.2019 07:11 3,2 C 2,2 C 12,2 C 13,3 C 12,8 C 79 % 22 cb 17 cb 21 cb 1023,7 hPa 0,0 l/m 3,2 km/h (1 Bft) W-NW 292 0 min 0,000 mm 0,0 UV-I 32 W/m -0,1 C 3,2 C 4,8 km/h (1 Bft) 100,00 %
21.04.2019 07:10 3,1 C 2,8 C 12,2 C 13,3 C 12,8 C 79 % 22 cb 17 cb 21 cb 1023,7 hPa 0,0 l/m 1,6 km/h (1 Bft) W-NW 292 0 min 0,000 mm 0,0 UV-I 32 W/m -0,2 C 3,1 C 3,2 km/h (1 Bft) 95,65 %
21.04.2019 07:09 3,0 C 2,8 C 12,2 C 13,3 C 12,8 C 79 % 22 cb 17 cb 21 cb 1023,8 hPa 0,0 l/m 1,6 km/h (1 Bft) W-NW 292 0 min 0,000 mm 0,0 UV-I 32 W/m -0,3 C 3,0 C 3,2 km/h (1 Bft) 95,65 %
21.04.2019 07:08 2,9 C 2,2 C 12,2 C 13,3 C 12,8 C 79 % 22 cb 17 cb 21 cb 1023,8 hPa 0,0 l/m 1,6 km/h (1 Bft) W-NW 292 0 min 0,000 mm 0,0 UV-I 32 W/m -0,4 C 2,9 C 3,2 km/h (1 Bft) 95,65 %
21.04.2019 07:07 2,9 C 2,2 C 12,2 C 13,3 C 12,8 C 79 % 22 cb 17 cb 21 cb 1023,7 hPa 0,0 l/m 0,0 km/h (0 Bft) W-NW 292 0 min 0,000 mm 0,0 UV-I 32 W/m -0,4 C 2,9 C 1,6 km/h (1 Bft) 86,96 %
21.04.2019 07:06 2,8 C 2,2 C 12,2 C 13,3 C 12,8 C 78 % 22 cb 17 cb 21 cb 1023,8 hPa 0,0 l/m 1,6 km/h (1 Bft) W-NW 292 0 min 0,000 mm 0,0 UV-I 32 W/m -0,6 C 2,8 C 3,2 km/h (1 Bft) 95,65 %
21.04.2019 07:05 2,8 C 2,2 C 12,2 C 13,3 C 12,8 C 78 % 22 cb 17 cb 21 cb 1023,8 hPa 0,0 l/m 1,6 km/h (1 Bft) W-NW 292 0 min 0,000 mm 0,0 UV-I 30 W/m -0,6 C 2,8 C 3,2 km/h (1 Bft) 91,30 %
21.04.2019 07:04 2,7 C 2,2 C 12,2 C 13,3 C 12,8 C 78 % 22 cb 17 cb 21 cb 1023,8 hPa 0,0 l/m 1,6 km/h (1 Bft) W-NW 292 0 min 0,000 mm 0,0 UV-I 30 W/m -0,7 C 2,7 C 3,2 km/h (1 Bft) 95,65 %
21.04.2019 07:03 2,7 C 2,2 C 12,2 C 13,3 C 12,8 C 79 % 22 cb 17 cb 21 cb 1023,8 hPa 0,0 l/m 1,6 km/h (1 Bft) W-NW 292 0 min 0,000 mm 0,0 UV-I 30 W/m -0,6 C 2,7 C 3,2 km/h (1 Bft) 91,30 %
21.04.2019 07:02 2,6 C 2,2 C 12,2 C 13,3 C 12,8 C 79 % 22 cb 17 cb 21 cb 1023,8 hPa 0,0 l/m 1,6 km/h (1 Bft) W-NW 292 0 min 0,000 mm 0,0 UV-I 30 W/m -0,7 C 2,6 C 3,2 km/h (1 Bft) 100,00 %
21.04.2019 07:01 2,6 C 2,2 C 12,2 C 13,3 C 12,8 C 79 % 22 cb 17 cb 21 cb 1023,7 hPa 0,0 l/m 1,6 km/h (1 Bft) W-NW 292 0 min 0,000 mm 0,0 UV-I 30 W/m -0,7 C 2,6 C 3,2 km/h (1 Bft) 91,30 %
21.04.2019 07:00 2,5 C 2,2 C 12,2 C 13,3 C 12,8 C 79 % 22 cb 17 cb 21 cb 1023,8 hPa 0,0 l/m 1,6 km/h (1 Bft) W-NW 292 0 min 0,000 mm 0,0 UV-I 30 W/m -0,8 C 2,5 C 3,2 km/h (1 Bft) 95,65 %
21.04.2019 06:59 2,4 C 2,2 C 12,2 C 13,3 C 12,8 C 80 % 22 cb 17 cb 21 cb 1023,8 hPa 0,0 l/m 3,2 km/h (1 Bft) W-NW 292 0 min 0,000 mm 0,0 UV-I 28 W/m -0,7 C 2,4 C 3,2 km/h (1 Bft) 95,65 %
21.04.2019 06:58 2,4 C 1,7 C 12,2 C 13,3 C 12,8 C 80 % 21 cb 17 cb 21 cb 1023,8 hPa 0,0 l/m 3,2 km/h (1 Bft) W-NW 292 0 min 0,000 mm 0,0 UV-I 28 W/m -0,7 C 2,4 C 3,2 km/h (1 Bft) 95,65 %
21.04.2019 06:57 2,3 C 1,7 C 12,2 C 13,9 C 12,8 C 80 % 21 cb 17 cb 21 cb 1023,8 hPa 0,0 l/m 3,2 km/h (1 Bft) W-NW 292 0 min 0,000 mm 0,0 UV-I 28 W/m -0,8 C 2,3 C 4,8 km/h (1 Bft) 86,96 %
21.04.2019 06:56 2,3 C 1,7 C 12,2 C 13,9 C 12,8 C 80 % 21 cb 17 cb 21 cb 1023,8 hPa 0,0 l/m 3,2 km/h (1 Bft) W-NW 292 0 min 0,000 mm 0,0 UV-I 28 W/m -0,8 C 2,3 C 4,8 km/h (1 Bft) 95,65 %
21.04.2019 06:55 2,3 C 1,7 C 12,2 C 13,9 C 12,8 C 80 % 21 cb 17 cb 21 cb 1023,8 hPa 0,0 l/m 3,2 km/h (1 Bft) W-NW 292 0 min 0,000 mm 0,0 UV-I 28 W/m -0,8 C 2,3 C 4,8 km/h (1 Bft) 95,65 %
21.04.2019 06:54 2,2 C 1,7 C 12,2 C 13,9 C 12,8 C 80 % 21 cb 17 cb 21 cb 1023,8 hPa 0,0 l/m 3,2 km/h (1 Bft) W-NW 292 0 min 0,000 mm 0,0 UV-I 26 W/m -0,9 C 2,2 C 3,2 km/h (1 Bft) 86,96 %
21.04.2019 06:53 2,2 C 1,7 C 12,2 C 13,9 C 12,8 C 80 % 21 cb 17 cb 21 cb 1023,8 hPa 0,0 l/m 3,2 km/h (1 Bft) W-NW 292 0 min 0,000 mm 0,0 UV-I 26 W/m -0,9 C 2,2 C 3,2 km/h (1 Bft) 95,65 %
21.04.2019 06:52 2,2 C 1,7 C 12,2 C 13,9 C 12,8 C 80 % 21 cb 17 cb 21 cb 1023,8 hPa 0,0 l/m 3,2 km/h (1 Bft) W-NW 292 0 min 0,000 mm 0,0 UV-I 26 W/m -0,9 C 2,2 C 4,8 km/h (1 Bft) 95,65 %
21.04.2019 06:51 2,2 C 1,1 C 12,2 C 13,9 C 12,8 C 80 % 21 cb 17 cb 21 cb 1023,8 hPa 0,0 l/m 3,2 km/h (1 Bft) W-NW 292 0 min 0,000 mm 0,0 UV-I 26 W/m -0,9 C 2,2 C 4,8 km/h (1 Bft) 91,30 %
21.04.2019 06:50 2,2 C 1,1 C 12,2 C 13,9 C 12,8 C 80 % 21 cb 17 cb 21 cb 1023,8 hPa 0,0 l/m 1,6 km/h (1 Bft) W-NW 292 0 min 0,000 mm 0,0 UV-I 26 W/m -0,9 C 2,2 C 3,2 km/h (1 Bft) 91,30 %
21.04.2019 06:49 2,2 C 1,1 C 12,2 C 13,9 C 12,8 C 80 % 21 cb 17 cb 21 cb 1023,8 hPa 0,0 l/m 1,6 km/h (1 Bft) W-NW 292 0 min 0,000 mm 0,0 UV-I 25 W/m -0,9 C 2,2 C 3,2 km/h (1 Bft) 100,00 %
21.04.2019 06:48 2,2 C 0,6 C 12,2 C 13,9 C 12,8 C 81 % 21 cb 17 cb 21 cb 1023,8 hPa 0,0 l/m 1,6 km/h (1 Bft) W-NW 292 0 min 0,000 mm 0,0 UV-I 25 W/m -0,7 C 2,2 C 3,2 km/h (1 Bft) 86,96 %
21.04.2019 06:47 2,2 C 0,6 C 12,2 C 13,9 C 12,8 C 81 % 21 cb 17 cb 21 cb 1023,8 hPa 0,0 l/m 3,2 km/h (1 Bft) W-NW 292 0 min 0,000 mm 0,0 UV-I 25 W/m -0,7 C 2,2 C 3,2 km/h (1 Bft) 95,65 %
21.04.2019 06:46 2,1 C 0,6 C 12,2 C 13,9 C 12,8 C 82 % 21 cb 17 cb 21 cb 1023,8 hPa 0,0 l/m 1,6 km/h (1 Bft) W-NW 292 0 min 0,000 mm 0,0 UV-I 25 W/m -0,6 C 2,1 C 3,2 km/h (1 Bft) 100,00 %
21.04.2019 06:45 1,9 C 0,6 C 12,2 C 13,9 C 12,8 C 82 % 21 cb 17 cb 21 cb 1023,7 hPa 0,0 l/m 1,6 km/h (1 Bft) W-NW 292 0 min 0,000 mm 0,0 UV-I 23 W/m -0,8 C 1,9 C 3,2 km/h (1 Bft) 95,65 %
21.04.2019 06:44 1,8 C 0,6 C 12,2 C 13,9 C 12,8 C 82 % 21 cb 17 cb 21 cb 1023,8 hPa 0,0 l/m 1,6 km/h (1 Bft) W-NW 292 0 min 0,000 mm 0,0 UV-I 23 W/m -0,9 C 1,8 C 1,6 km/h (1 Bft) 95,65 %
21.04.2019 06:43 1,7 C 0,0 C 12,2 C 13,9 C 12,8 C 82 % 21 cb 17 cb 21 cb 1023,8 hPa 0,0 l/m 1,6 km/h (1 Bft) W-NW 292 0 min 0,000 mm 0,0 UV-I 23 W/m -1,0 C 1,7 C 3,2 km/h (1 Bft) 95,65 %
21.04.2019 06:42 1,6 C 0,0 C 12,2 C 13,9 C 12,8 C 82 % 21 cb 17 cb 21 cb 1023,8 hPa 0,0 l/m 3,2 km/h (1 Bft) W-NW 292 0 min 0,000 mm 0,0 UV-I 23 W/m -1,1 C 1,6 C 3,2 km/h (1 Bft) 91,30 %
21.04.2019 06:41 1,5 C 0,0 C 12,2 C 13,9 C 12,8 C 82 % 21 cb 17 cb 21 cb 1023,8 hPa 0,0 l/m 1,6 km/h (1 Bft) W-NW 292 0 min 0,000 mm 0,0 UV-I 21 W/m -1,2 C 1,5 C 3,2 km/h (1 Bft) 91,30 %
21.04.2019 06:40 1,4 C 0,0 C 12,2 C 13,9 C 12,8 C 82 % 21 cb 17 cb 21 cb 1023,8 hPa 0,0 l/m 0,0 km/h (0 Bft) W-NW 292 0 min 0,000 mm 0,0 UV-I 21 W/m -1,3 C 1,4 C 1,6 km/h (1 Bft) 100,00 %
21.04.2019 06:39 1,4 C 0,0 C 12,2 C 13,9 C 12,8 C 82 % 21 cb 17 cb 21 cb 1023,8 hPa 0,0 l/m 1,6 km/h (1 Bft) W-NW 292 0 min 0,000 mm 0,0 UV-I 21 W/m -1,3 C 1,4 C 1,6 km/h (1 Bft) 95,65 %
21.04.2019 06:38 1,4 C 0,0 C 12,2 C 13,9 C 12,8 C 82 % 21 cb 17 cb 21 cb 1023,8 hPa 0,0 l/m 1,6 km/h (1 Bft) W-NW 292 0 min 0,000 mm 0,0 UV-I 21 W/m -1,3 C 1,4 C 3,2 km/h (1 Bft) 95,65 %
21.04.2019 06:37 1,4 C 0,0 C 12,2 C 13,9 C 12,8 C 82 % 21 cb 17 cb 21 cb 1023,8 hPa 0,0 l/m 1,6 km/h (1 Bft) W-NW 292 0 min 0,000 mm 0,0 UV-I 21 W/m -1,3 C 1,4 C 3,2 km/h (1 Bft) 95,65 %
21.04.2019 06:36 1,3 C 0,0 C 12,2 C 13,9 C 12,8 C 82 % 21 cb 17 cb 21 cb 1023,8 hPa 0,0 l/m 1,6 km/h (1 Bft) W-NW 292 0 min 0,000 mm 0,0 UV-I 19 W/m -1,4 C 1,3 C 1,6 km/h (1 Bft) 95,65 %
21.04.2019 06:35 1,3 C 0,0 C 12,2 C 13,9 C 12,8 C 82 % 21 cb 17 cb 21 cb 1023,8 hPa 0,0 l/m 0,0 km/h (0 Bft) W-NW 292 0 min 0,000 mm 0,0 UV-I 19 W/m -1,4 C 1,3 C 1,6 km/h (1 Bft) 95,65 %
21.04.2019 06:34 1,2 C -0,6 C 12,2 C 13,9 C 12,8 C 82 % 21 cb 17 cb 21 cb 1023,8 hPa 0,0 l/m 0,0 km/h (0 Bft) W-NW 292 0 min 0,000 mm 0,0 UV-I 19 W/m -1,5 C 1,2 C 1,6 km/h (1 Bft) 95,65 %
21.04.2019 06:33 1,2 C -0,6 C 12,2 C 13,9 C 12,8 C 82 % 21 cb 17 cb 21 cb 1023,8 hPa 0,0 l/m 1,6 km/h (1 Bft) W-NW 292 0 min 0,000 mm 0,0 UV-I 19 W/m -1,5 C 1,2 C 1,6 km/h (1 Bft) 95,65 %
21.04.2019 06:32 1,2 C -0,6 C 12,2 C 13,9 C 12,8 C 82 % 21 cb 17 cb 21 cb 1023,8 hPa 0,0 l/m 1,6 km/h (1 Bft) W-NW 292 0 min 0,000 mm 0,0 UV-I 18 W/m -1,5 C 1,2 C 1,6 km/h (1 Bft) 91,30 %
21.04.2019 06:31 1,2 C -0,6 C 12,2 C 13,9 C 12,8 C 82 % 21 cb 17 cb 21 cb 1023,8 hPa 0,0 l/m 1,6 km/h (1 Bft) W-NW 292 0 min 0,000 mm 0,0 UV-I 18 W/m -1,5 C 1,2 C 1,6 km/h (1 Bft) 100,00 %
21.04.2019 06:30 1,1 C -0,6 C 12,2 C 13,9 C 12,8 C 82 % 21 cb 17 cb 21 cb 1023,8 hPa 0,0 l/m 1,6 km/h (1 Bft) W-NW 292 0 min 0,000 mm 0,0 UV-I 18 W/m -1,6 C 1,1 C 3,2 km/h (1 Bft) 95,65 %
21.04.2019 06:29 1,1 C -0,6 C 12,2 C 13,9 C 12,8 C 81 % 21 cb 17 cb 21 cb 1023,8 hPa 0,0 l/m 1,6 km/h (1 Bft) W-NW 292 0 min 0,000 mm 0,0 UV-I 16 W/m -1,8 C 1,1 C 3,2 km/h (1 Bft) 95,65 %
21.04.2019 06:28 1,2 C -0,6 C 12,2 C 13,9 C 12,8 C 81 % 21 cb 17 cb 21 cb 1023,8 hPa 0,0 l/m 1,6 km/h (1 Bft) W-NW 292 0 min 0,000 mm 0,0 UV-I 16 W/m -1,7 C 1,2 C 3,2 km/h (1 Bft) 95,65 %
21.04.2019 06:27 1,2 C -0,6 C 12,2 C 13,9 C 12,8 C 81 % 21 cb 17 cb 21 cb 1023,8 hPa 0,0 l/m 1,6 km/h (1 Bft) W-NW 292 0 min 0,000 mm 0,0 UV-I 16 W/m -1,7 C 1,2 C 3,2 km/h (1 Bft) 91,30 %
21.04.2019 06:26 1,3 C -0,6 C 12,2 C 13,9 C 12,8 C 81 % 21 cb 17 cb 21 cb 1023,8 hPa 0,0 l/m 1,6 km/h (1 Bft) W-NW 292 0 min 0,000 mm 0,0 UV-I 16 W/m -1,6 C 1,3 C 3,2 km/h (1 Bft) 95,65 %
21.04.2019 06:25 1,3 C -0,6 C 12,2 C 13,9 C 12,8 C 81 % 21 cb 17 cb 21 cb 1023,8 hPa 0,0 l/m 1,6 km/h (1 Bft) W-NW 292 0 min 0,000 mm 0,0 UV-I 14 W/m -1,6 C 1,3 C 1,6 km/h (1 Bft) 100,00 %
21.04.2019 06:24 1,3 C -0,6 C 12,2 C 13,9 C 12,8 C 81 % 21 cb 17 cb 21 cb 1023,8 hPa 0,0 l/m 1,6 km/h (1 Bft) W-NW 292 0 min 0,000 mm 0,0 UV-I 14 W/m -1,6 C 1,3 C 3,2 km/h (1 Bft) 95,65 %
21.04.2019 06:23 1,3 C -0,6 C 12,2 C 13,9 C 12,8 C 81 % 21 cb 17 cb 21 cb 1023,8 hPa 0,0 l/m 1,6 km/h (1 Bft) W-NW 292 0 min 0,000 mm 0,0 UV-I 14 W/m -1,6 C 1,3 C 1,6 km/h (1 Bft) 82,61 %
21.04.2019 06:22 1,3 C 0,0 C 12,2 C 13,9 C 12,8 C 81 % 21 cb 17 cb 21 cb 1023,8 hPa 0,0 l/m 0,0 km/h (0 Bft) W-NW 292 0 min 0,000 mm 0,0 UV-I 14 W/m -1,6 C 1,3 C 1,6 km/h (1 Bft) 95,65 %
21.04.2019 06:21 1,2 C 0,0 C 12,2 C 13,9 C 12,8 C 81 % 21 cb 17 cb 21 cb 1023,8 hPa 0,0 l/m 1,6 km/h (1 Bft) W-NW 292 0 min 0,000 mm 0,0 UV-I 12 W/m -1,7 C 1,2 C 1,6 km/h (1 Bft) 95,65 %
21.04.2019 06:20 1,2 C 0,0 C 12,2 C 13,9 C 12,8 C 81 % 21 cb 17 cb 21 cb 1023,8 hPa 0,0 l/m 1,6 km/h (1 Bft) W-NW 292 0 min 0,000 mm 0,0 UV-I 12 W/m -1,7 C 1,2 C 1,6 km/h (1 Bft) 95,65 %
21.04.2019 06:19 1,2 C 0,0 C 12,2 C 13,9 C 12,8 C 81 % 21 cb 17 cb 21 cb 1023,8 hPa 0,0 l/m 1,6 km/h (1 Bft) W-NW 292 0 min 0,000 mm 0,0 UV-I 12 W/m -1,7 C 1,2 C 1,6 km/h (1 Bft) 91,30 %
21.04.2019 06:18 1,1 C 0,0 C 12,2 C 13,9 C 12,8 C 81 % 21 cb 17 cb 21 cb 1023,8 hPa 0,0 l/m 1,6 km/h (1 Bft) W-NW 292 0 min 0,000 mm 0,0 UV-I 11 W/m -1,8 C 1,1 C 3,2 km/h (1 Bft) 95,65 %
21.04.2019 06:17 1,2 C 0,0 C 12,2 C 13,9 C 12,8 C 81 % 21 cb 17 cb 21 cb 1023,8 hPa 0,0 l/m 1,6 km/h (1 Bft) W-NW 292 0 min 0,000 mm 0,0 UV-I 11 W/m -1,7 C 1,2 C 3,2 km/h (1 Bft) 95,65 %
21.04.2019 06:16 1,2 C 0,0 C 12,2 C 13,9 C 12,8 C 80 % 21 cb 17 cb 21 cb 1023,8 hPa 0,0 l/m 1,6 km/h (1 Bft) W-NW 292 0 min 0,000 mm 0,0 UV-I 11 W/m -1,9 C 1,2 C 1,6 km/h (1 Bft) 100,00 %
21.04.2019 06:15 1,2 C 0,0 C 12,2 C 13,9 C 12,8 C 80 % 21 cb 17 cb 21 cb 1023,8 hPa 0,0 l/m 1,6 km/h (1 Bft) W-NW 292 0 min 0,000 mm 0,0 UV-I 11 W/m -1,9 C 1,2 C 3,2 km/h (1 Bft) 95,65 %
21.04.2019 06:14 1,3 C 0,0 C 12,2 C 13,9 C 12,8 C 80 % 21 cb 17 cb 21 cb 1023,7 hPa 0,0 l/m 3,2 km/h (1 Bft) W-NW 292 0 min 0,000 mm 0,0 UV-I 9 W/m -1,8 C 1,3 C 3,2 km/h (1 Bft) 95,65 %
21.04.2019 06:13 1,4 C 0,0 C 12,8 C 13,9 C 12,8 C 80 % 21 cb 17 cb 21 cb 1023,7 hPa 0,0 l/m 3,2 km/h (1 Bft) W-NW 292 0 min 0,000 mm 0,0 UV-I 9 W/m -1,7 C 1,4 C 3,2 km/h (1 Bft) 100,00 %
21.04.2019 06:12 1,5 C 0,0 C 12,8 C 13,9 C 12,8 C 80 % 21 cb 17 cb 21 cb 1023,7 hPa 0,0 l/m 3,2 km/h (1 Bft) W 270 0 min 0,000 mm 0,0 UV-I 9 W/m -1,6 C 1,5 C 3,2 km/h (1 Bft) 91,30 %
21.04.2019 06:11 1,6 C 0,0 C 12,8 C 13,9 C 12,8 C 80 % 21 cb 17 cb 21 cb 1023,8 hPa 0,0 l/m 3,2 km/h (1 Bft) W 270 0 min 0,000 mm 0,0 UV-I 7 W/m -1,5 C 1,6 C 3,2 km/h (1 Bft) 95,65 %
21.04.2019 06:10 1,7 C 0,0 C 12,8 C 13,9 C 12,8 C 80 % 21 cb 17 cb 21 cb 1023,8 hPa 0,0 l/m 3,2 km/h (1 Bft) W 270 0 min 0,000 mm 0,0 UV-I 7 W/m -1,4 C 1,7 C 3,2 km/h (1 Bft) 95,65 %
21.04.2019 06:09 1,7 C 0,0 C 12,8 C 13,9 C 12,8 C 80 % 21 cb 17 cb 21 cb 1023,7 hPa 0,0 l/m 3,2 km/h (1 Bft) W 270 0 min 0,000 mm 0,0 UV-I 7 W/m -1,4 C 1,7 C 4,8 km/h (1 Bft) 95,65 %
21.04.2019 06:08 1,8 C 0,0 C 12,8 C 13,9 C 12,8 C 80 % 21 cb 17 cb 21 cb 1023,7 hPa 0,0 l/m 1,6 km/h (1 Bft) W 270 0 min 0,000 mm 0,0 UV-I 7 W/m -1,3 C 1,8 C 3,2 km/h (1 Bft) 95,65 %
21.04.2019 06:07 1,9 C 0,0 C 12,8 C 13,9 C 12,8 C 80 % 21 cb 17 cb 21 cb 1023,7 hPa 0,0 l/m 1,6 km/h (1 Bft) W 270 0 min 0,000 mm 0,0 UV-I 5 W/m -1,2 C 1,9 C 3,2 km/h (1 Bft) 91,30 %
21.04.2019 06:06 1,9 C 0,0 C 12,8 C 13,9 C 12,8 C 80 % 21 cb 17 cb 21 cb 1023,7 hPa 0,0 l/m 1,6 km/h (1 Bft) W 270 0 min 0,000 mm 0,0 UV-I 5 W/m -1,2 C 1,9 C 3,2 km/h (1 Bft) 95,65 %
21.04.2019 06:05 1,9 C 0,0 C 12,8 C 13,9 C 12,8 C 80 % 21 cb 17 cb 21 cb 1023,7 hPa 0,0 l/m 0,0 km/h (0 Bft) N 0 0 min 0,000 mm 0,0 UV-I 5 W/m -1,2 C 1,9 C 0,0 km/h (0 Bft) 86,96 %
21.04.2019 06:04 1,9 C -0,6 C 12,8 C 13,9 C 12,8 C 80 % 21 cb 17 cb 21 cb 1023,7 hPa 0,0 l/m 0,0 km/h (0 Bft) W 270 0 min 0,000 mm 0,0 UV-I 5 W/m -1,2 C 1,9 C 1,6 km/h (1 Bft) 95,65 %
21.04.2019 06:03 2,0 C -0,6 C 12,8 C 13,9 C 12,8 C 81 % 21 cb 17 cb 21 cb 1023,7 hPa 0,0 l/m 1,6 km/h (1 Bft) W 270 0 min 0,000 mm 0,0 UV-I 5 W/m -0,9 C 2,0 C 1,6 km/h (1 Bft) 91,30 %
21.04.2019 06:02 1,9 C -0,6 C 12,8 C 13,9 C 12,8 C 80 % 21 cb 17 cb 21 cb 1023,7 hPa 0,0 l/m 1,6 km/h (1 Bft) W 270 0 min 0,000 mm 0,0 UV-I 0 W/m -1,2 C 1,9 C 1,6 km/h (1 Bft) 95,65 %
21.04.2019 06:01 1,9 C -0,6 C 12,8 C 13,9 C 12,8 C 80 % 21 cb 17 cb 21 cb 1023,7 hPa 0,0 l/m 0,0 km/h (0 Bft) W 270 0 min 0,000 mm 0,0 UV-I 0 W/m -1,2 C 1,9 C 1,6 km/h (1 Bft) 91,30 %
21.04.2019 06:00 1,9 C -0,6 C 12,8 C 13,9 C 12,8 C 80 % 21 cb 17 cb 21 cb 1023,6 hPa 0,0 l/m 0,0 km/h (0 Bft) W 270 0 min 0,000 mm 0,0 UV-I 0 W/m -1,2 C 1,9 C 1,6 km/h (1 Bft) 91,30 %
21.04.2019 05:59 1,9 C -0,6 C 12,8 C 13,9 C 12,8 C 80 % 21 cb 17 cb 21 cb 1023,7 hPa 0,0 l/m 1,6 km/h (1 Bft) W 270 0 min 0,000 mm 0,0 UV-I 0 W/m -1,2 C 1,9 C 3,2 km/h (1 Bft) 86,96 %
21.04.2019 05:58 2,0 C -0,6 C 12,8 C 13,9 C 12,8 C 80 % 21 cb 17 cb 21 cb 1023,6 hPa 0,0 l/m 3,2 km/h (1 Bft) W 270 0 min 0,000 mm 0,0 UV-I 0 W/m -1,1 C 2,0 C 3,2 km/h (1 Bft) 91,30 %
21.04.2019 05:57 2,0 C -0,6 C 12,8 C 13,9 C 12,8 C 80 % 21 cb 17 cb 21 cb 1023,6 hPa 0,0 l/m 3,2 km/h (1 Bft) W 270 0 min 0,000 mm 0,0 UV-I 0 W/m -1,1 C 2,0 C 4,8 km/h (1 Bft) 95,65 %
21.04.2019 05:56 2,1 C -0,6 C 12,8 C 13,9 C 12,8 C 79 % 21 cb 17 cb 21 cb 1023,6 hPa 0,0 l/m 3,2 km/h (1 Bft) W 270 0 min 0,000 mm 0,0 UV-I 0 W/m -1,2 C 2,1 C 3,2 km/h (1 Bft) 91,30 %
21.04.2019 05:55 2,1 C -0,6 C 12,8 C 13,9 C 12,8 C 79 % 21 cb 17 cb 21 cb 1023,6 hPa 0,0 l/m 4,8 km/h (1 Bft) W 270 0 min 0,000 mm 0,0 UV-I 0 W/m -1,2 C 2,1 C 6,4 km/h (2 Bft) 91,30 %
21.04.2019 05:54 2,1 C -0,6 C 12,8 C 13,9 C 12,8 C 80 % 21 cb 17 cb 21 cb 1023,6 hPa 0,0 l/m 3,2 km/h (1 Bft) W 270 0 min 0,000 mm 0,0 UV-I 0 W/m -1,0 C 2,1 C 4,8 km/h (1 Bft) 95,65 %
21.04.2019 05:53 2,2 C -0,6 C 12,8 C 13,9 C 12,8 C 79 % 21 cb 17 cb 21 cb 1023,6 hPa 0,0 l/m 3,2 km/h (1 Bft) W 270 0 min 0,000 mm 0,0 UV-I 0 W/m -1,1 C 2,2 C 4,8 km/h (1 Bft) 91,30 %
21.04.2019 05:52 2,2 C -0,6 C 12,8 C 13,9 C 12,8 C 79 % 21 cb 17 cb 21 cb 1023,6 hPa 0,0 l/m 3,2 km/h (1 Bft) W 270 0 min 0,000 mm 0,0 UV-I 0 W/m -1,1 C 2,2 C 4,8 km/h (1 Bft) 91,30 %
21.04.2019 05:51 2,2 C -0,6 C 12,8 C 13,9 C 12,8 C 79 % 21 cb 17 cb 21 cb 1023,6 hPa 0,0 l/m 3,2 km/h (1 Bft) W 270 0 min 0,000 mm 0,0 UV-I 0 W/m -1,1 C 2,2 C 4,8 km/h (1 Bft) 100,00 %
21.04.2019 05:50 2,2 C -0,6 C 12,8 C 13,9 C 12,8 C 79 % 21 cb 17 cb 21 cb 1023,5 hPa 0,0 l/m 4,8 km/h (1 Bft) W 270 0 min 0,000 mm 0,0 UV-I 0 W/m -1,1 C 2,2 C 6,4 km/h (2 Bft) 86,96 %
21.04.2019 05:49 2,2 C -0,6 C 12,8 C 13,9 C 12,8 C 80 % 21 cb 17 cb 21 cb 1023,6 hPa 0,0 l/m 3,2 km/h (1 Bft) W 270 0 min 0,000 mm 0,0 UV-I 0 W/m -0,9 C 2,2 C 4,8 km/h (1 Bft) 95,65 %
21.04.2019 05:48 2,2 C -0,6 C 12,8 C 13,9 C 12,8 C 80 % 21 cb 17 cb 21 cb 1023,5 hPa 0,0 l/m 3,2 km/h (1 Bft) W 270 0 min 0,000 mm 0,0 UV-I 0 W/m -0,9 C 2,2 C 4,8 km/h (1 Bft) 86,96 %
21.04.2019 05:47 2,2 C -0,6 C 12,8 C 13,9 C 12,8 C 80 % 21 cb 17 cb 21 cb 1023,7 hPa 0,0 l/m 3,2 km/h (1 Bft) W 270 0 min 0,000 mm 0,0 UV-I 0 W/m -0,9 C 2,2 C 4,8 km/h (1 Bft) 95,65 %
21.04.2019 05:46 2,1 C -0,6 C 12,8 C 13,9 C 12,8 C 80 % 21 cb 17 cb 21 cb 1023,6 hPa 0,0 l/m 3,2 km/h (1 Bft) W 270 0 min 0,000 mm 0,0 UV-I 0 W/m -1,0 C 2,1 C 4,8 km/h (1 Bft) 91,30 %
21.04.2019 05:45 2,1 C -0,6 C 12,8 C 13,9 C 12,8 C 80 % 21 cb 17 cb 21 cb 1023,6 hPa 0,0 l/m 3,2 km/h (1 Bft) W 270 0 min 0,000 mm 0,0 UV-I 0 W/m -1,0 C 2,1 C 4,8 km/h (1 Bft) 100,00 %
21.04.2019 05:44 2,1 C -0,6 C 12,8 C 13,9 C 12,8 C 80 % 21 cb 17 cb 21 cb 1023,6 hPa 0,0 l/m 3,2 km/h (1 Bft) W 270 0 min 0,000 mm 0,0 UV-I 0 W/m -1,0 C 2,1 C 4,8 km/h (1 Bft) 91,30 %
21.04.2019 05:43 2,1 C 0,0 C 12,8 C 13,9 C 12,8 C 79 % 21 cb 17 cb 21 cb 1023,6 hPa 0,0 l/m 3,2 km/h (1 Bft) W 270 0 min 0,000 mm 0,0 UV-I 0 W/m -1,2 C 2,1 C 4,8 km/h (1 Bft) 91,30 %
21.04.2019 05:42 2,1 C 0,0 C 12,8 C 13,9 C 12,8 C 79 % 21 cb 17 cb 21 cb 1023,6 hPa 0,0 l/m 3,2 km/h (1 Bft) W 270 0 min 0,000 mm 0,0 UV-I 0 W/m -1,2 C 2,1 C 4,8 km/h (1 Bft) 91,30 %
21.04.2019 05:41 2,1 C 0,0 C 12,8 C 13,9 C 12,8 C 79 % 21 cb 17 cb 21 cb 1023,5 hPa 0,0 l/m 3,2 km/h (1 Bft) W 270 0 min 0,000 mm 0,0 UV-I 0 W/m -1,2 C 2,1 C 4,8 km/h (1 Bft) 91,30 %
21.04.2019 05:40 2,1 C 0,0 C 12,8 C 13,9 C 12,8 C 80 % 21 cb 17 cb 21 cb 1023,6 hPa 0,0 l/m 3,2 km/h (1 Bft) W 270 0 min 0,000 mm 0,0 UV-I 0 W/m -1,0 C 2,1 C 4,8 km/h (1 Bft) 91,30 %
21.04.2019 05:39 2,0 C 0,0 C 12,8 C 13,9 C 12,8 C 80 % 21 cb 17 cb 21 cb 1023,6 hPa 0,0 l/m 3,2 km/h (1 Bft) W 270 0 min 0,000 mm 0,0 UV-I 0 W/m -1,1 C 2,0 C 4,8 km/h (1 Bft) 95,65 %
21.04.2019 05:38 2,0 C 0,0 C 12,8 C 13,9 C 12,8 C 80 % 21 cb 17 cb 21 cb 1023,5 hPa 0,0 l/m 1,6 km/h (1 Bft) W 270 0 min 0,000 mm 0,0 UV-I 0 W/m -1,1 C 2,0 C 3,2 km/h (1 Bft) 91,30 %
21.04.2019 05:37 2,0 C 0,0 C 12,8 C 13,9 C 12,8 C 80 % 21 cb 17 cb 21 cb 1023,5 hPa 0,0 l/m 1,6 km/h (1 Bft) W 270 0 min 0,000 mm 0,0 UV-I 0 W/m -1,1 C 2,0 C 3,2 km/h (1 Bft) 91,30 %
21.04.2019 05:36 1,9 C 0,0 C 12,8 C 13,9 C 12,8 C 80 % 21 cb 17 cb 21 cb 1023,5 hPa 0,0 l/m 1,6 km/h (1 Bft) W 270 0 min 0,000 mm 0,0 UV-I 0 W/m -1,2 C 1,9 C 3,2 km/h (1 Bft) 100,00 %
21.04.2019 05:35 1,9 C 0,0 C 12,8 C 13,9 C 12,8 C 79 % 21 cb 17 cb 21 cb 1023,6 hPa 0,0 l/m 3,2 km/h (1 Bft) W 270 0 min 0,000 mm 0,0 UV-I 0 W/m -1,3 C 1,9 C 3,2 km/h (1 Bft) 86,96 %
21.04.2019 05:34 1,9 C 0,0 C 12,8 C 13,9 C 12,8 C 80 % 21 cb 17 cb 21 cb 1023,6 hPa 0,0 l/m 3,2 km/h (1 Bft) W 270 0 min 0,000 mm 0,0 UV-I 0 W/m -1,2 C 1,9 C 3,2 km/h (1 Bft) 91,30 %
21.04.2019 05:33 1,8 C 0,0 C 12,8 C 13,9 C 12,8 C 79 % 21 cb 17 cb 21 cb 1023,5 hPa 0,0 l/m 1,6 km/h (1 Bft) W 270 0 min 0,000 mm 0,0 UV-I 0 W/m -1,4 C 1,8 C 3,2 km/h (1 Bft) 86,96 %
21.04.2019 05:32 1,9 C 0,0 C 12,8 C 13,9 C 12,8 C 79 % 21 cb 17 cb 21 cb 1023,5 hPa 0,0 l/m 1,6 km/h (1 Bft) W 270 0 min 0,000 mm 0,0 UV-I 0 W/m -1,3 C 1,9 C 3,2 km/h (1 Bft) 95,65 %
21.04.2019 05:31 1,9 C 0,6 C 12,8 C 13,9 C 12,8 C 79 % 21 cb 17 cb 21 cb 1023,5 hPa 0,0 l/m 1,6 km/h (1 Bft) W 270 0 min 0,000 mm 0,0 UV-I 0 W/m -1,3 C 1,9 C 3,2 km/h (1 Bft) 86,96 %
21.04.2019 05:30 1,8 C 0,6 C 12,8 C 13,9 C 12,8 C 79 % 21 cb 17 cb 21 cb 1023,5 hPa 0,0 l/m 3,2 km/h (1 Bft) W 270 0 min 0,000 mm 0,0 UV-I 0 W/m -1,4 C 1,8 C 3,2 km/h (1 Bft) 91,30 %
21.04.2019 05:29 1,9 C 0,6 C 12,8 C 13,9 C 12,8 C 79 % 21 cb 17 cb 21 cb 1023,5 hPa 0,0 l/m 3,2 km/h (1 Bft) W 270 0 min 0,000 mm 0,0 UV-I 0 W/m -1,3 C 1,9 C 3,2 km/h (1 Bft) 95,65 %
21.04.2019 05:28 1,8 C 0,6 C 12,8 C 13,9 C 12,8 C 79 % 21 cb 17 cb 21 cb 1023,5 hPa 0,0 l/m 1,6 km/h (1 Bft) W 270 0 min 0,000 mm 0,0 UV-I 0 W/m -1,4 C 1,8 C 3,2 km/h (1 Bft) 91,30 %
21.04.2019 05:27 1,8 C 0,6 C 12,8 C 13,9 C 12,8 C 79 % 21 cb 17 cb 21 cb 1023,4 hPa 0,0 l/m 1,6 km/h (1 Bft) W 270 0 min 0,000 mm 0,0 UV-I 0 W/m -1,4 C 1,8 C 3,2 km/h (1 Bft) 95,65 %
21.04.2019 05:26 1,8 C 0,6 C 12,8 C 13,9 C 12,8 C 79 % 21 cb 17 cb 21 cb 1023,4 hPa 0,0 l/m 1,6 km/h (1 Bft) W 270 0 min 0,000 mm 0,0 UV-I 0 W/m -1,4 C 1,8 C 3,2 km/h (1 Bft) 95,65 %
21.04.2019 05:25 1,9 C 0,6 C 12,8 C 13,9 C 12,8 C 79 % 21 cb 17 cb 21 cb 1023,5 hPa 0,0 l/m 1,6 km/h (1 Bft) W 270 0 min 0,000 mm 0,0 UV-I 0 W/m -1,3 C 1,9 C 3,2 km/h (1 Bft) 91,30 %
21.04.2019 05:24 1,9 C 0,6 C 12,8 C 13,9 C 12,8 C 79 % 21 cb 17 cb 21 cb 1023,5 hPa 0,0 l/m 3,2 km/h (1 Bft) W 270 0 min 0,000 mm 0,0 UV-I 0 W/m -1,3 C 1,9 C 3,2 km/h (1 Bft) 91,30 %
21.04.2019 05:23 2,0 C 0,6 C 12,8 C 13,9 C 12,8 C 78 % 21 cb 17 cb 21 cb 1023,4 hPa 0,0 l/m 3,2 km/h (1 Bft) W 270 0 min 0,000 mm 0,0 UV-I 0 W/m -1,4 C 2,0 C 3,2 km/h (1 Bft) 100,00 %
21.04.2019 05:22 2,1 C 0,6 C 12,8 C 13,9 C 12,8 C 78 % 21 cb 17 cb 21 cb 1023,5 hPa 0,0 l/m 3,2 km/h (1 Bft) W 270 0 min 0,000 mm 0,0 UV-I 0 W/m -1,3 C 2,1 C 3,2 km/h (1 Bft) 91,30 %
21.04.2019 05:21 2,1 C 0,6 C 12,8 C 13,9 C 12,8 C 78 % 21 cb 17 cb 21 cb 1023,5 hPa 0,0 l/m 3,2 km/h (1 Bft) W 270 0 min 0,000 mm 0,0 UV-I 0 W/m -1,3 C 2,1 C 4,8 km/h (1 Bft) 91,30 %
21.04.2019 05:20 2,2 C 0,6 C 12,8 C 13,9 C 12,8 C 78 % 21 cb 17 cb 21 cb 1023,5 hPa 0,0 l/m 3,2 km/h (1 Bft) W 270 0 min 0,000 mm 0,0 UV-I 0 W/m -1,2 C 2,2 C 3,2 km/h (1 Bft) 95,65 %
21.04.2019 05:19 2,3 C 0,0 C 12,8 C 13,9 C 12,8 C 77 % 21 cb 17 cb 21 cb 1023,6 hPa 0,0 l/m 1,6 km/h (1 Bft) W 270 0 min 0,000 mm 0,0 UV-I 0 W/m -1,3 C 2,3 C 3,2 km/h (1 Bft) 86,96 %
21.04.2019 05:18 2,4 C 0,0 C 12,8 C 13,9 C 12,8 C 77 % 21 cb 17 cb 21 cb 1023,6 hPa 0,0 l/m 3,2 km/h (1 Bft) W 270 0 min 0,000 mm 0,0 UV-I 0 W/m -1,2 C 2,4 C 3,2 km/h (1 Bft) 95,65 %
21.04.2019 05:17 2,6 C 0,0 C 12,8 C 13,9 C 12,8 C 77 % 21 cb 17 cb 21 cb 1023,6 hPa 0,0 l/m 1,6 km/h (1 Bft) W 270 0 min 0,000 mm 0,0 UV-I 0 W/m -1,0 C 2,6 C 3,2 km/h (1 Bft) 95,65 %
21.04.2019 05:16 2,7 C 0,0 C 12,8 C 13,9 C 12,8 C 77 % 21 cb 17 cb 21 cb 1023,6 hPa 0,0 l/m 1,6 km/h (1 Bft) W 270 0 min 0,000 mm 0,0 UV-I 0 W/m -0,9 C 2,7 C 3,2 km/h (1 Bft) 95,65 %
21.04.2019 05:15 2,8 C 0,0 C 12,8 C 13,9 C 12,8 C 77 % 21 cb 17 cb 21 cb 1023,5 hPa 0,0 l/m 1,6 km/h (1 Bft) W 270 0 min 0,000 mm 0,0 UV-I 0 W/m -0,8 C 2,8 C 1,6 km/h (1 Bft) 91,30 %
21.04.2019 05:14 2,8 C 0,0 C 12,8 C 13,9 C 12,8 C 78 % 21 cb 17 cb 21 cb 1023,6 hPa 0,0 l/m 1,6 km/h (1 Bft) W 270 0 min 0,000 mm 0,0 UV-I 0 W/m -0,6 C 2,8 C 3,2 km/h (1 Bft) 100,00 %
21.04.2019 05:13 2,9 C -0,6 C 12,8 C 13,9 C 12,8 C 78 % 20 cb 17 cb 21 cb 1023,6 hPa 0,0 l/m 1,6 km/h (1 Bft) W 270 0 min 0,000 mm 0,0 UV-I 0 W/m -0,5 C 2,9 C 3,2 km/h (1 Bft) 91,30 %
21.04.2019 05:12 2,9 C -0,6 C 12,8 C 13,9 C 12,8 C 79 % 20 cb 17 cb 21 cb 1023,6 hPa 0,0 l/m 0,0 km/h (0 Bft) W 270 0 min 0,000 mm 0,0 UV-I 0 W/m -0,4 C 2,9 C 1,6 km/h (1 Bft) 95,65 %
21.04.2019 05:11 2,9 C -0,6 C 12,8 C 13,9 C 12,8 C 79 % 20 cb 17 cb 21 cb 1023,6 hPa 0,0 l/m 0,0 km/h (0 Bft) W 270 0 min 0,000 mm 0,0 UV-I 0 W/m -0,4 C 2,9 C 1,6 km/h (1 Bft) 95,65 %
21.04.2019 05:10 2,9 C -0,6 C 12,8 C 13,9 C 12,8 C 79 % 20 cb 17 cb 21 cb 1023,5 hPa 0,0 l/m 1,6 km/h (1 Bft) W 270 0 min 0,000 mm 0,0 UV-I 0 W/m -0,4 C 2,9 C 3,2 km/h (1 Bft) 95,65 %
21.04.2019 05:09 2,8 C -0,6 C 12,8 C 13,9 C 12,8 C 79 % 20 cb 17 cb 21 cb 1023,5 hPa 0,0 l/m 3,2 km/h (1 Bft) W 270 0 min 0,000 mm 0,0 UV-I 0 W/m -0,5 C 2,8 C 3,2 km/h (1 Bft) 91,30 %
21.04.2019 05:08 2,8 C -0,6 C 12,8 C 13,9 C 12,8 C 79 % 20 cb 17 cb 21 cb 1023,5 hPa 0,0 l/m 3,2 km/h (1 Bft) W 270 0 min 0,000 mm 0,0 UV-I 0 W/m -0,5 C 2,8 C 4,8 km/h (1 Bft) 95,65 %
21.04.2019 05:07 2,7 C -1,1 C 12,8 C 13,9 C 12,8 C 79 % 20 cb 17 cb 21 cb 1023,5 hPa 0,0 l/m 3,2 km/h (1 Bft) W-SW 247 0 min 0,000 mm 0,0 UV-I 0 W/m -0,6 C 2,7 C 4,8 km/h (1 Bft) 91,30 %
21.04.2019 05:06 2,7 C -1,1 C 12,8 C 13,9 C 12,8 C 78 % 20 cb 17 cb 21 cb 1023,6 hPa 0,0 l/m 4,8 km/h (1 Bft) W-SW 247 0 min 0,000 mm 0,0 UV-I 0 W/m -0,7 C 2,7 C 6,4 km/h (2 Bft) 91,30 %
21.04.2019 05:05 2,7 C -1,1 C 12,8 C 13,9 C 12,8 C 78 % 20 cb 17 cb 21 cb 1023,5 hPa 0,0 l/m 3,2 km/h (1 Bft) W-SW 247 0 min 0,000 mm 0,0 UV-I 0 W/m -0,7 C 2,7 C 4,8 km/h (1 Bft) 100,00 %
21.04.2019 05:04 2,7 C -1,1 C 12,8 C 13,9 C 12,8 C 78 % 20 cb 17 cb 21 cb 1023,5 hPa 0,0 l/m 3,2 km/h (1 Bft) W-SW 247 0 min 0,000 mm 0,0 UV-I 0 W/m -0,7 C 2,7 C 4,8 km/h (1 Bft) 91,30 %
21.04.2019 05:03 2,7 C -0,6 C 12,8 C 13,9 C 12,8 C 78 % 20 cb 17 cb 21 cb 1023,5 hPa 0,0 l/m 3,2 km/h (1 Bft) W-SW 247 0 min 0,000 mm 0,0 UV-I 0 W/m -0,7 C 2,7 C 4,8 km/h (1 Bft) 95,65 %
21.04.2019 05:02 2,8 C -0,6 C 12,8 C 13,9 C 12,8 C 77 % 20 cb 17 cb 21 cb 1023,4 hPa 0,0 l/m 4,8 km/h (1 Bft) W-SW 247 0 min 0,000 mm 0,0 UV-I 0 W/m -0,8 C 2,8 C 4,8 km/h (1 Bft) 95,65 %
21.04.2019 05:01 2,8 C -0,6 C 12,8 C 13,9 C 12,8 C 77 % 20 cb 17 cb 21 cb 1023,5 hPa 0,0 l/m 3,2 km/h (1 Bft) W-SW 247 0 min 0,000 mm 0,0 UV-I 0 W/m -0,8 C 2,8 C 4,8 km/h (1 Bft) 95,65 %
21.04.2019 05:00 2,9 C -0,6 C 12,8 C 13,9 C 12,8 C 77 % 20 cb 17 cb 21 cb 1023,5 hPa 0,0 l/m 3,2 km/h (1 Bft) W-SW 247 0 min 0,025 mm 0,0 UV-I 0 W/m -0,7 C 2,9 C 4,8 km/h (1 Bft) 91,30 %
21.04.2019 04:59 3,0 C -0,6 C 12,8 C 13,9 C 12,8 C 77 % 20 cb 17 cb 21 cb 1023,5 hPa 0,0 l/m 3,2 km/h (1 Bft) W-SW 247 0 min 0,000 mm 0,0 UV-I 0 W/m -0,6 C 3,0 C 4,8 km/h (1 Bft) 100,00 %
21.04.2019 04:58 3,1 C -0,6 C 12,8 C 13,9 C 12,8 C 77 % 20 cb 17 cb 21 cb 1023,5 hPa 0,0 l/m 3,2 km/h (1 Bft) W-SW 247 0 min 0,000 mm 0,0 UV-I 0 W/m -0,5 C 3,1 C 4,8 km/h (1 Bft) 91,30 %
21.04.2019 04:57 3,1 C -0,6 C 12,8 C 13,9 C 12,8 C 76 % 20 cb 17 cb 21 cb 1023,5 hPa 0,0 l/m 3,2 km/h (1 Bft) W-SW 247 0 min 0,000 mm 0,0 UV-I 0 W/m -0,7 C 3,1 C 4,8 km/h (1 Bft) 95,65 %
21.04.2019 04:56 3,2 C 0,0 C 12,8 C 13,9 C 12,8 C 76 % 20 cb 17 cb 21 cb 1023,5 hPa 0,0 l/m 3,2 km/h (1 Bft) W-SW 247 0 min 0,000 mm 0,0 UV-I 0 W/m -0,6 C 3,2 C 4,8 km/h (1 Bft) 91,30 %
21.04.2019 04:55 3,2 C 0,0 C 12,8 C 13,9 C 12,8 C 76 % 20 cb 17 cb 21 cb 1023,5 hPa 0,0 l/m 1,6 km/h (1 Bft) W-SW 247 0 min 0,000 mm 0,0 UV-I 0 W/m -0,6 C 3,2 C 3,2 km/h (1 Bft) 91,30 %
21.04.2019 04:54 3,2 C 0,6 C 12,8 C 13,9 C 12,8 C 76 % 21 cb 17 cb 21 cb 1023,5 hPa 0,0 l/m 1,6 km/h (1 Bft) W-SW 247 0 min 0,000 mm 0,0 UV-I 0 W/m -0,6 C 3,2 C 3,2 km/h (1 Bft) 95,65 %
21.04.2019 04:53 3,2 C 0,6 C 12,8 C 13,9 C 12,8 C 76 % 21 cb 17 cb 21 cb 1023,6 hPa 0,0 l/m 1,6 km/h (1 Bft) W-SW 247 0 min 0,000 mm 0,0 UV-I 0 W/m -0,6 C 3,2 C 3,2 km/h (1 Bft) 95,65 %
21.04.2019 04:52 3,2 C 0,6 C 12,8 C 13,9 C 12,8 C 76 % 21 cb 17 cb 21 cb 1023,6 hPa 0,0 l/m 1,6 km/h (1 Bft) W-SW 247 0 min 0,000 mm 0,0 UV-I 0 W/m -0,6 C 3,2 C 3,2 km/h (1 Bft) 95,65 %
21.04.2019 04:51 3,2 C 1,1 C 13,3 C 13,9 C 12,8 C 77 % 21 cb 17 cb 21 cb 1023,6 hPa 0,0 l/m 1,6 km/h (1 Bft) W-SW 247 0 min 0,000 mm 0,0 UV-I 0 W/m -0,4 C 3,2 C 3,2 km/h (1 Bft) 91,30 %
21.04.2019 04:50 3,2 C 1,1 C 13,3 C 13,9 C 12,8 C 77 % 21 cb 17 cb 21 cb 1023,6 hPa 0,0 l/m 3,2 km/h (1 Bft) W-SW 247 0 min 0,000 mm 0,0 UV-I 0 W/m -0,4 C 3,2 C 3,2 km/h (1 Bft) 100,00 %
21.04.2019 04:49 3,2 C 1,1 C 13,3 C 13,9 C 12,8 C 77 % 21 cb 17 cb 21 cb 1023,6 hPa 0,0 l/m 1,6 km/h (1 Bft) W-SW 247 0 min 0,000 mm 0,0 UV-I 0 W/m -0,4 C 3,2 C 3,2 km/h (1 Bft) 91,30 %
21.04.2019 04:48 3,1 C 1,1 C 13,3 C 13,9 C 12,8 C 76 % 21 cb 17 cb 21 cb 1023,6 hPa 0,0 l/m 1,6 km/h (1 Bft) W-SW 247 0 min 0,000 mm 0,0 UV-I 0 W/m -0,7 C 3,1 C 3,2 km/h (1 Bft) 95,65 %
21.04.2019 04:47 3,1 C 1,1 C 13,3 C 14,4 C 12,8 C 76 % 21 cb 17 cb 21 cb 1023,6 hPa 0,0 l/m 3,2 km/h (1 Bft) W-SW 247 0 min 0,000 mm 0,0 UV-I 0 W/m -0,7 C 3,1 C 3,2 km/h (1 Bft) 91,30 %
21.04.2019 04:46 3,1 C 1,1 C 13,3 C 14,4 C 12,8 C 76 % 21 cb 17 cb 21 cb 1023,6 hPa 0,0 l/m 3,2 km/h (1 Bft) W-SW 247 0 min 0,000 mm 0,0 UV-I 0 W/m -0,7 C 3,1 C 4,8 km/h (1 Bft) 95,65 %
21.04.2019 04:45 3,1 C 1,1 C 13,3 C 14,4 C 12,8 C 75 % 21 cb 17 cb 21 cb 1023,6 hPa 0,0 l/m 3,2 km/h (1 Bft) W-SW 247 0 min 0,000 mm 0,0 UV-I 0 W/m -0,9 C 3,1 C 4,8 km/h (1 Bft) 91,30 %
21.04.2019 04:44 3,2 C 1,1 C 13,3 C 14,4 C 12,8 C 75 % 21 cb 17 cb 21 cb 1023,6 hPa 0,0 l/m 3,2 km/h (1 Bft) W-SW 247 0 min 0,000 mm 0,0 UV-I 0 W/m -0,8 C 3,2 C 4,8 km/h (1 Bft) 95,65 %
21.04.2019 04:43 3,3 C 1,1 C 13,3 C 14,4 C 12,8 C 74 % 21 cb 17 cb 21 cb 1023,7 hPa 0,0 l/m 3,2 km/h (1 Bft) W-SW 247 0 min 0,000 mm 0,0 UV-I 0 W/m -0,9 C 3,3 C 3,2 km/h (1 Bft) 86,96 %
21.04.2019 04:42 3,4 C 0,6 C 13,3 C 14,4 C 12,8 C 75 % 21 cb 17 cb 21 cb 1023,6 hPa 0,0 l/m 1,6 km/h (1 Bft) W-SW 247 0 min 0,000 mm 0,0 UV-I 0 W/m -0,6 C 3,4 C 3,2 km/h (1 Bft) 91,30 %
21.04.2019 04:41 3,4 C 0,6 C 13,3 C 14,4 C 12,8 C 75 % 20 cb 17 cb 21 cb 1023,7 hPa 0,0 l/m 0,0 km/h (0 Bft) W-SW 247 0 min 0,000 mm 0,0 UV-I 0 W/m -0,6 C 3,4 C 1,6 km/h (1 Bft) 95,65 %
21.04.2019 04:40 3,6 C 0,6 C 13,3 C 14,4 C 12,8 C 75 % 20 cb 17 cb 21 cb 1023,6 hPa 0,0 l/m 0,0 km/h (0 Bft) W-SW 247 0 min 0,000 mm 0,0 UV-I 0 W/m -0,4 C 3,6 C 1,6 km/h (1 Bft) 95,65 %
21.04.2019 04:39 3,6 C 0,6 C 13,3 C 14,4 C 12,8 C 75 % 20 cb 17 cb 21 cb 1023,6 hPa 0,0 l/m 1,6 km/h (1 Bft) W-SW 247 0 min 0,000 mm 0,0 UV-I 0 W/m -0,4 C 3,6 C 3,2 km/h (1 Bft) 95,65 %
21.04.2019 04:38 3,7 C 0,0 C 13,3 C 14,4 C 12,8 C 75 % 20 cb 17 cb 21 cb 1023,6 hPa 0,0 l/m 1,6 km/h (1 Bft) W-SW 247 0 min 0,000 mm 0,0 UV-I 0 W/m -0,3 C 3,7 C 3,2 km/h (1 Bft) 91,30 %
21.04.2019 04:37 3,7 C 0,0 C 13,3 C 14,4 C 12,8 C 75 % 20 cb 17 cb 21 cb 1023,6 hPa 0,0 l/m 1,6 km/h (1 Bft) W-SW 247 0 min 0,000 mm 0,0 UV-I 0 W/m -0,3 C 3,7 C 3,2 km/h (1 Bft) 100,00 %
21.04.2019 04:36 3,8 C 0,0 C 13,3 C 14,4 C 12,8 C 75 % 20 cb 17 cb 21 cb 1023,6 hPa 0,0 l/m 1,6 km/h (1 Bft) W-SW 247 0 min 0,000 mm 0,0 UV-I 0 W/m -0,2 C 3,8 C 3,2 km/h (1 Bft) 91,30 %
21.04.2019 04:35 3,8 C 0,0 C 13,3 C 14,4 C 12,8 C 75 % 20 cb 17 cb 21 cb 1023,6 hPa 0,0 l/m 3,2 km/h (1 Bft) W-SW 247 0 min 0,000 mm 0,0 UV-I 0 W/m -0,2 C 3,8 C 3,2 km/h (1 Bft) 95,65 %
21.04.2019 04:34 3,8 C 0,0 C 13,3 C 14,4 C 12,8 C 75 % 20 cb 17 cb 21 cb 1023,7 hPa 0,0 l/m 3,2 km/h (1 Bft) W 270 0 min 0,000 mm 0,0 UV-I 0 W/m -0,2 C 3,8 C 4,8 km/h (1 Bft) 91,30 %
21.04.2019 04:33 3,8 C 0,0 C 13,3 C 14,4 C 12,8 C 75 % 20 cb 17 cb 21 cb 1023,7 hPa 0,0 l/m 3,2 km/h (1 Bft) W 270 0 min 0,000 mm 0,0 UV-I 0 W/m -0,2 C 3,8 C 4,8 km/h (1 Bft) 86,96 %
21.04.2019 04:32 3,8 C 0,0 C 13,3 C 14,4 C 12,8 C 75 % 20 cb 17 cb 21 cb 1023,6 hPa 0,0 l/m 4,8 km/h (1 Bft) W 270 0 min 0,000 mm 0,0 UV-I 0 W/m -0,2 C 3,8 C 6,4 km/h (2 Bft) 95,65 %
21.04.2019 04:31 3,8 C 0,0 C 13,3 C 14,4 C 12,8 C 75 % 20 cb 17 cb 21 cb 1023,7 hPa 0,0 l/m 4,8 km/h (1 Bft) W-SW 247 0 min 0,000 mm 0,0 UV-I 0 W/m -0,2 C 3,8 C 6,4 km/h (2 Bft) 91,30 %
21.04.2019 04:30 3,8 C 0,0 C 13,3 C 14,4 C 12,8 C 75 % 20 cb 17 cb 21 cb 1023,7 hPa 0,0 l/m 3,2 km/h (1 Bft) W-SW 247 0 min 0,000 mm 0,0 UV-I 0 W/m -0,2 C 3,8 C 4,8 km/h (1 Bft) 95,65 %
21.04.2019 04:29 3,8 C 0,6 C 13,3 C 14,4 C 12,8 C 75 % 20 cb 17 cb 21 cb 1023,7 hPa 0,0 l/m 3,2 km/h (1 Bft) W-SW 247 0 min 0,000 mm 0,0 UV-I 0 W/m -0,2 C 3,8 C 4,8 km/h (1 Bft) 86,96 %
21.04.2019 04:28 3,9 C 0,0 C 13,3 C 14,4 C 12,8 C 75 % 20 cb 17 cb 21 cb 1023,8 hPa 0,0 l/m 4,8 km/h (1 Bft) W-SW 247 0 min 0,000 mm 0,0 UV-I 0 W/m -0,1 C 3,9 C 4,8 km/h (1 Bft) 100,00 %
21.04.2019 04:27 3,9 C 0,0 C 13,3 C 14,4 C 12,8 C 75 % 20 cb 17 cb 21 cb 1023,7 hPa 0,0 l/m 4,8 km/h (1 Bft) W 270 0 min 0,000 mm 0,0 UV-I 0 W/m -0,1 C 3,9 C 4,8 km/h (1 Bft) 86,96 %
21.04.2019 04:26 3,9 C 0,0 C 13,3 C 14,4 C 12,8 C 75 % 20 cb 17 cb 21 cb 1023,7 hPa 0,0 l/m 3,2 km/h (1 Bft) W-SW 247 0 min 0,000 mm 0,0 UV-I 0 W/m -0,1 C 3,9 C 4,8 km/h (1 Bft) 95,65 %
21.04.2019 04:25 3,9 C 0,0 C 13,3 C 14,4 C 12,8 C 75 % 20 cb 17 cb 21 cb 1023,7 hPa 0,0 l/m 3,2 km/h (1 Bft) W-SW 247 0 min 0,000 mm 0,0 UV-I 0 W/m -0,1 C 3,9 C 4,8 km/h (1 Bft) 91,30 %
21.04.2019 04:24 3,9 C 0,0 C 13,3 C 14,4 C 12,8 C 75 % 20 cb 17 cb 21 cb 1023,7 hPa 0,0 l/m 3,2 km/h (1 Bft) W-SW 247 0 min 0,000 mm 0,0 UV-I 0 W/m -0,1 C 3,9 C 4,8 km/h (1 Bft) 91,30 %
21.04.2019 04:23 3,9 C 0,0 C 13,3 C 14,4 C 12,8 C 75 % 20 cb 17 cb 21 cb 1023,7 hPa 0,0 l/m 4,8 km/h (1 Bft) W-SW 247 0 min 0,000 mm 0,0 UV-I 0 W/m -0,1 C 3,9 C 4,8 km/h (1 Bft) 86,96 %
21.04.2019 04:22 3,9 C 0,0 C 13,3 C 14,4 C 12,8 C 75 % 20 cb 17 cb 21 cb 1023,7 hPa 0,0 l/m 3,2 km/h (1 Bft) W 270 0 min 0,000 mm 0,0 UV-I 0 W/m -0,1 C 3,9 C 4,8 km/h (1 Bft) 95,65 %
21.04.2019 04:21 3,9 C 0,6 C 13,3 C 14,4 C 12,8 C 75 % 20 cb 17 cb 21 cb 1023,7 hPa 0,0 l/m 3,2 km/h (1 Bft) W 270 0 min 0,000 mm 0,0 UV-I 0 W/m -0,1 C 3,9 C 6,4 km/h (2 Bft) 91,30 %
21.04.2019 04:20 3,8 C 0,6 C 13,3 C 14,4 C 12,8 C 75 % 20 cb 17 cb 21 cb 1023,8 hPa 0,0 l/m 3,2 km/h (1 Bft) W 270 0 min 0,000 mm 0,0 UV-I 0 W/m -0,2 C 3,8 C 4,8 km/h (1 Bft) 91,30 %
21.04.2019 04:19 3,9 C 0,6 C 13,3 C 14,4 C 12,8 C 75 % 20 cb 17 cb 21 cb 1023,7 hPa 0,0 l/m 3,2 km/h (1 Bft) W 270 0 min 0,000 mm 0,0 UV-I 0 W/m -0,1 C 3,9 C 4,8 km/h (1 Bft) 91,30 %
21.04.2019 04:18 3,8 C 0,6 C 13,3 C 14,4 C 12,8 C 76 % 20 cb 17 cb 21 cb 1023,8 hPa 0,0 l/m 3,2 km/h (1 Bft) W 270 0 min 0,000 mm 0,0 UV-I 0 W/m -0,0 C 3,8 C 4,8 km/h (1 Bft) 91,30 %
21.04.2019 04:17 3,8 C 0,6 C 13,3 C 14,4 C 12,8 C 76 % 20 cb 17 cb 21 cb 1023,8 hPa 0,0 l/m 3,2 km/h (1 Bft) W 270 0 min 0,000 mm 0,0 UV-I 0 W/m -0,0 C 3,8 C 4,8 km/h (1 Bft) 86,96 %
21.04.2019 04:16 3,7 C 0,6 C 13,3 C 14,4 C 12,8 C 75 % 20 cb 17 cb 21 cb 1023,8 hPa 0,0 l/m 4,8 km/h (1 Bft) W 270 0 min 0,000 mm 0,0 UV-I 0 W/m -0,3 C 3,7 C 6,4 km/h (2 Bft) 86,96 %
21.04.2019 04:15 3,7 C 0,6 C 13,3 C 14,4 C 12,8 C 75 % 20 cb 17 cb 21 cb 1023,7 hPa 0,0 l/m 4,8 km/h (1 Bft) W 270 0 min 0,000 mm 0,0 UV-I 0 W/m -0,3 C 3,7 C 6,4 km/h (2 Bft) 95,65 %
21.04.2019 04:14 3,7 C 0,6 C 13,3 C 14,4 C 12,8 C 75 % 20 cb 17 cb 21 cb 1023,8 hPa 0,0 l/m 4,8 km/h (1 Bft) W-SW 247 0 min 0,000 mm 0,0 UV-I 0 W/m -0,3 C 3,7 C 6,4 km/h (2 Bft) 82,61 %
21.04.2019 04:13 3,7 C 0,6 C 13,3 C 14,4 C 12,8 C 75 % 20 cb 17 cb 21 cb 1023,7 hPa 0,0 l/m 4,8 km/h (1 Bft) W 270 0 min 0,000 mm 0,0 UV-I 0 W/m -0,3 C 3,7 C 4,8 km/h (1 Bft) 100,00 %
21.04.2019 04:12 3,7 C 0,6 C 13,3 C 14,4 C 12,8 C 75 % 20 cb 17 cb 21 cb 1023,8 hPa 0,0 l/m 4,8 km/h (1 Bft) W-SW 247 0 min 0,000 mm 0,0 UV-I 0 W/m -0,3 C 3,7 C 6,4 km/h (2 Bft) 86,96 %
21.04.2019 04:11 3,7 C 0,6 C 13,3 C 14,4 C 12,8 C 74 % 20 cb 17 cb 21 cb 1023,8 hPa 0,0 l/m 4,8 km/h (1 Bft) W-SW 247 0 min 0,000 mm 0,0 UV-I 0 W/m -0,5 C 3,7 C 6,4 km/h (2 Bft) 91,30 %
21.04.2019 04:10 3,8 C 0,6 C 13,3 C 14,4 C 12,8 C 75 % 20 cb 17 cb 21 cb 1023,8 hPa 0,0 l/m 4,8 km/h (1 Bft) W-SW 247 0 min 0,000 mm 0,0 UV-I 0 W/m -0,2 C 3,8 C 6,4 km/h (2 Bft) 95,65 %
21.04.2019 04:09 3,8 C 0,6 C 13,3 C 14,4 C 12,8 C 74 % 20 cb 17 cb 21 cb 1023,7 hPa 0,0 l/m 4,8 km/h (1 Bft) W 270 0 min 0,000 mm 0,0 UV-I 0 W/m -0,4 C 3,8 C 4,8 km/h (1 Bft) 91,30 %
21.04.2019 04:08 3,8 C 1,1 C 13,3 C 14,4 C 12,8 C 75 % 21 cb 17 cb 21 cb 1023,8 hPa 0,0 l/m 4,8 km/h (1 Bft) W 270 0 min 0,000 mm 0,0 UV-I 0 W/m -0,2 C 3,8 C 6,4 km/h (2 Bft) 95,65 %
21.04.2019 04:07 3,9 C 1,1 C 13,3 C 14,4 C 12,8 C 75 % 21 cb 17 cb 21 cb 1023,8 hPa 0,0 l/m 4,8 km/h (1 Bft) W-SW 247 0 min 0,000 mm 0,0 UV-I 0 W/m -0,1 C 3,9 C 6,4 km/h (2 Bft) 95,65 %
21.04.2019 04:06 3,8 C 1,1 C 13,3 C 14,4 C 12,8 C 75 % 21 cb 17 cb 21 cb 1023,8 hPa 0,0 l/m 4,8 km/h (1 Bft) W 270 0 min 0,000 mm 0,0 UV-I 0 W/m -0,2 C 3,8 C 9,7 km/h (2 Bft) 91,30 %
21.04.2019 04:05 3,8 C 1,1 C 13,3 C 14,4 C 12,8 C 75 % 21 cb 17 cb 21 cb 1023,8 hPa 0,0 l/m 6,4 km/h (2 Bft) W 270 0 min 0,000 mm 0,0 UV-I 0 W/m -0,2 C 3,8 C 8,0 km/h (2 Bft) 91,30 %
21.04.2019 04:04 3,8 C 1,1 C 13,3 C 14,4 C 12,8 C 75 % 21 cb 17 cb 21 cb 1023,7 hPa 0,0 l/m 6,4 km/h (2 Bft) W 270 0 min 0,000 mm 0,0 UV-I 0 W/m -0,2 C 3,8 C 9,7 km/h (2 Bft) 100,00 %
21.04.2019 04:03 3,8 C 1,1 C 13,3 C 14,4 C 12,8 C 75 % 21 cb 17 cb 21 cb 1023,8 hPa 0,0 l/m 6,4 km/h (2 Bft) W 270 0 min 0,000 mm 0,0 UV-I 0 W/m -0,2 C 3,8 C 9,7 km/h (2 Bft) 86,96 %
21.04.2019 04:02 3,7 C 1,1 C 13,3 C 14,4 C 12,8 C 75 % 21 cb 17 cb 21 cb 1023,9 hPa 0,0 l/m 6,4 km/h (2 Bft) W 270 0 min 0,000 mm 0,0 UV-I 0 W/m -0,3 C 3,7 C 9,7 km/h (2 Bft) 95,65 %
21.04.2019 04:01 3,7 C 1,1 C 13,3 C 14,4 C 12,8 C 74 % 21 cb 17 cb 21 cb 1023,9 hPa 0,0 l/m 4,8 km/h (1 Bft) W 270 0 min 0,000 mm 0,0 UV-I 0 W/m -0,5 C 3,7 C 6,4 km/h (2 Bft) 95,65 %
21.04.2019 04:00 3,7 C 0,6 C 13,3 C 14,4 C 12,8 C 74 % 20 cb 17 cb 21 cb 1023,9 hPa 0,0 l/m 4,8 km/h (1 Bft) W 270 0 min 0,025 mm 0,0 UV-I 0 W/m -0,5 C 3,7 C 6,4 km/h (2 Bft) 86,96 %
21.04.2019 03:59 3,7 C 0,6 C 13,3 C 14,4 C 12,8 C 74 % 20 cb 17 cb 21 cb 1023,9 hPa 0,0 l/m 6,4 km/h (2 Bft) W 270 0 min 0,000 mm 0,0 UV-I 0 W/m -0,5 C 3,7 C 6,4 km/h (2 Bft) 95,65 %
21.04.2019 03:58 3,8 C 0,6 C 13,3 C 14,4 C 12,8 C 74 % 20 cb 17 cb 21 cb 1023,9 hPa 0,0 l/m 4,8 km/h (1 Bft) W 270 0 min 0,000 mm 0,0 UV-I 0 W/m -0,4 C 3,8 C 6,4 km/h (2 Bft) 91,30 %
21.04.2019 03:57 3,8 C 0,6 C 13,3 C 14,4 C 12,8 C 74 % 20 cb 17 cb 21 cb 1023,9 hPa 0,0 l/m 6,4 km/h (2 Bft) W 270 0 min 0,000 mm 0,0 UV-I 0 W/m -0,4 C 3,8 C 9,7 km/h (2 Bft) 100,00 %
21.04.2019 03:56 3,8 C 1,1 C 13,3 C 14,4 C 12,8 C 75 % 20 cb 17 cb 21 cb 1024,0 hPa 0,0 l/m 4,8 km/h (1 Bft) W 270 0 min 0,000 mm 0,0 UV-I 0 W/m -0,2 C 3,8 C 6,4 km/h (2 Bft) 91,30 %
21.04.2019 03:55 3,8 C 1,1 C 13,3 C 14,4 C 12,8 C 75 % 20 cb 17 cb 21 cb 1023,9 hPa 0,0 l/m 4,8 km/h (1 Bft) W 270 0 min 0,000 mm 0,0 UV-I 0 W/m -0,2 C 3,8 C 6,4 km/h (2 Bft) 91,30 %
21.04.2019 03:54 3,8 C 1,1 C 13,3 C 14,4 C 12,8 C 75 % 20 cb 17 cb 21 cb 1023,9 hPa 0,0 l/m 4,8 km/h (1 Bft) W 270 0 min 0,000 mm 0,0 UV-I 0 W/m -0,2 C 3,8 C 6,4 km/h (2 Bft) 95,65 %
21.04.2019 03:53 3,8 C 1,1 C 13,3 C 14,4 C 12,8 C 75 % 21 cb 17 cb 21 cb 1023,9 hPa 0,0 l/m 3,2 km/h (1 Bft) W 270 0 min 0,000 mm 0,0 UV-I 0 W/m -0,2 C 3,8 C 4,8 km/h (1 Bft) 95,65 %
21.04.2019 03:52 3,8 C 1,1 C 13,3 C 14,4 C 12,8 C 75 % 20 cb 17 cb 21 cb 1023,9 hPa 0,0 l/m 4,8 km/h (1 Bft) W 270 0 min 0,000 mm 0,0 UV-I 0 W/m -0,2 C 3,8 C 6,4 km/h (2 Bft) 86,96 %
21.04.2019 03:51 3,8 C 1,1 C 13,3 C 14,4 C 12,8 C 75 % 20 cb 17 cb 21 cb 1023,9 hPa 0,0 l/m 4,8 km/h (1 Bft) W 270 0 min 0,000 mm 0,0 UV-I 0 W/m -0,2 C 3,8 C 9,7 km/h (2 Bft) 100,00 %
21.04.2019 03:50 3,8 C 1,1 C 13,3 C 14,4 C 12,8 C 75 % 20 cb 17 cb 21 cb 1023,9 hPa 0,0 l/m 6,4 km/h (2 Bft) W 270 0 min 0,000 mm 0,0 UV-I 0 W/m -0,2 C 3,8 C 9,7 km/h (2 Bft) 91,30 %
21.04.2019 03:49 3,7 C 1,1 C 13,3 C 14,4 C 12,8 C 74 % 20 cb 17 cb 21 cb 1023,9 hPa 0,0 l/m 4,8 km/h (1 Bft) W 270 0 min 0,000 mm 0,0 UV-I 0 W/m -0,5 C 3,7 C 6,4 km/h (2 Bft) 91,30 %
21.04.2019 03:48 3,8 C 1,1 C 13,3 C 14,4 C 12,8 C 74 % 20 cb 17 cb 21 cb 1024,0 hPa 0,0 l/m 4,8 km/h (1 Bft) W 270 0 min 0,000 mm 0,0 UV-I 0 W/m -0,4 C 3,8 C 6,4 km/h (2 Bft) 100,00 %
21.04.2019 03:47 3,7 C 1,1 C 13,3 C 14,4 C 12,8 C 74 % 20 cb 17 cb 21 cb 1024,0 hPa 0,0 l/m 4,8 km/h (1 Bft) W 270 0 min 0,000 mm 0,0 UV-I 0 W/m -0,5 C 3,7 C 6,4 km/h (2 Bft) 91,30 %
21.04.2019 03:46 3,7 C 1,1 C 13,3 C 14,4 C 12,8 C 74 % 20 cb 17 cb 21 cb 1024,0 hPa 0,0 l/m 4,8 km/h (1 Bft) W 270 0 min 0,000 mm 0,0 UV-I 0 W/m -0,5 C 3,7 C 6,4 km/h (2 Bft) 95,65 %
21.04.2019 03:45 3,7 C 0,6 C 13,3 C 14,4 C 12,8 C 74 % 20 cb 17 cb 21 cb 1024,0 hPa 0,0 l/m 4,8 km/h (1 Bft) W 270 0 min 0,000 mm 0,0 UV-I 0 W/m -0,5 C 3,7 C 6,4 km/h (2 Bft) 95,65 %
21.04.2019 03:44 3,7 C 1,1 C 13,3 C 14,4 C 12,8 C 74 % 20 cb 17 cb 21 cb 1024,0 hPa 0,0 l/m 4,8 km/h (1 Bft) W 270 0 min 0,000 mm 0,0 UV-I 0 W/m -0,5 C 3,7 C 6,4 km/h (2 Bft) 95,65 %
21.04.2019 03:43 3,6 C 1,1 C 13,3 C 14,4 C 12,8 C 74 % 20 cb 17 cb 21 cb 1024,0 hPa 0,0 l/m 4,8 km/h (1 Bft) W 270 0 min 0,000 mm 0,0 UV-I 0 W/m -0,6 C 3,6 C 6,4 km/h (2 Bft) 91,30 %
21.04.2019 03:42 3,6 C 1,1 C 13,3 C 14,4 C 12,8 C 75 % 20 cb 17 cb 21 cb 1024,0 hPa 0,0 l/m 4,8 km/h (1 Bft) W 270 0 min 0,000 mm 0,0 UV-I 0 W/m -0,4 C 3,6 C 4,8 km/h (1 Bft) 100,00 %
21.04.2019 03:41 3,6 C 0,6 C 13,3 C 14,4 C 12,8 C 74 % 20 cb 17 cb 21 cb 1024,0 hPa 0,0 l/m 3,2 km/h (1 Bft) W 270 0 min 0,000 mm 0,0 UV-I 0 W/m -0,6 C 3,6 C 4,8 km/h (1 Bft) 91,30 %
21.04.2019 03:40 3,5 C 0,6 C 13,3 C 14,4 C 12,8 C 74 % 20 cb 17 cb 21 cb 1024,0 hPa 0,0 l/m 3,2 km/h (1 Bft) W 270 0 min 0,000 mm 0,0 UV-I 0 W/m -0,7 C 3,5 C 4,8 km/h (1 Bft) 95,65 %
21.04.2019 03:39 3,5 C 1,1 C 13,3 C 14,4 C 12,8 C 74 % 20 cb 17 cb 21 cb 1024,0 hPa 0,0 l/m 4,8 km/h (1 Bft) W 270 0 min 0,000 mm 0,0 UV-I 0 W/m -0,7 C 3,5 C 6,4 km/h (2 Bft) 95,65 %
21.04.2019 03:38 3,6 C 1,1 C 13,3 C 14,4 C 12,8 C 74 % 20 cb 17 cb 21 cb 1024,0 hPa 0,0 l/m 4,8 km/h (1 Bft) W 270 0 min 0,000 mm 0,0 UV-I 0 W/m -0,6 C 3,6 C 6,4 km/h (2 Bft) 91,30 %
21.04.2019 03:37 3,6 C 1,1 C 13,3 C 14,4 C 12,8 C 74 % 20 cb 17 cb 21 cb 1024,0 hPa 0,0 l/m 3,2 km/h (1 Bft) W 270 0 min 0,000 mm 0,0 UV-I 0 W/m -0,6 C 3,6 C 4,8 km/h (1 Bft) 91,30 %
21.04.2019 03:36 3,6 C 1,1 C 13,3 C 14,4 C 12,8 C 74 % 20 cb 17 cb 21 cb 1024,0 hPa 0,0 l/m 3,2 km/h (1 Bft) W 270 0 min 0,000 mm 0,0 UV-I 0 W/m -0,6 C 3,6 C 4,8 km/h (1 Bft) 95,65 %
21.04.2019 03:35 3,6 C 1,1 C 13,3 C 14,4 C 12,8 C 74 % 20 cb 17 cb 21 cb 1024,0 hPa 0,0 l/m 4,8 km/h (1 Bft) W 270 0 min 0,000 mm 0,0 UV-I 0 W/m -0,6 C 3,6 C 6,4 km/h (2 Bft) 95,65 %
21.04.2019 03:34 3,5 C 1,1 C 13,3 C 14,4 C 12,8 C 74 % 20 cb 17 cb 21 cb 1024,1 hPa 0,0 l/m 4,8 km/h (1 Bft) W 270 0 min 0,000 mm 0,0 UV-I 0 W/m -0,7 C 3,5 C 6,4 km/h (2 Bft) 91,30 %
21.04.2019 03:33 3,4 C 1,1 C 13,9 C 14,4 C 12,8 C 74 % 20 cb 17 cb 21 cb 1024,1 hPa 0,0 l/m 3,2 km/h (1 Bft) W 270 0 min 0,000 mm 0,0 UV-I 0 W/m -0,8 C 3,4 C 6,4 km/h (2 Bft) 100,00 %
21.04.2019 03:32 3,4 C 1,7 C 13,9 C 14,4 C 12,8 C 74 % 21 cb 17 cb 21 cb 1024,1 hPa 0,0 l/m 3,2 km/h (1 Bft) W 270 0 min 0,000 mm 0,0 UV-I 0 W/m -0,8 C 3,4 C 4,8 km/h (1 Bft) 91,30 %
21.04.2019 03:31 3,3 C 1,7 C 13,9 C 14,4 C 12,8 C 74 % 21 cb 17 cb 21 cb 1024,0 hPa 0,0 l/m 3,2 km/h (1 Bft) W 270 0 min 0,000 mm 0,0 UV-I 0 W/m -0,9 C 3,3 C 4,8 km/h (1 Bft) 95,65 %
21.04.2019 03:30 3,3 C 1,7 C 13,9 C 14,4 C 12,8 C 74 % 21 cb 17 cb 21 cb 1024,1 hPa 0,0 l/m 3,2 km/h (1 Bft) W 270 0 min 0,000 mm 0,0 UV-I 0 W/m -0,9 C 3,3 C 4,8 km/h (1 Bft) 95,65 %
21.04.2019 03:29 3,3 C 2,2 C 13,9 C 14,4 C 12,8 C 74 % 21 cb 17 cb 21 cb 1024,1 hPa 0,0 l/m 3,2 km/h (1 Bft) W 270 0 min 0,000 mm 0,0 UV-I 0 W/m -0,9 C 3,3 C 4,8 km/h (1 Bft) 95,65 %
21.04.2019 03:28 3,3 C 2,2 C 13,9 C 14,4 C 12,8 C 74 % 21 cb 17 cb 21 cb 1024,1 hPa 0,0 l/m 3,2 km/h (1 Bft) W 270 0 min 0,000 mm 0,0 UV-I 0 W/m -0,9 C 3,3 C 4,8 km/h (1 Bft) 91,30 %
21.04.2019 03:27 3,3 C 2,2 C 13,9 C 14,4 C 12,8 C 74 % 21 cb 17 cb 21 cb 1024,1 hPa 0,0 l/m 3,2 km/h (1 Bft) W 270 0 min 0,000 mm 0,0 UV-I 0 W/m -0,9 C 3,3 C 4,8 km/h (1 Bft) 95,65 %
21.04.2019 03:26 3,3 C 2,2 C 13,9 C 14,4 C 12,8 C 73 % 21 cb 17 cb 21 cb 1024,1 hPa 0,0 l/m 3,2 km/h (1 Bft) W 270 0 min 0,000 mm 0,0 UV-I 0 W/m -1,1 C 3,3 C 4,8 km/h (1 Bft) 95,65 %
21.04.2019 03:25 3,4 C 2,2 C 13,9 C 14,4 C 12,8 C 73 % 21 cb 17 cb 21 cb 1024,1 hPa 0,0 l/m 3,2 km/h (1 Bft) W 270 0 min 0,000 mm 0,0 UV-I 0 W/m -1,0 C 3,4 C 4,8 km/h (1 Bft) 91,30 %
21.04.2019 03:24 3,4 C 2,2 C 13,9 C 14,4 C 12,8 C 73 % 21 cb 17 cb 21 cb 1024,1 hPa 0,0 l/m 3,2 km/h (1 Bft) W-SW 247 0 min 0,000 mm 0,0 UV-I 0 W/m -1,0 C 3,4 C 3,2 km/h (1 Bft) 100,00 %
21.04.2019 03:23 3,6 C 2,2 C 13,9 C 14,4 C 12,8 C 73 % 21 cb 17 cb 21 cb 1024,0 hPa 0,0 l/m 1,6 km/h (1 Bft) W-SW 247 0 min 0,000 mm 0,0 UV-I 0 W/m -0,8 C 3,6 C 3,2 km/h (1 Bft) 91,30 %
21.04.2019 03:22 3,6 C 2,2 C 13,9 C 14,4 C 12,8 C 73 % 21 cb 17 cb 21 cb 1024,1 hPa 0,0 l/m 3,2 km/h (1 Bft) W-SW 247 0 min 0,000 mm 0,0 UV-I 0 W/m -0,8 C 3,6 C 3,2 km/h (1 Bft) 91,30 %
21.04.2019 03:21 3,7 C 1,7 C 13,9 C 14,4 C 12,8 C 73 % 20 cb 17 cb 21 cb 1024,1 hPa 0,0 l/m 1,6 km/h (1 Bft) W-SW 247 0 min 0,000 mm 0,0 UV-I 0 W/m -0,7 C 3,7 C 3,2 km/h (1 Bft) 95,65 %
21.04.2019 03:20 3,7 C 1,7 C 13,9 C 14,4 C 12,8 C 73 % 20 cb 17 cb 21 cb 1024,1 hPa 0,0 l/m 1,6 km/h (1 Bft) W-SW 247 0 min 0,000 mm 0,0 UV-I 0 W/m -0,7 C 3,7 C 3,2 km/h (1 Bft) 95,65 %
21.04.2019 03:19 3,8 C 2,2 C 13,9 C 14,4 C 12,8 C 73 % 21 cb 17 cb 21 cb 1024,1 hPa 0,0 l/m 1,6 km/h (1 Bft) W-SW 247 0 min 0,000 mm 0,0 UV-I 0 W/m -0,6 C 3,8 C 3,2 km/h (1 Bft) 82,61 %
21.04.2019 03:18 3,8 C 2,2 C 13,9 C 14,4 C 12,8 C 73 % 21 cb 17 cb 21 cb 1024,1 hPa 0,0 l/m 3,2 km/h (1 Bft) W-SW 247 0 min 0,000 mm 0,0 UV-I 0 W/m -0,6 C 3,8 C 3,2 km/h (1 Bft) 100,00 %
21.04.2019 03:17 3,8 C 2,2 C 13,9 C 14,4 C 12,8 C 73 % 21 cb 17 cb 21 cb 1024,1 hPa 0,0 l/m 1,6 km/h (1 Bft) W-SW 247 0 min 0,000 mm 0,0 UV-I 0 W/m -0,6 C 3,8 C 3,2 km/h (1 Bft) 91,30 %
21.04.2019 03:16 3,9 C 1,7 C 13,9 C 14,4 C 12,8 C 72 % 20 cb 17 cb 21 cb 1024,1 hPa 0,0 l/m 1,6 km/h (1 Bft) W-SW 247 0 min 0,000 mm 0,0 UV-I 0 W/m -0,7 C 3,9 C 1,6 km/h (1 Bft) 95,65 %
21.04.2019 03:15 3,9 C 1,7 C 13,9 C 14,4 C 12,8 C 72 % 20 cb 17 cb 21 cb 1024,1 hPa 0,0 l/m 1,6 km/h (1 Bft) W-SW 247 0 min 0,000 mm 0,0 UV-I 0 W/m -0,7 C 3,9 C 3,2 km/h (1 Bft) 91,30 %
21.04.2019 03:14 4,0 C 1,7 C 13,9 C 14,4 C 12,8 C 72 % 20 cb 17 cb 21 cb 1024,1 hPa 0,0 l/m 1,6 km/h (1 Bft) W-SW 247 0 min 0,000 mm 0,0 UV-I 0 W/m -0,6 C 4,0 C 3,2 km/h (1 Bft) 91,30 %
21.04.2019 03:13 4,0 C 1,7 C 13,9 C 14,4 C 12,8 C 72 % 20 cb 17 cb 21 cb 1024,1 hPa 0,0 l/m 1,6 km/h (1 Bft) W-SW 247 0 min 0,000 mm 0,0 UV-I 0 W/m -0,6 C 4,0 C 3,2 km/h (1 Bft) 91,30 %
21.04.2019 03:12 4,0 C 1,7 C 13,9 C 14,4 C 12,8 C 72 % 20 cb 17 cb 21 cb 1024,1 hPa 0,0 l/m 1,6 km/h (1 Bft) W-SW 247 0 min 0,000 mm 0,0 UV-I 0 W/m -0,6 C 4,0 C 1,6 km/h (1 Bft) 86,96 %
21.04.2019 03:11 4,0 C 1,1 C 13,9 C 14,4 C 12,8 C 72 % 20 cb 17 cb 21 cb 1024,1 hPa 0,0 l/m 0,0 km/h (0 Bft) W-SW 247 0 min 0,000 mm 0,0 UV-I 0 W/m -0,6 C 4,0 C 1,6 km/h (1 Bft) 100,00 %
21.04.2019 03:10 4,0 C 1,1 C 13,9 C 14,4 C 12,8 C 72 % 20 cb 17 cb 21 cb 1024,1 hPa 0,0 l/m 1,6 km/h (1 Bft) W-SW 247 0 min 0,000 mm 0,0 UV-I 0 W/m -0,6 C 4,0 C 3,2 km/h (1 Bft) 86,96 %
21.04.2019 03:09 4,0 C 1,1 C 13,9 C 14,4 C 12,8 C 72 % 20 cb 17 cb 21 cb 1024,1 hPa 0,0 l/m 1,6 km/h (1 Bft) W-SW 247 0 min 0,000 mm 0,0 UV-I 0 W/m -0,6 C 4,0 C 1,6 km/h (1 Bft) 91,30 %
21.04.2019 03:08 4,0 C 1,1 C 13,9 C 14,4 C 12,8 C 72 % 20 cb 17 cb 21 cb 1024,2 hPa 0,0 l/m 0,0 km/h (0 Bft) W-SW 247 0 min 0,000 mm 0,0 UV-I 0 W/m -0,6 C 4,0 C 1,6 km/h (1 Bft) 91,30 %
21.04.2019 03:07 4,0 C 1,1 C 13,9 C 14,4 C 12,8 C 72 % 20 cb 17 cb 21 cb 1024,2 hPa 0,0 l/m 1,6 km/h (1 Bft) W-SW 247 0 min 0,000 mm 0,0 UV-I 0 W/m -0,6 C 4,0 C 1,6 km/h (1 Bft) 95,65 %
21.04.2019 03:06 4,0 C 1,1 C 13,9 C 14,4 C 12,8 C 72 % 20 cb 17 cb 21 cb 1024,2 hPa 0,0 l/m 1,6 km/h (1 Bft) W-SW 247 0 min 0,000 mm 0,0 UV-I 0 W/m -0,6 C 4,0 C 3,2 km/h (1 Bft) 86,96 %
21.04.2019 03:05 4,1 C 1,1 C 13,9 C 14,4 C 12,8 C 71 % 20 cb 17 cb 21 cb 1024,2 hPa 0,0 l/m 1,6 km/h (1 Bft) W-SW 247 0 min 0,000 mm 0,0 UV-I 0 W/m -0,7 C 4,1 C 3,2 km/h (1 Bft) 100,00 %
21.04.2019 03:04 4,2 C 1,1 C 13,9 C 14,4 C 12,8 C 71 % 20 cb 17 cb 21 cb 1024,1 hPa 0,0 l/m 0,0 km/h (0 Bft) W-SW 247 0 min 0,000 mm 0,0 UV-I 0 W/m -0,6 C 4,2 C 1,6 km/h (1 Bft) 86,96 %
21.04.2019 03:03 4,3 C 1,1 C 13,9 C 14,4 C 12,8 C 71 % 20 cb 17 cb 21 cb 1024,2 hPa 0,0 l/m 1,6 km/h (1 Bft) W-SW 247 0 min 0,000 mm 0,0 UV-I 0 W/m -0,5 C 4,3 C 3,2 km/h (1 Bft) 91,30 %
21.04.2019 03:02 4,4 C 1,7 C 13,9 C 14,4 C 12,8 C 71 % 20 cb 17 cb 21 cb 1024,2 hPa 0,0 l/m 1,6 km/h (1 Bft) W-SW 247 0 min 0,000 mm 0,0 UV-I 0 W/m -0,4 C 4,4 C 3,2 km/h (1 Bft) 95,65 %
21.04.2019 03:01 4,4 C 1,7 C 13,9 C 14,4 C 12,8 C 71 % 20 cb 17 cb 21 cb 1024,6 hPa 0,0 l/m 1,6 km/h (1 Bft) W-SW 247 0 min 0,000 mm 0,0 UV-I 0 W/m -0,4 C 4,4 C 1,6 km/h (1 Bft) 91,30 %
21.04.2019 03:00 4,4 C 1,7 C 13,9 C 14,4 C 12,8 C 71 % 20 cb 17 cb 21 cb 1024,1 hPa 0,0 l/m 1,6 km/h (1 Bft) W-SW 247 0 min 0,025 mm 0,0 UV-I 0 W/m -0,4 C 4,4 C 3,2 km/h (1 Bft) 91,30 %
21.04.2019 02:59 4,4 C 1,7 C 13,9 C 14,4 C 12,8 C 71 % 20 cb 17 cb 21 cb 1024,2 hPa 0,0 l/m 1,6 km/h (1 Bft) W-SW 247 0 min 0,000 mm 0,0 UV-I 0 W/m -0,4 C 4,4 C 3,2 km/h (1 Bft) 95,65 %
21.04.2019 02:58 4,4 C 1,7 C 13,9 C 14,4 C 12,8 C 71 % 20 cb 17 cb 21 cb 1024,2 hPa 0,0 l/m 1,6 km/h (1 Bft) W-SW 247 0 min 0,000 mm 0,0 UV-I 0 W/m -0,4 C 4,4 C 3,2 km/h (1 Bft) 91,30 %
21.04.2019 02:57 4,4 C 2,2 C 13,9 C 14,4 C 12,8 C 71 % 20 cb 17 cb 21 cb 1024,1 hPa 0,0 l/m 1,6 km/h (1 Bft) W-SW 247 0 min 0,000 mm 0,0 UV-I 0 W/m -0,4 C 4,4 C 3,2 km/h (1 Bft) 86,96 %
21.04.2019 02:56 4,5 C 2,2 C 13,9 C 14,4 C 12,8 C 71 % 20 cb 17 cb 21 cb 1024,2 hPa 0,0 l/m 1,6 km/h (1 Bft) W-SW 247 0 min 0,000 mm 0,0 UV-I 0 W/m -0,3 C 4,5 C 3,2 km/h (1 Bft) 95,65 %
21.04.2019 02:55 4,6 C 2,2 C 13,9 C 15,0 C 12,8 C 71 % 20 cb 17 cb 21 cb 1024,1 hPa 0,0 l/m 1,6 km/h (1 Bft) W-SW 247 0 min 0,000 mm 0,0 UV-I 0 W/m -0,2 C 4,6 C 1,6 km/h (1 Bft) 86,96 %
21.04.2019 02:54 4,6 C 2,2 C 13,9 C 15,0 C 12,8 C 71 % 20 cb 17 cb 21 cb 1024,1 hPa 0,0 l/m 1,6 km/h (1 Bft) W-SW 247 0 min 0,000 mm 0,0 UV-I 0 W/m -0,2 C 4,6 C 3,2 km/h (1 Bft) 95,65 %
21.04.2019 02:53 4,6 C 2,2 C 13,9 C 15,0 C 12,8 C 71 % 20 cb 17 cb 21 cb 1024,1 hPa 0,0 l/m 1,6 km/h (1 Bft) W-SW 247 0 min 0,000 mm 0,0 UV-I 0 W/m -0,2 C 4,6 C 1,6 km/h (1 Bft) 91,30 %
21.04.2019 02:52 4,6 C 2,2 C 13,9 C 15,0 C 12,8 C 71 % 20 cb 17 cb 21 cb 1024,2 hPa 0,0 l/m 1,6 km/h (1 Bft) W-SW 247 0 min 0,000 mm 0,0 UV-I 0 W/m -0,2 C 4,6 C 3,2 km/h (1 Bft) 91,30 %
21.04.2019 02:51 4,7 C 1,7 C 13,9 C 15,0 C 12,8 C 70 % 20 cb 17 cb 21 cb 1024,2 hPa 0,0 l/m 1,6 km/h (1 Bft) W-SW 247 0 min 0,000 mm 0,0 UV-I 0 W/m -0,3 C 4,7 C 3,2 km/h (1 Bft) 91,30 %
21.04.2019 02:50 4,7 C 1,7 C 13,9 C 15,0 C 12,8 C 70 % 20 cb 17 cb 21 cb 1024,2 hPa 0,0 l/m 0,0 km/h (0 Bft) W-SW 247 0 min 0,000 mm 0,0 UV-I 0 W/m -0,3 C 4,7 C 1,6 km/h (1 Bft) 95,65 %
21.04.2019 02:49 4,8 C 1,7 C 13,9 C 15,0 C 12,8 C 71 % 20 cb 17 cb 21 cb 1024,2 hPa 0,0 l/m 1,6 km/h (1 Bft) W-SW 247 0 min 0,000 mm 0,0 UV-I 0 W/m -0,0 C 4,8 C 3,2 km/h (1 Bft) 95,65 %
21.04.2019 02:48 4,8 C 1,1 C 13,9 C 15,0 C 12,8 C 71 % 20 cb 17 cb 21 cb 1024,1 hPa 0,0 l/m 1,6 km/h (1 Bft) W-SW 247 0 min 0,000 mm 0,0 UV-I 0 W/m -0,0 C 4,8 C 1,6 km/h (1 Bft) 91,30 %
21.04.2019 02:47 4,7 C 1,1 C 13,9 C 15,0 C 12,8 C 72 % 20 cb 17 cb 21 cb 1024,2 hPa 0,0 l/m 1,6 km/h (1 Bft) W-SW 247 0 min 0,000 mm 0,0 UV-I 0 W/m 0,1 C 4,7 C 3,2 km/h (1 Bft) 95,65 %
21.04.2019 02:46 4,7 C 1,1 C 13,9 C 15,0 C 12,8 C 72 % 20 cb 17 cb 21 cb 1024,2 hPa 0,0 l/m 3,2 km/h (1 Bft) W-SW 247 0 min 0,000 mm 0,0 UV-I 0 W/m 0,1 C 4,7 C 4,8 km/h (1 Bft) 91,30 %
21.04.2019 02:45 4,4 C 1,1 C 13,9 C 15,0 C 12,8 C 73 % 20 cb 17 cb 21 cb 1024,3 hPa 0,0 l/m 3,2 km/h (1 Bft) W-SW 247 0 min 0,000 mm 0,0 UV-I 0 W/m -0,0 C 4,4 C 4,8 km/h (1 Bft) 95,65 %
21.04.2019 02:44 4,3 C 1,1 C 13,9 C 15,0 C 12,8 C 73 % 20 cb 17 cb 21 cb 1024,3 hPa 0,0 l/m 3,2 km/h (1 Bft) W-SW 247 0 min 0,000 mm 0,0 UV-I 0 W/m -0,1 C 4,3 C 3,2 km/h (1 Bft) 95,65 %
21.04.2019 02:43 4,2 C 1,1 C 13,9 C 15,0 C 12,8 C 73 % 20 cb 17 cb 21 cb 1024,2 hPa 0,0 l/m 1,6 km/h (1 Bft) W-SW 247 0 min 0,000 mm 0,0 UV-I 0 W/m -0,2 C 4,2 C 3,2 km/h (1 Bft) 95,65 %
21.04.2019 02:42 4,2 C 1,1 C 13,9 C 15,0 C 12,8 C 72 % 20 cb 17 cb 21 cb 1024,2 hPa 0,0 l/m 1,6 km/h (1 Bft) W-SW 247 0 min 0,000 mm 0,0 UV-I 0 W/m -0,4 C 4,2 C 3,2 km/h (1 Bft) 86,96 %
21.04.2019 02:41 4,2 C 1,1 C 13,9 C 15,0 C 12,8 C 72 % 20 cb 17 cb 21 cb 1024,3 hPa 0,0 l/m 3,2 km/h (1 Bft) W-SW 247 0 min 0,000 mm 0,0 UV-I 0 W/m -0,4 C 4,2 C 3,2 km/h (1 Bft) 95,65 %
21.04.2019 02:40 4,2 C 1,1 C 13,9 C 15,0 C 12,8 C 72 % 20 cb 17 cb 21 cb 1024,3 hPa 0,0 l/m 3,2 km/h (1 Bft) W-SW 247 0 min 0,000 mm 0,0 UV-I 0 W/m -0,4 C 4,2 C 4,8 km/h (1 Bft) 95,65 %
21.04.2019 02:39 4,2 C 1,1 C 13,9 C 15,0 C 12,8 C 72 % 20 cb 17 cb 21 cb 1024,3 hPa 0,0 l/m 3,2 km/h (1 Bft) W-SW 247 0 min 0,000 mm 0,0 UV-I 0 W/m -0,4 C 4,2 C 4,8 km/h (1 Bft) 91,30 %
21.04.2019 02:38 4,2 C 1,1 C 13,9 C 15,0 C 12,8 C 72 % 20 cb 17 cb 21 cb 1024,2 hPa 0,0 l/m 4,8 km/h (1 Bft) W-SW 247 0 min 0,000 mm 0,0 UV-I 0 W/m -0,4 C 4,2 C 4,8 km/h (1 Bft) 100,00 %
21.04.2019 02:37 4,1 C 1,1 C 13,9 C 15,0 C 12,8 C 72 % 20 cb 17 cb 21 cb 1024,3 hPa 0,0 l/m 4,8 km/h (1 Bft) W-SW 247 0 min 0,000 mm 0,0 UV-I 0 W/m -0,5 C 4,1 C 4,8 km/h (1 Bft) 91,30 %
21.04.2019 02:36 4,1 C 1,1 C 13,9 C 15,0 C 12,8 C 71 % 20 cb 17 cb 21 cb 1024,2 hPa 0,0 l/m 4,8 km/h (1 Bft) W-SW 247 0 min 0,000 mm 0,0 UV-I 0 W/m -0,7 C 4,1 C 6,4 km/h (2 Bft) 95,65 %
21.04.2019 02:35 4,2 C 1,1 C 13,9 C 15,0 C 12,8 C 71 % 20 cb 17 cb 21 cb 1024,3 hPa 0,0 l/m 4,8 km/h (1 Bft) W-SW 247 0 min 0,000 mm 0,0 UV-I 0 W/m -0,6 C 4,2 C 6,4 km/h (2 Bft) 95,65 %
21.04.2019 02:34 4,3 C 1,1 C 13,9 C 15,0 C 12,8 C 70 % 20 cb 17 cb 21 cb 1024,3 hPa 0,0 l/m 4,8 km/h (1 Bft) W-SW 247 0 min 0,000 mm 0,0 UV-I 0 W/m -0,7 C 4,3 C 4,8 km/h (1 Bft) 91,30 %
21.04.2019 02:33 4,6 C 1,1 C 13,9 C 15,0 C 12,8 C 70 % 20 cb 17 cb 21 cb 1024,3 hPa 0,0 l/m 4,8 km/h (1 Bft) W-SW 247 0 min 0,000 mm 0,0 UV-I 0 W/m -0,4 C 4,6 C 6,4 km/h (2 Bft) 91,30 %
21.04.2019 02:32 4,7 C 1,1 C 13,9 C 15,0 C 12,8 C 70 % 20 cb 17 cb 21 cb 1024,3 hPa 0,0 l/m 4,8 km/h (1 Bft) W-SW 247 0 min 0,000 mm 0,0 UV-I 0 W/m -0,3 C 4,7 C 4,8 km/h (1 Bft) 100,00 %
21.04.2019 02:31 4,8 C 1,7 C 13,9 C 15,0 C 12,8 C 70 % 20 cb 17 cb 21 cb 1024,4 hPa 0,0 l/m 4,8 km/h (1 Bft) W-SW 247 0 min 0,000 mm 0,0 UV-I 0 W/m -0,2 C 4,8 C 4,8 km/h (1 Bft) 91,30 %
21.04.2019 02:30 4,8 C 1,7 C 13,9 C 15,0 C 12,8 C 70 % 20 cb 17 cb 21 cb 1024,4 hPa 0,0 l/m 3,2 km/h (1 Bft) W-SW 247 0 min 0,000 mm 0,0 UV-I 0 W/m -0,2 C 4,8 C 4,8 km/h (1 Bft) 91,30 %
21.04.2019 02:29 4,8 C 1,7 C 13,9 C 15,0 C 12,8 C 70 % 20 cb 17 cb 21 cb 1024,4 hPa 0,0 l/m 4,8 km/h (1 Bft) W-SW 247 0 min 0,000 mm 0,0 UV-I 0 W/m -0,2 C 4,8 C 6,4 km/h (2 Bft) 91,30 %
21.04.2019 02:28 4,8 C 1,7 C 13,9 C 15,0 C 12,8 C 71 % 20 cb 17 cb 21 cb 1024,4 hPa 0,0 l/m 4,8 km/h (1 Bft) W-SW 247 0 min 0,000 mm 0,0 UV-I 0 W/m -0,0 C 4,8 C 6,4 km/h (2 Bft) 91,30 %
21.04.2019 02:27 4,8 C 1,7 C 13,9 C 15,0 C 12,8 C 71 % 20 cb 17 cb 21 cb 1024,4 hPa 0,0 l/m 4,8 km/h (1 Bft) W-SW 247 0 min 0,000 mm 0,0 UV-I 0 W/m -0,0 C 4,8 C 6,4 km/h (2 Bft) 95,65 %
21.04.2019 02:26 4,8 C 1,7 C 13,9 C 15,0 C 12,8 C 70 % 20 cb 17 cb 21 cb 1024,4 hPa 0,0 l/m 4,8 km/h (1 Bft) W 270 0 min 0,000 mm 0,0 UV-I 0 W/m -0,2 C 4,8 C 4,8 km/h (1 Bft) 86,96 %
21.04.2019 02:25 4,8 C 1,7 C 13,9 C 15,0 C 12,8 C 70 % 20 cb 17 cb 21 cb 1024,5 hPa 0,0 l/m 4,8 km/h (1 Bft) W 270 0 min 0,000 mm 0,0 UV-I 0 W/m -0,2 C 4,8 C 6,4 km/h (2 Bft) 100,00 %
21.04.2019 02:24 4,7 C 2,2 C 13,9 C 15,0 C 12,8 C 71 % 20 cb 17 cb 21 cb 1024,5 hPa 0,0 l/m 3,2 km/h (1 Bft) W 270 0 min 0,000 mm 0,0 UV-I 0 W/m -0,1 C 4,7 C 4,8 km/h (1 Bft) 91,30 %
21.04.2019 02:23 4,7 C 2,2 C 14,4 C 15,0 C 12,8 C 71 % 20 cb 17 cb 21 cb 1024,4 hPa 0,0 l/m 3,2 km/h (1 Bft) W 270 0 min 0,000 mm 0,0 UV-I 0 W/m -0,1 C 4,7 C 4,8 km/h (1 Bft) 91,30 %
21.04.2019 02:22 4,7 C 2,2 C 14,4 C 15,0 C 12,8 C 71 % 20 cb 17 cb 21 cb 1024,4 hPa 0,0 l/m 3,2 km/h (1 Bft) W 270 0 min 0,000 mm 0,0 UV-I 0 W/m -0,1 C 4,7 C 4,8 km/h (1 Bft) 95,65 %
21.04.2019 02:21 4,6 C 2,2 C 14,4 C 15,0 C 12,8 C 71 % 20 cb 17 cb 21 cb 1024,6 hPa 0,0 l/m 3,2 km/h (1 Bft) W 270 0 min 0,000 mm 0,0 UV-I 0 W/m -0,2 C 4,6 C 4,8 km/h (1 Bft) 95,65 %
21.04.2019 02:20 4,6 C 2,2 C 14,4 C 15,0 C 12,8 C 71 % 20 cb 17 cb 21 cb 1024,6 hPa 0,0 l/m 4,8 km/h (1 Bft) W 270 0 min 0,000 mm 0,0 UV-I 0 W/m -0,2 C 4,6 C 6,4 km/h (2 Bft) 91,30 %
21.04.2019 02:19 4,6 C 2,2 C 14,4 C 15,0 C 12,8 C 71 % 20 cb 17 cb 21 cb 1024,7 hPa 0,0 l/m 4,8 km/h (1 Bft) W 270 0 min 0,000 mm 0,0 UV-I 0 W/m -0,2 C 4,6 C 4,8 km/h (1 Bft) 95,65 %
21.04.2019 02:18 4,6 C 2,8 C 14,4 C 15,0 C 12,8 C 70 % 20 cb 17 cb 21 cb 1024,7 hPa 0,0 l/m 4,8 km/h (1 Bft) W 270 0 min 0,000 mm 0,0 UV-I 0 W/m -0,4 C 4,6 C 4,8 km/h (1 Bft) 95,65 %
21.04.2019 02:17 4,6 C 2,8 C 14,4 C 15,0 C 12,8 C 70 % 20 cb 17 cb 21 cb 1024,6 hPa 0,0 l/m 3,2 km/h (1 Bft) W 270 0 min 0,000 mm 0,0 UV-I 0 W/m -0,4 C 4,6 C 4,8 km/h (1 Bft) 91,30 %
21.04.2019 02:16 4,6 C 2,8 C 14,4 C 15,0 C 12,8 C 69 % 20 cb 17 cb 21 cb 1024,6 hPa 0,0 l/m 3,2 km/h (1 Bft) W 270 0 min 0,000 mm 0,0 UV-I 0 W/m -0,6 C 4,6 C 4,8 km/h (1 Bft) 95,65 %
21.04.2019 02:15 4,7 C 2,2 C 14,4 C 15,0 C 12,8 C 69 % 20 cb 17 cb 21 cb 1024,6 hPa 0,0 l/m 4,8 km/h (1 Bft) W 270 0 min 0,000 mm 0,0 UV-I 0 W/m -0,5 C 4,7 C 4,8 km/h (1 Bft) 91,30 %
21.04.2019 02:14 4,8 C 2,8 C 14,4 C 15,0 C 12,8 C 69 % 20 cb 17 cb 21 cb 1024,6 hPa 0,0 l/m 4,8 km/h (1 Bft) W 270 0 min 0,000 mm 0,0 UV-I 0 W/m -0,4 C 4,8 C 4,8 km/h (1 Bft) 95,65 %
21.04.2019 02:13 4,9 C 2,2 C 14,4 C 15,0 C 12,8 C 69 % 20 cb 17 cb 21 cb 1024,6 hPa 0,0 l/m 3,2 km/h (1 Bft) W 270 0 min 0,000 mm 0,0 UV-I 0 W/m -0,3 C 4,9 C 4,8 km/h (1 Bft) 95,65 %
21.04.2019 02:12 5,0 C 2,2 C 14,4 C 15,0 C 12,8 C 69 % 20 cb 17 cb 21 cb 1024,6 hPa 0,0 l/m 4,8 km/h (1 Bft) W 270 0 min 0,000 mm 0,0 UV-I 0 W/m -0,2 C 5,0 C 4,8 km/h (1 Bft) 91,30 %
21.04.2019 02:11 5,1 C 2,2 C 14,4 C 15,0 C 12,8 C 68 % 20 cb 17 cb 21 cb 1024,6 hPa 0,0 l/m 3,2 km/h (1 Bft) W 270 0 min 0,000 mm 0,0 UV-I 0 W/m -0,3 C 5,1 C 4,8 km/h (1 Bft) 91,30 %
21.04.2019 02:10 5,2 C 2,2 C 14,4 C 15,0 C 12,8 C 68 % 20 cb 17 cb 21 cb 1024,6 hPa 0,0 l/m 3,2 km/h (1 Bft) W 270 0 min 0,000 mm 0,0 UV-I 0 W/m -0,2 C 5,2 C 4,8 km/h (1 Bft) 95,65 %
21.04.2019 02:09 5,2 C 1,7 C 14,4 C 15,0 C 12,8 C 68 % 20 cb 17 cb 21 cb 1024,6 hPa 0,0 l/m 3,2 km/h (1 Bft) W 270 0 min 0,000 mm 0,0 UV-I 0 W/m -0,2 C 5,2 C 4,8 km/h (1 Bft) 91,30 %
21.04.2019 02:08 5,3 C 1,7 C 14,4 C 15,0 C 12,8 C 68 % 20 cb 17 cb 21 cb 1024,6 hPa 0,0 l/m 3,2 km/h (1 Bft) W 270 0 min 0,000 mm 0,0 UV-I 0 W/m -0,1 C 5,3 C 4,8 km/h (1 Bft) 91,30 %
21.04.2019 02:07 5,3 C 1,7 C 14,4 C 15,0 C 12,8 C 68 % 20 cb 17 cb 21 cb 1024,7 hPa 0,0 l/m 3,2 km/h (1 Bft) W 270 0 min 0,000 mm 0,0 UV-I 0 W/m -0,1 C 5,3 C 4,8 km/h (1 Bft) 100,00 %
21.04.2019 02:06 5,4 C 1,7 C 14,4 C 15,0 C 12,8 C 67 % 20 cb 17 cb 21 cb 1024,7 hPa 0,0 l/m 3,2 km/h (1 Bft) W 270 0 min 0,000 mm 0,0 UV-I 0 W/m -0,2 C 5,4 C 4,8 km/h (1 Bft) 91,30 %
21.04.2019 02:05 5,5 C 1,7 C 14,4 C 15,0 C 12,8 C 67 % 20 cb 17 cb 21 cb 1024,7 hPa 0,0 l/m 3,2 km/h (1 Bft) W 270 0 min 0,000 mm 0,0 UV-I 0 W/m -0,1 C 5,5 C 3,2 km/h (1 Bft) 86,96 %
21.04.2019 02:04 5,5 C 1,7 C 14,4 C 15,0 C 12,8 C 67 % 20 cb 17 cb 21 cb 1024,6 hPa 0,0 l/m 3,2 km/h (1 Bft) W 270 0 min 0,000 mm 0,0 UV-I 0 W/m -0,1 C 5,5 C 4,8 km/h (1 Bft) 91,30 %
21.04.2019 02:03 5,5 C 1,7 C 14,4 C 15,0 C 12,8 C 67 % 20 cb 17 cb 21 cb 1024,7 hPa 0,0 l/m 4,8 km/h (1 Bft) W-SW 247 0 min 0,000 mm 0,0 UV-I 0 W/m -0,1 C 5,5 C 4,8 km/h (1 Bft) 95,65 %
21.04.2019 02:02 5,4 C 2,2 C 14,4 C 15,0 C 12,8 C 67 % 20 cb 17 cb 21 cb 1024,6 hPa 0,0 l/m 3,2 km/h (1 Bft) W 270 0 min 0,000 mm 0,0 UV-I 0 W/m -0,2 C 5,4 C 4,8 km/h (1 Bft) 91,30 %
21.04.2019 02:01 5,4 C 2,2 C 14,4 C 15,0 C 12,8 C 67 % 20 cb 17 cb 21 cb 1024,7 hPa 0,0 l/m 3,2 km/h (1 Bft) W 270 0 min 0,000 mm 0,0 UV-I 0 W/m -0,2 C 5,4 C 4,8 km/h (1 Bft) 100,00 %
21.04.2019 02:00 5,3 C 2,2 C 14,4 C 15,0 C 12,8 C 68 % 20 cb 17 cb 21 cb 1024,7 hPa 0,0 l/m 3,2 km/h (1 Bft) W 270 0 min 0,025 mm 0,0 UV-I 0 W/m -0,1 C 5,3 C 4,8 km/h (1 Bft) 86,96 %
21.04.2019 01:59 5,3 C 2,2 C 14,4 C 15,0 C 12,8 C 68 % 20 cb 17 cb 21 cb 1024,7 hPa 0,0 l/m 4,8 km/h (1 Bft) W 270 0 min 0,000 mm 0,0 UV-I 0 W/m -0,1 C 5,3 C 4,8 km/h (1 Bft) 95,65 %
21.04.2019 01:58 5,2 C 2,2 C 14,4 C 15,0 C 12,8 C 68 % 20 cb 17 cb 21 cb 1024,7 hPa 0,0 l/m 4,8 km/h (1 Bft) W 270 0 min 0,000 mm 0,0 UV-I 0 W/m -0,2 C 5,2 C 4,8 km/h (1 Bft) 95,65 %
21.04.2019 01:57 5,2 C 2,2 C 14,4 C 15,0 C 12,8 C 68 % 20 cb 17 cb 21 cb 1024,7 hPa 0,0 l/m 4,8 km/h (1 Bft) W 270 0 min 0,000 mm 0,0 UV-I 0 W/m -0,2 C 5,2 C 4,8 km/h (1 Bft) 86,96 %
21.04.2019 01:56 5,1 C 2,2 C 14,4 C 15,0 C 12,8 C 68 % 20 cb 17 cb 21 cb 1024,7 hPa 0,0 l/m 3,2 km/h (1 Bft) W 270 0 min 0,000 mm 0,0 UV-I 0 W/m -0,3 C 5,1 C 4,8 km/h (1 Bft) 91,30 %
21.04.2019 01:55 5,0 C 2,8 C 14,4 C 15,0 C 12,8 C 69 % 20 cb 17 cb 21 cb 1024,7 hPa 0,0 l/m 3,2 km/h (1 Bft) W 270 0 min 0,000 mm 0,0 UV-I 0 W/m -0,2 C 5,0 C 4,8 km/h (1 Bft) 86,96 %
21.04.2019 01:54 4,9 C 2,8 C 14,4 C 15,0 C 12,8 C 69 % 20 cb 17 cb 21 cb 1024,8 hPa 0,0 l/m 4,8 km/h (1 Bft) W 270 0 min 0,000 mm 0,0 UV-I 0 W/m -0,3 C 4,9 C 4,8 km/h (1 Bft) 91,30 %
21.04.2019 01:53 4,9 C 2,8 C 14,4 C 15,0 C 12,8 C 69 % 20 cb 17 cb 21 cb 1024,7 hPa 0,0 l/m 3,2 km/h (1 Bft) W 270 0 min 0,000 mm 0,0 UV-I 0 W/m -0,3 C 4,9 C 6,4 km/h (2 Bft) 86,96 %
21.04.2019 01:52 4,8 C 2,8 C 14,4 C 15,0 C 12,8 C 69 % 20 cb 17 cb 21 cb 1024,8 hPa 0,0 l/m 3,2 km/h (1 Bft) W 270 0 min 0,000 mm 0,0 UV-I 0 W/m -0,4 C 4,8 C 4,8 km/h (1 Bft) 100,00 %
21.04.2019 01:51 4,8 C 2,8 C 14,4 C 15,0 C 12,8 C 68 % 20 cb 17 cb 21 cb 1024,7 hPa 0,0 l/m 4,8 km/h (1 Bft) W 270 0 min 0,000 mm 0,0 UV-I 0 W/m -0,6 C 4,8 C 4,8 km/h (1 Bft) 86,96 %
21.04.2019 01:50 4,8 C 2,8 C 14,4 C 15,0 C 12,8 C 68 % 20 cb 17 cb 21 cb 1024,8 hPa 0,0 l/m 3,2 km/h (1 Bft) W 270 0 min 0,000 mm 0,0 UV-I 0 W/m -0,6 C 4,8 C 4,8 km/h (1 Bft) 95,65 %
21.04.2019 01:49 4,8 C 2,8 C 14,4 C 15,0 C 12,8 C 69 % 20 cb 17 cb 21 cb 1024,7 hPa 0,0 l/m 4,8 km/h (1 Bft) W 270 0 min 0,000 mm 0,0 UV-I 0 W/m -0,4 C 4,8 C 4,8 km/h (1 Bft) 91,30 %
21.04.2019 01:48 4,8 C 2,8 C 14,4 C 15,0 C 12,8 C 68 % 20 cb 17 cb 21 cb 1024,8 hPa 0,0 l/m 4,8 km/h (1 Bft) W 270 0 min 0,000 mm 0,0 UV-I 0 W/m -0,6 C 4,8 C 4,8 km/h (1 Bft) 91,30 %
21.04.2019 01:47 4,8 C 3,3 C 14,4 C 15,0 C 12,8 C 68 % 20 cb 17 cb 21 cb 1024,7 hPa 0,0 l/m 4,8 km/h (1 Bft) W 270 0 min 0,000 mm 0,0 UV-I 0 W/m -0,6 C 4,8 C 4,8 km/h (1 Bft) 86,96 %
21.04.2019 01:46 4,8 C 3,3 C 14,4 C 15,0 C 12,8 C 68 % 20 cb 17 cb 21 cb 1024,8 hPa 0,0 l/m 4,8 km/h (1 Bft) W 270 0 min 0,000 mm 0,0 UV-I 0 W/m -0,6 C 4,8 C 4,8 km/h (1 Bft) 95,65 %
21.04.2019 01:45 4,8 C 3,3 C 14,4 C 15,0 C 12,8 C 68 % 20 cb 17 cb 21 cb 1024,8 hPa 0,0 l/m 3,2 km/h (1 Bft) W 270 0 min 0,000 mm 0,0 UV-I 0 W/m -0,6 C 4,8 C 4,8 km/h (1 Bft) 91,30 %
21.04.2019 01:44 4,9 C 2,8 C 14,4 C 15,0 C 12,8 C 68 % 20 cb 17 cb 21 cb 1024,9 hPa 0,0 l/m 3,2 km/h (1 Bft) W 270 0 min 0,000 mm 0,0 UV-I 0 W/m -0,5 C 4,9 C 4,8 km/h (1 Bft) 91,30 %
21.04.2019 01:43 4,9 C 2,8 C 14,4 C 15,0 C 12,8 C 67 % 20 cb 17 cb 21 cb 1024,8 hPa 0,0 l/m 3,2 km/h (1 Bft) W-SW 247 0 min 0,000 mm 0,0 UV-I 0 W/m -0,7 C 4,9 C 3,2 km/h (1 Bft) 91,30 %
21.04.2019 01:42 5,0 C 2,8 C 14,4 C 15,0 C 12,8 C 67 % 20 cb 17 cb 21 cb 1024,9 hPa 0,0 l/m 3,2 km/h (1 Bft) W-SW 247 0 min 0,000 mm 0,0 UV-I 0 W/m -0,6 C 5,0 C 3,2 km/h (1 Bft) 95,65 %
21.04.2019 01:41 5,1 C 2,8 C 14,4 C 15,0 C 12,8 C 67 % 20 cb 17 cb 21 cb 1024,9 hPa 0,0 l/m 3,2 km/h (1 Bft) W-SW 247 0 min 0,000 mm 0,0 UV-I 0 W/m -0,5 C 5,1 C 3,2 km/h (1 Bft) 91,30 %
21.04.2019 01:40 5,2 C 2,8 C 14,4 C 15,0 C 12,8 C 67 % 20 cb 17 cb 21 cb 1024,9 hPa 0,0 l/m 1,6 km/h (1 Bft) W-SW 247 0 min 0,000 mm 0,0 UV-I 0 W/m -0,4 C 5,2 C 3,2 km/h (1 Bft) 86,96 %
21.04.2019 01:39 5,3 C 2,8 C 14,4 C 15,0 C 12,8 C 67 % 20 cb 17 cb 21 cb 1024,8 hPa 0,0 l/m 0,0 km/h (0 Bft) W-SW 247 0 min 0,000 mm 0,0 UV-I 0 W/m -0,3 C 5,3 C 1,6 km/h (1 Bft) 95,65 %
21.04.2019 01:38 5,3 C 2,8 C 14,4 C 15,0 C 12,8 C 67 % 20 cb 17 cb 21 cb 1024,9 hPa 0,0 l/m 1,6 km/h (1 Bft) W-SW 247 0 min 0,000 mm 0,0 UV-I 0 W/m -0,3 C 5,3 C 1,6 km/h (1 Bft) 91,30 %
21.04.2019 01:37 5,4 C 2,2 C 14,4 C 15,0 C 12,8 C 67 % 20 cb 17 cb 21 cb 1024,9 hPa 0,0 l/m 0,0 km/h (0 Bft) W-SW 247 0 min 0,000 mm 0,0 UV-I 0 W/m -0,2 C 5,4 C 1,6 km/h (1 Bft) 91,30 %
21.04.2019 01:36 5,4 C 2,2 C 14,4 C 15,0 C 12,8 C 67 % 20 cb 17 cb 21 cb 1024,9 hPa 0,0 l/m 1,6 km/h (1 Bft) W-SW 247 0 min 0,000 mm 0,0 UV-I 0 W/m -0,2 C 5,4 C 1,6 km/h (1 Bft) 86,96 %
21.04.2019 01:35 5,5 C 1,7 C 14,4 C 15,0 C 12,8 C 68 % 20 cb 17 cb 21 cb 1024,9 hPa 0,0 l/m 1,6 km/h (1 Bft) W-SW 247 0 min 0,000 mm 0,0 UV-I 0 W/m 0,1 C 5,5 C 1,6 km/h (1 Bft) 95,65 %
21.04.2019 01:34 5,5 C 1,7 C 14,4 C 15,0 C 12,8 C 69 % 20 cb 17 cb 21 cb 1024,8 hPa 0,0 l/m 1,6 km/h (1 Bft) W-SW 247 0 min 0,000 mm 0,0 UV-I 0 W/m 0,3 C 5,5 C 3,2 km/h (1 Bft) 91,30 %
21.04.2019 01:33 5,4 C 1,7 C 14,4 C 15,0 C 12,8 C 69 % 20 cb 17 cb 21 cb 1024,8 hPa 0,0 l/m 3,2 km/h (1 Bft) W-SW 247 0 min 0,000 mm 0,0 UV-I 0 W/m 0,2 C 5,4 C 4,8 km/h (1 Bft) 95,65 %
21.04.2019 01:32 5,3 C 1,7 C 14,4 C 15,0 C 12,8 C 70 % 20 cb 17 cb 21 cb 1024,8 hPa 0,0 l/m 3,2 km/h (1 Bft) W-SW 247 0 min 0,000 mm 0,0 UV-I 0 W/m 0,3 C 5,3 C 4,8 km/h (1 Bft) 95,65 %
21.04.2019 01:31 5,3 C 1,7 C 14,4 C 15,0 C 12,8 C 71 % 20 cb 17 cb 21 cb 1024,9 hPa 0,0 l/m 3,2 km/h (1 Bft) W-SW 247 0 min 0,000 mm 0,0 UV-I 0 W/m 0,5 C 5,3 C 4,8 km/h (1 Bft) 91,30 %
21.04.2019 01:30 5,1 C 1,7 C 14,4 C 15,0 C 12,8 C 71 % 20 cb 17 cb 21 cb 1024,9 hPa 0,0 l/m 3,2 km/h (1 Bft) W-SW 247 0 min 0,000 mm 0,0 UV-I 0 W/m 0,3 C 5,1 C 4,8 km/h (1 Bft) 100,00 %
21.04.2019 01:29 4,9 C 1,7 C 14,4 C 15,0 C 12,8 C 71 % 20 cb 17 cb 21 cb 1024,9 hPa 0,0 l/m 4,8 km/h (1 Bft) W-SW 247 0 min 0,000 mm 0,0 UV-I 0 W/m 0,1 C 4,9 C 6,4 km/h (2 Bft) 91,30 %
21.04.2019 01:28 4,7 C 1,7 C 14,4 C 15,0 C 12,8 C 71 % 20 cb 17 cb 21 cb 1024,8 hPa 0,0 l/m 4,8 km/h (1 Bft) W-SW 247 0 min 0,000 mm 0,0 UV-I 0 W/m -0,1 C 4,7 C 6,4 km/h (2 Bft) 91,30 %
21.04.2019 01:27 4,7 C 1,7 C 15,0 C 15,0 C 12,8 C 70 % 20 cb 17 cb 21 cb 1024,8 hPa 0,0 l/m 6,4 km/h (2 Bft) W-SW 247 0 min 0,000 mm 0,0 UV-I 0 W/m -0,3 C 4,7 C 6,4 km/h (2 Bft) 95,65 %
21.04.2019 01:26 4,6 C 1,7 C 15,0 C 15,0 C 12,8 C 68 % 20 cb 17 cb 21 cb 1024,8 hPa 0,0 l/m 4,8 km/h (1 Bft) W-SW 247 0 min 0,000 mm 0,0 UV-I 0 W/m -0,8 C 4,6 C 6,4 km/h (2 Bft) 95,65 %
21.04.2019 01:25 4,7 C 1,7 C 15,0 C 15,0 C 12,8 C 68 % 20 cb 17 cb 21 cb 1024,8 hPa 0,0 l/m 4,8 km/h (1 Bft) W-SW 247 0 min 0,000 mm 0,0 UV-I 0 W/m -0,7 C 4,7 C 6,4 km/h (2 Bft) 91,30 %
21.04.2019 01:24 4,8 C 1,7 C 15,0 C 15,0 C 12,8 C 67 % 20 cb 17 cb 21 cb 1024,8 hPa 0,0 l/m 4,8 km/h (1 Bft) SW 225 0 min 0,000 mm 0,0 UV-I 0 W/m -0,8 C 4,8 C 6,4 km/h (2 Bft) 100,00 %
21.04.2019 01:23 4,9 C 1,7 C 15,0 C 15,0 C 12,8 C 66 % 20 cb 17 cb 21 cb 1024,8 hPa 0,0 l/m 6,4 km/h (2 Bft) SW 225 0 min 0,000 mm 0,0 UV-I 0 W/m -0,9 C 4,9 C 6,4 km/h (2 Bft) 91,30 %
21.04.2019 01:22 5,0 C 1,7 C 15,0 C 15,0 C 12,8 C 66 % 20 cb 17 cb 21 cb 1024,8 hPa 0,0 l/m 4,8 km/h (1 Bft) W-SW 247 0 min 0,000 mm 0,0 UV-I 0 W/m -0,8 C 5,0 C 6,4 km/h (2 Bft) 91,30 %
21.04.2019 01:21 5,1 C 1,7 C 15,0 C 15,0 C 12,8 C 65 % 20 cb 17 cb 21 cb 1024,8 hPa 0,0 l/m 4,8 km/h (1 Bft) SW 225 0 min 0,000 mm 0,0 UV-I 0 W/m -0,9 C 5,1 C 6,4 km/h (2 Bft) 100,00 %
21.04.2019 01:20 5,2 C 1,7 C 15,0 C 15,0 C 12,8 C 65 % 20 cb 17 cb 21 cb 1024,7 hPa 0,0 l/m 4,8 km/h (1 Bft) W-SW 247 0 min 0,000 mm 0,0 UV-I 0 W/m -0,8 C 5,2 C 6,4 km/h (2 Bft) 86,96 %
21.04.2019 01:19 5,3 C 1,7 C 15,0 C 15,0 C 12,8 C 65 % 20 cb 17 cb 21 cb 1024,7 hPa 0,0 l/m 4,8 km/h (1 Bft) W-SW 247 0 min 0,000 mm 0,0 UV-I 0 W/m -0,7 C 5,3 C 6,4 km/h (2 Bft) 95,65 %
21.04.2019 01:18 5,4 C 1,7 C 15,0 C 15,0 C 12,8 C 64 % 20 cb 17 cb 21 cb 1024,8 hPa 0,0 l/m 4,8 km/h (1 Bft) W-SW 247 0 min 0,000 mm 0,0 UV-I 0 W/m -0,9 C 5,4 C 6,4 km/h (2 Bft) 95,65 %
21.04.2019 01:17 5,4 C 1,7 C 15,0 C 15,0 C 12,8 C 64 % 20 cb 17 cb 21 cb 1024,8 hPa 0,0 l/m 4,8 km/h (1 Bft) W-SW 247 0 min 0,000 mm 0,0 UV-I 0 W/m -0,9 C 5,4 C 4,8 km/h (1 Bft) 95,65 %
21.04.2019 01:16 5,6 C 1,7 C 15,0 C 15,0 C 12,8 C 63 % 20 cb 17 cb 21 cb 1024,7 hPa 0,0 l/m 4,8 km/h (1 Bft) W-SW 247 0 min 0,000 mm 0,0 UV-I 0 W/m -0,9 C 5,6 C 6,4 km/h (2 Bft) 91,30 %
21.04.2019 01:15 5,7 C 1,7 C 15,0 C 15,0 C 12,8 C 63 % 20 cb 17 cb 21 cb 1024,8 hPa 0,0 l/m 4,8 km/h (1 Bft) W-SW 247 0 min 0,000 mm 0,0 UV-I 0 W/m -0,8 C 5,7 C 4,8 km/h (1 Bft) 91,30 %
21.04.2019 01:14 5,8 C 2,2 C 15,0 C 15,0 C 12,8 C 62 % 20 cb 17 cb 21 cb 1024,8 hPa 0,0 l/m 3,2 km/h (1 Bft) W 270 0 min 0,000 mm 0,0 UV-I 0 W/m -0,9 C 5,8 C 4,8 km/h (1 Bft) 91,30 %
21.04.2019 01:13 6,1 C 2,2 C 15,0 C 15,0 C 12,8 C 62 % 20 cb 17 cb 21 cb 1024,8 hPa 0,0 l/m 3,2 km/h (1 Bft) W-NW 292 0 min 0,000 mm 0,0 UV-I 0 W/m -0,6 C 6,1 C 4,8 km/h (1 Bft) 95,65 %
21.04.2019 01:12 6,2 C 2,8 C 15,0 C 15,0 C 12,8 C 62 % 20 cb 17 cb 21 cb 1024,8 hPa 0,0 l/m 3,2 km/h (1 Bft) W-NW 292 0 min 0,000 mm 0,0 UV-I 0 W/m -0,5 C 6,2 C 4,8 km/h (1 Bft) 95,65 %
21.04.2019 01:11 6,2 C 2,8 C 15,0 C 15,0 C 12,8 C 62 % 20 cb 17 cb 21 cb 1024,8 hPa 0,0 l/m 3,2 km/h (1 Bft) NW 315 0 min 0,000 mm 0,0 UV-I 0 W/m -0,5 C 6,2 C 3,2 km/h (1 Bft) 91,30 %
21.04.2019 01:10 6,3 C 2,8 C 15,0 C 15,0 C 12,8 C 62 % 20 cb 17 cb 21 cb 1024,8 hPa 0,0 l/m 3,2 km/h (1 Bft) NW 315 0 min 0,000 mm 0,0 UV-I 0 W/m -0,4 C 6,3 C 3,2 km/h (1 Bft) 95,65 %
21.04.2019 01:09 6,3 C 2,8 C 15,0 C 15,0 C 12,8 C 62 % 20 cb 17 cb 21 cb 1024,9 hPa 0,0 l/m 1,6 km/h (1 Bft) NW 315 0 min 0,000 mm 0,0 UV-I 0 W/m -0,4 C 6,3 C 3,2 km/h (1 Bft) 95,65 %
21.04.2019 01:08 6,4 C 2,8 C 15,0 C 15,0 C 12,8 C 62 % 20 cb 17 cb 21 cb 1024,9 hPa 0,0 l/m 0,0 km/h (0 Bft) N 0 0 min 0,000 mm 0,0 UV-I 0 W/m -0,3 C 6,4 C 0,0 km/h (0 Bft) 95,65 %
21.04.2019 01:07 6,4 C 3,3 C 15,0 C 15,0 C 12,8 C 61 % 20 cb 17 cb 21 cb 1024,9 hPa 0,0 l/m 0,0 km/h (0 Bft) N 0 0 min 0,000 mm 0,0 UV-I 0 W/m -0,6 C 6,4 C 0,0 km/h (0 Bft) 82,61 %
21.04.2019 01:06 6,6 C 3,3 C 15,0 C 15,0 C 12,8 C 61 % 20 cb 17 cb 21 cb 1024,9 hPa 0,0 l/m 0,0 km/h (0 Bft) N 0 0 min 0,000 mm 0,0 UV-I 0 W/m -0,4 C 6,6 C 0,0 km/h (0 Bft) 100,00 %
21.04.2019 01:05 6,6 C 3,3 C 15,0 C 15,0 C 12,8 C 61 % 20 cb 17 cb 21 cb 1024,9 hPa 0,0 l/m 1,6 km/h (1 Bft) NW 315 0 min 0,000 mm 0,0 UV-I 0 W/m -0,4 C 6,6 C 1,6 km/h (1 Bft) 91,30 %
21.04.2019 01:04 6,7 C 3,3 C 15,0 C 15,0 C 12,8 C 60 % 20 cb 17 cb 21 cb 1024,9 hPa 0,0 l/m 0,0 km/h (0 Bft) NW 315 0 min 0,000 mm 0,0 UV-I 0 W/m -0,5 C 6,7 C 1,6 km/h (1 Bft) 95,65 %
21.04.2019 01:03 6,7 C 3,3 C 15,0 C 15,0 C 12,8 C 60 % 20 cb 17 cb 21 cb 1024,9 hPa 0,0 l/m 0,0 km/h (0 Bft) N 0 0 min 0,000 mm 0,0 UV-I 0 W/m -0,5 C 6,7 C 0,0 km/h (0 Bft) 100,00 %
21.04.2019 01:02 6,8 C 2,8 C 15,0 C 15,0 C 12,8 C 59 % 20 cb 17 cb 21 cb 1025,0 hPa 0,0 l/m 0,0 km/h (0 Bft) NW 315 0 min 0,000 mm 0,0 UV-I 0 W/m -0,6 C 6,8 C 1,6 km/h (1 Bft) 95,65 %
21.04.2019 01:01 6,8 C 2,2 C 15,0 C 15,0 C 12,8 C 59 % 20 cb 17 cb 21 cb 1024,8 hPa 0,0 l/m 0,0 km/h (0 Bft) N 0 0 min 0,000 mm 0,0 UV-I 0 W/m -0,6 C 6,8 C 0,0 km/h (0 Bft) 95,65 %
21.04.2019 01:00 6,8 C 2,2 C 15,0 C 15,0 C 12,8 C 59 % 20 cb 17 cb 21 cb 1024,9 hPa 0,0 l/m 0,0 km/h (0 Bft) N 0 0 min 0,025 mm 0,0 UV-I 0 W/m -0,6 C 6,8 C 0,0 km/h (0 Bft) 95,65 %
21.04.2019 00:59 6,8 C 2,2 C 15,0 C 15,0 C 12,8 C 59 % 20 cb 17 cb 21 cb 1024,9 hPa 0,0 l/m 0,0 km/h (0 Bft) NW 315 0 min 0,000 mm 0,0 UV-I 0 W/m -0,6 C 6,8 C 1,6 km/h (1 Bft) 100,00 %
21.04.2019 00:58 6,9 C 2,2 C 15,0 C 15,0 C 12,8 C 58 % 20 cb 17 cb 21 cb 1024,9 hPa 0,0 l/m 0,0 km/h (0 Bft) NW 315 0 min 0,000 mm 0,0 UV-I 0 W/m -0,8 C 6,9 C 1,6 km/h (1 Bft) 86,96 %
21.04.2019 00:57 7,1 C 2,2 C 15,0 C 15,0 C 12,8 C 57 % 20 cb 17 cb 21 cb 1025,0 hPa 0,0 l/m 0,0 km/h (0 Bft) N 0 0 min 0,000 mm 0,0 UV-I 0 W/m -0,8 C 7,1 C 0,0 km/h (0 Bft) 95,65 %
21.04.2019 00:56 7,3 C 2,2 C 15,0 C 15,0 C 12,8 C 57 % 20 cb 17 cb 21 cb 1024,9 hPa 0,0 l/m 0,0 km/h (0 Bft) NW 315 0 min 0,000 mm 0,0 UV-I 0 W/m -0,6 C 7,3 C 1,6 km/h (1 Bft) 95,65 %
21.04.2019 00:55 7,5 C 2,2 C 15,0 C 15,0 C 12,8 C 56 % 20 cb 17 cb 21 cb 1025,1 hPa 0,0 l/m 1,6 km/h (1 Bft) NW 315 0 min 0,000 mm 0,0 UV-I 0 W/m -0,7 C 7,5 C 3,2 km/h (1 Bft) 95,65 %
21.04.2019 00:54 7,6 C 2,8 C 15,0 C 15,0 C 12,8 C 55 % 20 cb 17 cb 21 cb 1025,0 hPa 0,0 l/m 3,2 km/h (1 Bft) N-NW 337 0 min 0,000 mm 0,0 UV-I 0 W/m -0,9 C 7,6 C 3,2 km/h (1 Bft) 91,30 %
21.04.2019 00:53 7,6 C 2,8 C 15,0 C 15,0 C 12,8 C 55 % 20 cb 17 cb 21 cb 1025,0 hPa 0,0 l/m 1,6 km/h (1 Bft) N-NW 337 0 min 0,000 mm 0,0 UV-I 0 W/m -0,9 C 7,6 C 1,6 km/h (1 Bft) 100,00 %
21.04.2019 00:52 7,6 C 2,8 C 15,0 C 15,0 C 12,8 C 55 % 20 cb 17 cb 21 cb 1025,0 hPa 0,0 l/m 1,6 km/h (1 Bft) N-NW 337 0 min 0,000 mm 0,0 UV-I 0 W/m -0,9 C 7,6 C 1,6 km/h (1 Bft) 95,65 %
21.04.2019 00:51 7,6 C 2,8 C 15,0 C 15,0 C 12,8 C 55 % 20 cb 17 cb 21 cb 1025,0 hPa 0,0 l/m 1,6 km/h (1 Bft) N-NW 337 0 min 0,000 mm 0,0 UV-I 0 W/m -0,9 C 7,6 C 1,6 km/h (1 Bft) 95,65 %
21.04.2019 00:50 7,6 C 2,2 C 15,0 C 15,0 C 12,8 C 55 % 20 cb 17 cb 21 cb 1025,1 hPa 0,0 l/m 1,6 km/h (1 Bft) N-NW 337 0 min 0,000 mm 0,0 UV-I 0 W/m -0,9 C 7,6 C 3,2 km/h (1 Bft) 100,00 %
21.04.2019 00:49 7,5 C 2,2 C 15,0 C 15,0 C 12,8 C 55 % 20 cb 17 cb 21 cb 1025,0 hPa 0,0 l/m 1,6 km/h (1 Bft) O-NO 67 0 min 0,000 mm 0,0 UV-I 0 W/m -0,9 C 7,5 C 3,2 km/h (1 Bft) 86,96 %
21.04.2019 00:48 7,4 C 2,2 C 15,0 C 15,0 C 12,8 C 57 % 20 cb 17 cb 21 cb 1025,1 hPa 0,0 l/m 1,6 km/h (1 Bft) O-NO 67 0 min 0,000 mm 0,0 UV-I 0 W/m -0,5 C 7,4 C 3,2 km/h (1 Bft) 95,65 %
21.04.2019 00:47 7,3 C 2,2 C 15,0 C 15,0 C 12,8 C 57 % 20 cb 17 cb 21 cb 1025,0 hPa 0,0 l/m 3,2 km/h (1 Bft) O-NO 67 0 min 0,000 mm 0,0 UV-I 0 W/m -0,6 C 7,3 C 3,2 km/h (1 Bft) 100,00 %
21.04.2019 00:46 7,3 C 2,2 C 15,0 C 15,0 C 12,8 C 57 % 20 cb 17 cb 21 cb 1025,1 hPa 0,0 l/m 3,2 km/h (1 Bft) O-NO 67 0 min 0,000 mm 0,0 UV-I 0 W/m -0,6 C 7,3 C 3,2 km/h (1 Bft) 95,65 %
21.04.2019 00:45 7,3 C 2,2 C 15,0 C 15,0 C 12,8 C 57 % 20 cb 17 cb 21 cb 1025,1 hPa 0,0 l/m 3,2 km/h (1 Bft) O-NO 67 0 min 0,000 mm 0,0 UV-I 0 W/m -0,6 C 7,3 C 3,2 km/h (1 Bft) 95,65 %
21.04.2019 00:44 7,3 C 2,2 C 15,0 C 15,0 C 12,8 C 57 % 20 cb 17 cb 21 cb 1025,2 hPa 0,0 l/m 3,2 km/h (1 Bft) O-NO 67 0 min 0,000 mm 0,0 UV-I 0 W/m -0,6 C 7,3 C 3,2 km/h (1 Bft) 91,30 %
21.04.2019 00:43 7,4 C 2,2 C 15,0 C 15,0 C 12,8 C 57 % 20 cb 17 cb 21 cb 1025,2 hPa 0,0 l/m 3,2 km/h (1 Bft) O-NO 67 0 min 0,000 mm 0,0 UV-I 0 W/m -0,5 C 7,4 C 3,2 km/h (1 Bft) 95,65 %
21.04.2019 00:42 7,5 C 2,8 C 15,0 C 15,0 C 12,8 C 56 % 20 cb 17 cb 21 cb 1025,1 hPa 0,0 l/m 3,2 km/h (1 Bft) O-NO 67 0 min 0,000 mm 0,0 UV-I 0 W/m -0,7 C 7,5 C 3,2 km/h (1 Bft) 95,65 %
21.04.2019 00:41 7,6 C 2,8 C 15,0 C 15,0 C 12,8 C 56 % 20 cb 17 cb 21 cb 1025,1 hPa 0,0 l/m 3,2 km/h (1 Bft) O-NO 67 0 min 0,000 mm 0,0 UV-I 0 W/m -0,6 C 7,6 C 3,2 km/h (1 Bft) 95,65 %
21.04.2019 00:40 7,6 C 3,3 C 15,0 C 15,0 C 12,8 C 56 % 20 cb 17 cb 21 cb 1025,1 hPa 0,0 l/m 1,6 km/h (1 Bft) O-NO 67 0 min 0,000 mm 0,0 UV-I 0 W/m -0,6 C 7,6 C 3,2 km/h (1 Bft) 91,30 %
21.04.2019 00:39 7,6 C 3,3 C 15,0 C 15,0 C 12,8 C 56 % 20 cb 17 cb 21 cb 1025,2 hPa 0,0 l/m 0,0 km/h (0 Bft) O-NO 67 0 min 0,000 mm 0,0 UV-I 0 W/m -0,6 C 7,6 C 1,6 km/h (1 Bft) 86,96 %
21.04.2019 00:38 7,6 C 3,9 C 15,0 C 15,0 C 12,8 C 56 % 20 cb 17 cb 21 cb 1025,1 hPa 0,0 l/m 0,0 km/h (0 Bft) N 0 0 min 0,000 mm 0,0 UV-I 0 W/m -0,6 C 7,6 C 0,0 km/h (0 Bft) 100,00 %
21.04.2019 00:37 7,5 C 3,9 C 15,0 C 15,0 C 12,8 C 56 % 20 cb 17 cb 21 cb 1025,2 hPa 0,0 l/m 0,0 km/h (0 Bft) N 0 0 min 0,000 mm 0,0 UV-I 0 W/m -0,7 C 7,5 C 0,0 km/h (0 Bft) 91,30 %
21.04.2019 00:36 7,4 C 3,9 C 15,0 C 15,6 C 12,8 C 57 % 20 cb 17 cb 21 cb 1025,2 hPa 0,0 l/m 0,0 km/h (0 Bft) N 0 0 min 0,000 mm 0,0 UV-I 0 W/m -0,5 C 7,4 C 0,0 km/h (0 Bft) 95,65 %
21.04.2019 00:35 7,4 C 3,9 C 15,0 C 15,6 C 12,8 C 57 % 20 cb 17 cb 21 cb 1025,1 hPa 0,0 l/m 0,0 km/h (0 Bft) O-NO 67 0 min 0,000 mm 0,0 UV-I 0 W/m -0,5 C 7,4 C 1,6 km/h (1 Bft) 95,65 %
21.04.2019 00:34 7,5 C 3,9 C 15,0 C 15,6 C 12,8 C 57 % 20 cb 17 cb 21 cb 1025,2 hPa 0,0 l/m 1,6 km/h (1 Bft) O-NO 67 0 min 0,000 mm 0,0 UV-I 0 W/m -0,5 C 7,5 C 1,6 km/h (1 Bft) 95,65 %
21.04.2019 00:33 7,6 C 3,3 C 15,0 C 15,6 C 12,8 C 57 % 20 cb 17 cb 21 cb 1025,2 hPa 0,0 l/m 0,0 km/h (0 Bft) N 0 0 min 0,000 mm 0,0 UV-I 0 W/m -0,4 C 7,6 C 0,0 km/h (0 Bft) 91,30 %
21.04.2019 00:32 7,7 C 3,3 C 15,0 C 15,6 C 12,8 C 56 % 20 cb 17 cb 21 cb 1025,2 hPa 0,0 l/m 0,0 km/h (0 Bft) O-NO 67 0 min 0,000 mm 0,0 UV-I 0 W/m -0,5 C 7,7 C 1,6 km/h (1 Bft) 95,65 %
21.04.2019 00:31 7,8 C 2,8 C 15,0 C 15,6 C 12,8 C 56 % 20 cb 17 cb 21 cb 1025,3 hPa 0,0 l/m 1,6 km/h (1 Bft) O-NO 67 0 min 0,000 mm 0,0 UV-I 0 W/m -0,4 C 7,8 C 1,6 km/h (1 Bft) 95,65 %
21.04.2019 00:30 7,9 C 3,3 C 15,0 C 15,6 C 12,8 C 55 % 20 cb 17 cb 21 cb 1025,2 hPa 0,0 l/m 0,0 km/h (0 Bft) O-NO 67 0 min 0,000 mm 0,0 UV-I 0 W/m -0,6 C 7,9 C 1,6 km/h (1 Bft) 91,30 %
21.04.2019 00:29 8,0 C 3,3 C 15,0 C 15,6 C 12,8 C 54 % 20 cb 17 cb 21 cb 1025,2 hPa 0,0 l/m 1,6 km/h (1 Bft) O-NO 67 0 min 0,000 mm 0,0 UV-I 0 W/m -0,7 C 8,0 C 3,2 km/h (1 Bft) 100,00 %
21.04.2019 00:28 8,1 C 2,8 C 15,0 C 15,6 C 12,8 C 53 % 20 cb 17 cb 21 cb 1025,2 hPa 0,0 l/m 1,6 km/h (1 Bft) O-NO 67 0 min 0,000 mm 0,0 UV-I 0 W/m -0,9 C 8,1 C 3,2 km/h (1 Bft) 91,30 %
21.04.2019 00:27 8,2 C 2,8 C 15,0 C 15,6 C 12,8 C 53 % 20 cb 17 cb 21 cb 1025,2 hPa 0,0 l/m 1,6 km/h (1 Bft) O-NO 67 0 min 0,000 mm 0,0 UV-I 0 W/m -0,8 C 8,2 C 3,2 km/h (1 Bft) 95,65 %
21.04.2019 00:26 8,3 C 2,8 C 15,0 C 15,6 C 12,8 C 53 % 20 cb 17 cb 21 cb 1025,2 hPa 0,0 l/m 1,6 km/h (1 Bft) O-NO 67 0 min 0,000 mm 0,0 UV-I 0 W/m -0,7 C 8,3 C 3,2 km/h (1 Bft) 95,65 %
21.04.2019 00:25 8,3 C 2,8 C 15,6 C 15,6 C 12,8 C 53 % 20 cb 17 cb 21 cb 1025,2 hPa 0,0 l/m 1,6 km/h (1 Bft) O-NO 67 0 min 0,000 mm 0,0 UV-I 0 W/m -0,7 C 8,3 C 1,6 km/h (1 Bft) 91,30 %
21.04.2019 00:24 8,3 C 3,3 C 15,6 C 15,6 C 12,8 C 53 % 20 cb 17 cb 21 cb 1025,2 hPa 0,0 l/m 1,6 km/h (1 Bft) O-NO 67 0 min 0,000 mm 0,0 UV-I 0 W/m -0,7 C 8,3 C 3,2 km/h (1 Bft) 91,30 %
21.04.2019 00:23 8,1 C 3,3 C 15,6 C 15,6 C 12,8 C 54 % 20 cb 17 cb 21 cb 1025,1 hPa 0,0 l/m 1,6 km/h (1 Bft) O-NO 67 0 min 0,000 mm 0,0 UV-I 0 W/m -0,6 C 8,1 C 1,6 km/h (1 Bft) 100,00 %
21.04.2019 00:22 8,1 C 3,3 C 15,6 C 15,6 C 12,8 C 54 % 20 cb 17 cb 21 cb 1025,2 hPa 0,0 l/m 0,0 km/h (0 Bft) O-NO 67 0 min 0,000 mm 0,0 UV-I 0 W/m -0,6 C 8,1 C 1,6 km/h (1 Bft) 91,30 %
21.04.2019 00:21 7,9 C 3,3 C 15,6 C 15,6 C 12,8 C 54 % 20 cb 17 cb 21 cb 1025,2 hPa 0,0 l/m 1,6 km/h (1 Bft) O-NO 67 0 min 0,000 mm 0,0 UV-I 0 W/m -0,8 C 7,9 C 1,6 km/h (1 Bft) 91,30 %
21.04.2019 00:20 7,9 C 2,8 C 15,6 C 15,6 C 12,8 C 54 % 20 cb 17 cb 21 cb 1025,2 hPa 0,0 l/m 1,6 km/h (1 Bft) O-NO 67 0 min 0,000 mm 0,0 UV-I 0 W/m -0,8 C 7,9 C 1,6 km/h (1 Bft) 95,65 %
21.04.2019 00:19 8,1 C 2,8 C 15,6 C 15,6 C 12,8 C 54 % 20 cb 17 cb 21 cb 1025,2 hPa 0,0 l/m 1,6 km/h (1 Bft) O-NO 67 0 min 0,000 mm 0,0 UV-I 0 W/m -0,6 C 8,1 C 3,2 km/h (1 Bft) 95,65 %
21.04.2019 00:18 8,1 C 3,3 C 15,6 C 15,6 C 12,8 C 54 % 20 cb 17 cb 21 cb 1025,1 hPa 0,0 l/m 1,6 km/h (1 Bft) O-NO 67 0 min 0,000 mm 0,0 UV-I 0 W/m -0,6 C 8,1 C 3,2 km/h (1 Bft) 91,30 %
21.04.2019 00:17 8,1 C 3,3 C 15,6 C 15,6 C 12,8 C 54 % 20 cb 17 cb 21 cb 1025,2 hPa 0,0 l/m 1,6 km/h (1 Bft) O-NO 67 0 min 0,000 mm 0,0 UV-I 0 W/m -0,6 C 8,1 C 3,2 km/h (1 Bft) 91,30 %
21.04.2019 00:16 7,9 C 3,9 C 15,6 C 15,6 C 12,8 C 55 % 20 cb 17 cb 21 cb 1025,1 hPa 0,0 l/m 0,0 km/h (0 Bft) O-NO 67 0 min 0,000 mm 0,0 UV-I 0 W/m -0,6 C 7,9 C 1,6 km/h (1 Bft) 100,00 %
21.04.2019 00:15 7,9 C 3,3 C 15,6 C 15,6 C 12,8 C 54 % 20 cb 17 cb 21 cb 1025,1 hPa 0,0 l/m 1,6 km/h (1 Bft) O-NO 67 0 min 0,000 mm 0,0 UV-I 0 W/m -0,8 C 7,9 C 1,6 km/h (1 Bft) 95,65 %
21.04.2019 00:14 8,1 C 3,3 C 15,6 C 15,6 C 12,8 C 53 % 20 cb 17 cb 21 cb 1025,1 hPa 0,0 l/m 1,6 km/h (1 Bft) O-NO 67 0 min 0,000 mm 0,0 UV-I 0 W/m -0,9 C 8,1 C 3,2 km/h (1 Bft) 95,65 %
21.04.2019 00:13 8,4 C 3,3 C 15,6 C 15,6 C 12,8 C 52 % 20 cb 17 cb 21 cb 1025,1 hPa 0,0 l/m 1,6 km/h (1 Bft) O-NO 67 0 min 0,000 mm 0,0 UV-I 0 W/m -0,9 C 8,4 C 3,2 km/h (1 Bft) 100,00 %
21.04.2019 00:12 8,6 C 3,9 C 15,6 C 15,6 C 12,8 C 52 % 20 cb 17 cb 21 cb 1025,1 hPa 0,0 l/m 1,6 km/h (1 Bft) O-NO 67 0 min 0,000 mm 0,0 UV-I 0 W/m -0,7 C 8,6 C 1,6 km/h (1 Bft) 86,96 %
21.04.2019 00:11 8,8 C 4,4 C 15,6 C 15,6 C 12,8 C 52 % 20 cb 17 cb 21 cb 1025,1 hPa 0,0 l/m 0,0 km/h (0 Bft) N 0 0 min 0,000 mm 0,0 UV-I 0 W/m -0,5 C 8,8 C 0,0 km/h (0 Bft) 95,65 %
21.04.2019 00:10 8,8 C 4,4 C 15,6 C 15,6 C 12,8 C 52 % 20 cb 17 cb 21 cb 1025,1 hPa 0,0 l/m 0,0 km/h (0 Bft) O-NO 67 0 min 0,000 mm 0,0 UV-I 0 W/m -0,5 C 8,8 C 1,6 km/h (1 Bft) 95,65 %
21.04.2019 00:09 8,8 C 4,4 C 15,6 C 15,6 C 12,8 C 51 % 20 cb 17 cb 21 cb 1025,2 hPa 0,0 l/m 1,6 km/h (1 Bft) O-NO 67 0 min 0,000 mm 0,0 UV-I 0 W/m -0,8 C 8,8 C 1,6 km/h (1 Bft) 95,65 %
21.04.2019 00:08 8,9 C 4,4 C 15,6 C 15,6 C 12,8 C 51 % 20 cb 17 cb 21 cb 1025,1 hPa 0,0 l/m 1,6 km/h (1 Bft) O-NO 67 0 min 0,000 mm 0,0 UV-I 0 W/m -0,7 C 8,9 C 3,2 km/h (1 Bft) 95,65 %
21.04.2019 00:07 9,1 C 3,9 C 15,6 C 15,6 C 12,8 C 50 % 20 cb 17 cb 21 cb 1025,1 hPa 0,0 l/m 1,6 km/h (1 Bft) O-NO 67 0 min 0,000 mm 0,0 UV-I 0 W/m -0,8 C 9,1 C 3,2 km/h (1 Bft) 95,65 %
21.04.2019 00:06 9,3 C 3,9 C 15,6 C 15,6 C 12,8 C 49 % 20 cb 17 cb 21 cb 1025,1 hPa 0,0 l/m 3,2 km/h (1 Bft) O-NO 67 0 min 0,000 mm 0,0 UV-I 0 W/m -0,9 C 9,3 C 3,2 km/h (1 Bft) 91,30 %
21.04.2019 00:05 9,6 C 3,9 C 15,6 C 15,6 C 12,8 C 47 % 20 cb 17 cb 21 cb 1025,1 hPa 0,0 l/m 1,6 km/h (1 Bft) O-NO 67 0 min 0,000 mm 0,0 UV-I 0 W/m -1,1 C 9,6 C 3,2 km/h (1 Bft) 95,65 %
21.04.2019 00:04 9,8 C 3,9 C 15,6 C 15,6 C 12,8 C 47 % 20 cb 17 cb 21 cb 1025,1 hPa 0,0 l/m 0,0 km/h (0 Bft) N 0 0 min 0,000 mm 0,0 UV-I 0 W/m -1,0 C 9,8 C 0,0 km/h (0 Bft) 95,65 %
21.04.2019 00:03 10,0 C 4,4 C 15,6 C 15,6 C 12,8 C 45 % 20 cb 17 cb 21 cb 1025,1 hPa 0,0 l/m 0,0 km/h (0 Bft) N 0 0 min 0,000 mm 0,0 UV-I 0 W/m -1,4 C 10,0 C 0,0 km/h (0 Bft) 91,30 %
21.04.2019 00:02 9,8 C 4,4 C 15,6 C 15,6 C 12,8 C 46 % 20 cb 17 cb 21 cb 1025,0 hPa 0,0 l/m 0,0 km/h (0 Bft) N 0 0 min 0,000 mm 0,0 UV-I 0 W/m -1,3 C 9,8 C 0,0 km/h (0 Bft) 91,30 %
21.04.2019 00:01 9,6 C 4,4 C 15,6 C 15,6 C 12,2 C 47 % 20 cb 17 cb 21 cb 1025,1 hPa 0,0 l/m 0,0 km/h (0 Bft) N 0 0 min 0,000 mm 0,0 UV-I 0 W/m -1,1 C 9,6 C 0,0 km/h (0 Bft) 95,65 %
21.04.2019 00:00 9,4 C 4,4 C 15,6 C 15,6 C 12,2 C 48 % 20 cb 17 cb 21 cb 1025,1 hPa 0,0 l/m 0,0 km/h (0 Bft) N 0 0 min 0,051 mm 0,0 UV-I 0 W/m -1,0 C 9,4 C 0,0 km/h (0 Bft) 95,65 %
_ Min-Zeit 06:18 05:04 07:38 09:27 00:00 12:43 00:00 00:00 00:00 12:51 - 00:00 - - - - - - 06:15 06:18 00:00 01:07
Minimum _ 1,1 C -1,1 C 11,7 C 12,8 C 12,2 C 25 % 20 cb 17 cb 21 cb 1021,1 hPa - 0,0 km/h (0 Bft) - - - - - - -1,9 C 1,1 C 0,0 km/h (0 Bft) 82,61 %
_ Max-Zeit 12:47 11:27 00:00 00:00 00:02 06:30 11:27 12:03 00:00 00:31 00:00 11:56 - - 07:35 12:00 12:34 12:45 08:45 12:18 12:31 00:13
Maximum _ 20,8 C 31,1 C 15,6 C 15,6 C 12,8 C 82 % 35 cb 19 cb 21 cb 1025,3 hPa 0,0 l/m 20,9 km/h
O (4 Bft)
- - 1 min 0,508 mm 4,8 UV-I 814 W/m 3,2 C 19,6 C 27,4 km/h
O (4 Bft)
100,00 %
Durchschnitt _ 8,2 C 10,6 C 13,3 C 13,9 C 12,8 C 61 % 25 cb 17 cb 21 cb 1023,6 hPa #0,0 l/m 5,0 km/h (1 Bft) W-SW - #5:17 h #1,598 mm 2,8 UV-I 441 W/m 0,4 C 7,6 C 7,4 km/h (2 Bft) 94,20 %